[[{"header":{"parameterUnit":"m.s-1","parameterCategory":1,"la1":30.6,"la2":29.2853,"lo1":-89.7004,"lo2":-87.6739,"dx":0.0162,"dy":0.0183,"nx":112,"ny":82,"refTime":"2022-12-02T06:00:00:Z","depth":0,"parameterNumber":2,"parameterNumberName":"U-component_of_WINDS"},"data":[0.0,0.0,0.0,0.0,0.0,0.0,0.0,0.0,0.0,0.0,0.0,0.0,0.0,0.0,0.0,0.0,0.0,0.0,0.0,0.0,0.0,0.0,0.0,0.0,0.0,0.0,0.0,0.0,0.0,0.0,0.0,0.0,0.0,0.0,0.0,0.0,0.0,0.0,0.0,0.0,0.0,0.0,0.0,0.0,0.0,0.0,0.0,0.0,0.0,0.0,0.0,0.0,0.0,0.0,0.0,0.0,0.0,0.0,0.0,0.0,0.0,0.0,0.0,0.0,0.0,0.0,0.0,0.0,0.0,0.0,0.0,0.0,0.0,0.0,0.0,0.0,0.0,0.0,0.0,0.0,0.0,0.0,0.0,0.0,0.0,0.0,0.0,0.0,0.0,0.0,-1.7569,-1.8195,-1.9025,-1.9479,-1.9497,-1.9439,-1.8544,-1.6473,0.0,0.0,0.0,0.0,0.0,0.0,0.0,0.0,0.0,0.0,0.0,0.0,0.0,0.0,0.0,0.0,0.0,0.0,0.0,0.0,0.0,0.0,0.0,0.0,0.0,0.0,0.0,0.0,0.0,0.0,0.0,0.0,0.0,0.0,0.0,0.0,0.0,0.0,0.0,0.0,0.0,0.0,0.0,0.0,0.0,0.0,0.0,0.0,0.0,0.0,0.0,0.0,0.0,0.0,0.0,0.0,0.0,0.0,0.0,0.0,0.0,0.0,0.0,0.0,0.0,0.0,0.0,0.0,0.0,0.0,0.0,0.0,0.0,0.0,0.0,0.0,0.0,0.0,0.0,0.0,0.0,0.0,0.0,0.0,0.0,0.0,0.0,0.0,0.0,0.0,0.0,0.0,0.0,0.0,0.0,0.0,0.0,0.0,0.0,0.0,0.0,0.0,0.0,0.0,-1.6981,-1.9292,-1.988,-2.0,-1.976,-1.9733,-1.8851,-1.6767,0.0,0.0,0.0,0.0,0.0,0.0,0.0,0.0,0.0,0.0,0.0,0.0,0.0,0.0,0.0,0.0,0.0,0.0,0.0,0.0,0.0,0.0,0.0,0.0,0.0,0.0,0.0,0.0,0.0,0.0,0.0,0.0,0.0,0.0,0.0,0.0,0.0,0.0,0.0,0.0,0.0,0.0,0.0,0.0,0.0,0.0,0.0,0.0,0.0,0.0,0.0,0.0,0.0,0.0,0.0,0.0,0.0,0.0,0.0,0.0,0.0,0.0,0.0,0.0,0.0,0.0,0.0,0.0,0.0,0.0,0.0,0.0,0.0,0.0,0.0,0.0,0.0,0.0,0.0,0.0,0.0,0.0,0.0,0.0,0.0,0.0,0.0,0.0,0.0,0.0,0.0,0.0,0.0,0.0,0.0,0.0,0.0,0.0,0.0,0.0,0.0,0.0,0.0,-1.7021,-1.7983,-1.984,-2.0147,-2.0174,-2.004,-1.9893,-1.8985,-1.7061,-1.5965,0.0,0.0,0.0,0.0,0.0,0.0,0.0,0.0,0.0,0.0,0.0,0.0,0.0,0.0,0.0,0.0,0.0,0.0,0.0,0.0,0.0,0.0,0.0,0.0,0.0,0.0,0.0,0.0,0.0,0.0,0.0,0.0,0.0,0.0,0.0,0.0,0.0,0.0,0.0,0.0,0.0,0.0,0.0,0.0,0.0,0.0,0.0,0.0,0.0,0.0,0.0,0.0,0.0,0.0,0.0,0.0,0.0,0.0,0.0,0.0,0.0,0.0,0.0,0.0,0.0,0.0,0.0,0.0,0.0,0.0,0.0,0.0,0.0,0.0,0.0,0.0,0.0,0.0,0.0,0.0,0.0,0.0,0.0,0.0,0.0,0.0,0.0,0.0,0.0,0.0,0.0,0.0,0.0,0.0,0.0,0.0,0.0,0.0,0.0,0.0,0.0,0.0,-1.8624,-1.9345,-2.0241,-2.0401,-2.0414,-2.0347,-2.0067,-1.9118,-1.7313,-1.6112,0.0,0.0,0.0,0.0,0.0,0.0,0.0,0.0,0.0,0.0,0.0,0.0,0.0,0.0,0.0,0.0,0.0,0.0,0.0,0.0,0.0,0.0,0.0,0.0,0.0,0.0,0.0,0.0,0.0,0.0,0.0,0.0,0.0,0.0,0.0,0.0,0.0,0.0,0.0,0.0,0.0,0.0,0.0,0.0,0.0,0.0,0.0,0.0,0.0,0.0,0.0,0.0,0.0,0.0,0.0,0.0,0.0,0.0,0.0,0.0,0.0,0.0,0.0,0.0,0.0,0.0,0.0,0.0,0.0,0.0,0.0,0.0,0.0,0.0,0.0,0.0,0.0,0.0,0.0,0.0,0.0,0.0,0.0,0.0,0.0,0.0,0.0,0.0,0.0,0.0,0.0,0.0,0.0,0.0,0.0,0.0,0.0,0.0,0.0,0.0,0.0,0.0,-1.8998,-2.0561,-2.0641,-2.0882,-2.0935,-2.0668,-2.0374,-1.9332,-1.7326,-1.6299,0.0,0.0,0.0,0.0,0.0,0.0,0.0,0.0,0.0,0.0,0.0,0.0,0.0,0.0,0.0,0.0,0.0,0.0,0.0,0.0,0.0,0.0,0.0,0.0,0.0,0.0,0.0,0.0,0.0,0.0,0.0,0.0,0.0,0.0,0.0,0.0,0.0,0.0,0.0,0.0,0.0,0.0,0.0,0.0,0.0,0.0,0.0,0.0,0.0,0.0,0.0,0.0,0.0,0.0,0.0,0.0,0.0,0.0,0.0,0.0,0.0,0.0,0.0,0.0,0.0,0.0,0.0,0.0,0.0,0.0,0.0,0.0,0.0,0.0,0.0,0.0,0.0,0.0,0.0,0.0,0.0,0.0,0.0,0.0,0.0,0.0,0.0,0.0,0.0,0.0,0.0,0.0,0.0,0.0,0.0,0.0,0.0,0.0,0.0,0.0,0.0,0.0,-1.8784,-2.0134,-2.0869,-2.1042,-2.1069,-2.0949,-2.0681,-1.9546,-1.734,0.0,0.0,0.0,0.0,0.0,0.0,0.0,0.0,0.0,0.0,0.0,0.0,0.0,0.0,0.0,0.0,0.0,0.0,0.0,0.0,0.0,0.0,0.0,0.0,0.0,0.0,0.0,0.0,0.0,0.0,0.0,0.0,0.0,0.0,0.0,0.0,0.0,0.0,0.0,0.0,0.0,0.0,0.0,0.0,0.0,0.0,0.0,0.0,0.0,0.0,0.0,0.0,0.0,0.0,0.0,0.0,0.0,0.0,0.0,0.0,0.0,0.0,0.0,0.0,0.0,0.0,0.0,0.0,0.0,0.0,0.0,0.0,0.0,0.0,0.0,0.0,0.0,0.0,0.0,0.0,0.0,0.0,0.0,0.0,0.0,0.0,0.0,0.0,0.0,0.0,0.0,0.0,0.0,0.0,0.0,0.0,0.0,0.0,0.0,0.0,0.0,0.0,-1.7488,-1.9011,-2.0227,-2.1029,-2.1109,-2.1109,-2.1109,-2.0842,-1.9725,-1.7353,0.0,0.0,0.0,0.0,0.0,0.0,0.0,0.0,0.0,0.0,0.0,0.0,0.0,0.0,0.0,0.0,0.0,0.0,0.0,0.0,0.0,0.0,0.0,0.0,0.0,0.0,0.0,0.0,0.0,0.0,0.0,0.0,0.0,0.0,0.0,0.0,0.0,0.0,0.0,0.0,0.0,0.0,0.0,0.0,0.0,0.0,0.0,0.0,0.0,0.0,0.0,0.0,0.0,0.0,0.0,0.0,0.0,0.0,0.0,0.0,0.0,0.0,0.0,0.0,0.0,0.0,0.0,0.0,0.0,0.0,0.0,0.0,0.0,0.0,0.0,0.0,0.0,0.0,0.0,0.0,0.0,0.0,0.0,0.0,0.0,0.0,0.0,0.0,0.0,0.0,0.0,0.0,0.0,0.0,0.0,0.0,0.0,0.0,0.0,0.0,0.0,0.0,-1.7876,-1.984,-2.1122,-2.1122,-2.1122,-2.1122,-2.1109,-2.0855,-1.9666,0.0,0.0,0.0,0.0,0.0,0.0,0.0,0.0,0.0,0.0,0.0,0.0,0.0,0.0,0.0,0.0,0.0,0.0,0.0,0.0,0.0,0.0,0.0,0.0,0.0,0.0,0.0,0.0,0.0,0.0,0.0,0.0,0.0,0.0,0.0,0.0,0.0,0.0,0.0,0.0,0.0,0.0,0.0,0.0,0.0,0.0,0.0,0.0,0.0,0.0,0.0,0.0,0.0,0.0,0.0,0.0,0.0,0.0,0.0,0.0,0.0,0.0,0.0,0.0,0.0,0.0,0.0,0.0,0.0,0.0,0.0,0.0,0.0,0.0,0.0,0.0,0.0,0.0,0.0,0.0,0.0,0.0,0.0,0.0,0.0,0.0,0.0,0.0,0.0,0.0,0.0,0.0,0.0,0.0,0.0,0.0,0.0,0.0,0.0,0.0,0.0,0.0,0.0,-1.8531,-2.0454,-2.1724,-2.1724,-2.1724,-2.1643,-2.1443,-2.1413,-2.0073,-1.7021,0.0,0.0,0.0,0.0,0.0,0.0,0.0,0.0,0.0,0.0,0.0,0.0,0.0,0.0,0.0,0.0,0.0,0.0,0.0,0.0,0.0,0.0,0.0,0.0,0.0,0.0,0.0,0.0,0.0,0.0,0.0,0.0,0.0,0.0,0.0,0.0,0.0,0.0,0.0,0.0,0.0,0.0,0.0,0.0,0.0,0.0,0.0,0.0,0.0,0.0,0.0,0.0,0.0,0.0,0.0,0.0,0.0,0.0,0.0,0.0,0.0,0.0,0.0,0.0,0.0,0.0,0.0,0.0,0.0,0.0,0.0,0.0,0.0,0.0,0.0,0.0,0.0,0.0,0.0,0.0,0.0,0.0,0.0,0.0,0.0,0.0,0.0,0.0,0.0,0.0,0.0,0.0,0.0,0.0,0.0,0.0,0.0,0.0,0.0,0.0,0.0,0.0,-1.8971,-2.0788,-2.1991,-2.1991,-2.1991,-2.1911,-2.1737,-2.1789,-2.0588,-1.7929,0.0,0.0,0.0,0.0,0.0,0.0,0.0,0.0,0.0,0.0,0.0,0.0,0.0,0.0,0.0,0.0,0.0,0.0,0.0,0.0,0.0,0.0,0.0,0.0,0.0,0.0,0.0,0.0,0.0,0.0,0.0,0.0,0.0,0.0,0.0,0.0,0.0,0.0,0.0,0.0,0.0,0.0,0.0,0.0,0.0,0.0,0.0,0.0,0.0,0.0,0.0,0.0,0.0,0.0,0.0,0.0,0.0,0.0,0.0,0.0,0.0,0.0,0.0,0.0,0.0,0.0,0.0,0.0,0.0,0.0,0.0,0.0,0.0,0.0,0.0,0.0,0.0,0.0,0.0,0.0,0.0,0.0,0.0,0.0,0.0,0.0,0.0,0.0,0.0,0.0,0.0,0.0,0.0,0.0,0.0,0.0,0.0,0.0,0.0,0.0,0.0,0.0,-1.9292,-2.1002,-2.2098,-2.2071,-2.2098,-2.2084,-2.2031,-2.2031,-2.1269,-1.9578,0.0,0.0,0.0,0.0,0.0,0.0,0.0,0.0,0.0,0.0,0.0,0.0,0.0,0.0,0.0,0.0,0.0,0.0,0.0,0.0,0.0,0.0,0.0,0.0,0.0,0.0,0.0,0.0,0.0,0.0,0.0,0.0,0.0,0.0,0.0,0.0,0.0,0.0,0.0,0.0,0.0,0.0,0.0,0.0,0.0,0.0,0.0,0.0,0.0,0.0,0.0,0.0,0.0,0.0,0.0,0.0,0.0,0.0,0.0,0.0,-1.6206,-1.4803,0.0,0.0,0.0,0.0,0.0,0.0,0.0,0.0,0.0,0.0,0.0,0.0,0.0,0.0,0.0,0.0,0.0,0.0,0.0,0.0,0.0,0.0,0.0,0.0,0.0,0.0,0.0,0.0,0.0,0.0,0.0,0.0,0.0,0.0,0.0,0.0,0.0,0.0,0.0,0.0,-1.9893,-2.1804,-2.2953,-2.2699,-2.2899,-2.2846,-2.2365,-2.2325,-2.1577,-1.9813,-1.9412,0.0,0.0,0.0,0.0,0.0,0.0,0.0,0.0,0.0,0.0,0.0,0.0,0.0,0.0,0.0,0.0,0.0,0.0,0.0,0.0,0.0,0.0,0.0,0.0,0.0,0.0,0.0,0.0,0.0,0.0,0.0,0.0,0.0,0.0,0.0,0.0,0.0,0.0,0.0,0.0,0.0,0.0,0.0,0.0,0.0,0.0,0.0,0.0,0.0,0.0,0.0,0.0,0.0,0.0,0.0,0.0,0.0,0.0,0.0,-1.7862,-1.7034,0.0,0.0,0.0,0.0,0.0,0.0,0.0,0.0,0.0,0.0,0.0,0.0,0.0,0.0,0.0,0.0,0.0,0.0,0.0,0.0,0.0,0.0,0.0,0.0,0.0,0.0,0.0,0.0,0.0,0.0,0.0,0.0,0.0,0.0,0.0,0.0,0.0,0.0,0.0,0.0,-2.0508,-2.2338,-2.3474,-2.3313,-2.3447,-2.3407,-2.31,-2.3073,-2.2552,-2.1349,-2.0615,0.0,0.0,0.0,0.0,0.0,0.0,0.0,0.0,0.0,0.0,0.0,0.0,0.0,0.0,0.0,0.0,0.0,0.0,0.0,0.0,0.0,0.0,0.0,0.0,0.0,0.0,0.0,0.0,0.0,0.0,0.0,0.0,0.0,0.0,0.0,0.0,0.0,0.0,0.0,0.0,0.0,0.0,0.0,0.0,0.0,0.0,0.0,0.0,0.0,0.0,0.0,0.0,0.0,-1.8744,-1.8971,-1.9038,-1.9332,-1.9746,-2.0214,-1.9492,-1.9479,-1.984,-1.8425,0.0,0.0,0.0,0.0,0.0,0.0,0.0,0.0,0.0,0.0,0.0,0.0,0.0,0.0,0.0,0.0,0.0,0.0,0.0,0.0,0.0,0.0,-1.9907,-2.002,-2.0535,-2.0521,-1.8626,0.0,0.0,0.0,0.0,0.0,0.0,0.0,0.0,0.0,0.0,0.0,-2.1176,-2.2806,-2.3834,-2.3768,-2.3821,-2.3821,-2.3768,-2.3768,-2.3554,-2.3115,-2.1884,-2.0882,0.0,0.0,0.0,0.0,0.0,0.0,0.0,0.0,0.0,0.0,0.0,0.0,0.0,0.0,0.0,0.0,0.0,0.0,0.0,0.0,0.0,0.0,0.0,0.0,0.0,0.0,0.0,0.0,0.0,0.0,0.0,0.0,-1.4955,-1.5524,0.0,0.0,0.0,0.0,0.0,0.0,0.0,0.0,0.0,0.0,0.0,0.0,0.0,-1.7702,-1.8424,-1.8891,-1.9279,-1.9573,-2.0374,-2.0895,-2.1226,-2.1456,-2.1764,-2.2071,-2.1951,0.0,-2.0548,-2.0307,0.0,0.0,0.0,0.0,0.0,0.0,0.0,0.0,0.0,0.0,0.0,0.0,0.0,0.0,0.0,0.0,0.0,0.0,0.0,0.0,0.0,0.0,-2.2084,-2.2338,-2.2552,-2.2552,-2.2244,-2.008,-1.8143,-1.7742,-1.7462,-1.7007,0.0,0.0,0.0,0.0,0.0,0.0,-2.2031,-2.3354,-2.4048,-2.3794,-2.3995,-2.4048,-2.3794,-2.3768,-2.3741,-2.3661,-2.3474,-2.2752,-2.144,-2.0641,0.0,0.0,0.0,0.0,0.0,0.0,0.0,0.0,0.0,0.0,0.0,0.0,0.0,0.0,0.0,0.0,0.0,0.0,0.0,0.0,0.0,0.0,0.0,0.0,0.0,0.0,0.0,0.0,0.0,-1.4616,-1.5418,-1.6005,-1.5591,-1.5244,0.0,0.0,0.0,0.0,0.0,0.0,0.0,0.0,0.0,-1.8571,-1.9065,-1.9533,-1.996,-2.0548,-2.0895,-2.1029,-2.1416,-2.167,-2.1817,-2.2271,-2.2552,-2.2686,-2.3033,-2.2979,-2.2565,-2.1403,-2.0548,-1.988,0.0,0.0,0.0,0.0,-1.8851,-1.8985,-2.0107,-2.0388,-2.0201,-1.9966,0.0,0.0,0.0,0.0,0.0,0.0,0.0,-2.0851,-2.163,-2.2258,-2.2792,-2.326,-2.338,-2.338,-2.338,-2.2365,-2.1176,-2.0187,-1.9639,-1.8878,-1.7488,-1.805,0.0,0.0,0.0,-2.167,-2.2779,-2.3821,-2.4396,-2.4275,-2.4369,-2.4396,-2.4262,-2.4262,-2.4195,-2.4022,-2.4008,-2.3647,-2.2901,-2.1911,-2.0628,0.0,0.0,0.0,0.0,0.0,0.0,0.0,0.0,0.0,0.0,0.0,0.0,0.0,0.0,0.0,0.0,0.0,0.0,0.0,0.0,0.0,0.0,0.0,0.0,0.0,0.0,0.0,0.0,-1.5752,-1.6286,-1.6887,-1.662,-1.6104,0.0,0.0,0.0,0.0,0.0,0.0,-1.8143,-1.8931,-1.9506,-1.98,-2.0521,-2.1042,-2.1336,-2.1764,-2.2017,-2.2098,-2.2178,-2.2258,-2.2338,-2.2859,-2.3169,-2.3196,-2.3581,-2.3888,-2.3981,-2.2512,-2.1817,-2.159,-2.0722,-2.0241,-2.0094,-2.0601,-2.0708,-2.0775,-2.2178,-2.2512,-2.2298,-2.2084,-2.1897,-2.163,-2.0828,0.0,0.0,0.0,0.0,-2.211,-2.2699,-2.3046,-2.334,-2.3861,-2.3995,-2.3995,-2.3995,-2.3875,-2.3517,-2.2405,-2.1829,-2.0975,-1.9412,-2.0054,0.0,-2.0013,-2.1416,-2.2806,-2.3567,-2.4235,-2.4636,-2.4636,-2.4636,-2.4636,-2.4636,-2.4636,-2.4543,-2.4329,-2.4315,-2.4182,-2.3888,-2.3033,-2.2071,-2.1029,0.0,0.0,0.0,0.0,0.0,0.0,0.0,0.0,0.0,0.0,0.0,0.0,0.0,0.0,0.0,0.0,0.0,0.0,0.0,0.0,0.0,0.0,0.0,0.0,0.0,0.0,0.0,0.0,0.0,-1.8718,-1.8263,0.0,0.0,0.0,0.0,-1.6045,-1.6419,-1.7502,-1.9594,-2.0254,-2.0722,-2.1015,-2.1336,-2.1643,-2.1937,-2.1964,-2.2124,-2.2405,-2.2686,-2.2966,-2.3273,-2.3581,-2.3728,-2.3728,-2.3754,-2.3781,-2.3808,-2.3981,-2.3714,-2.3207,-2.3153,-2.2605,-2.1884,-2.2191,-2.2485,-2.2766,-2.3153,-2.3273,-2.326,-2.3247,-2.2846,-2.2418,-2.2645,-2.2338,0.0,0.0,-2.2847,-2.3006,-2.3888,-2.4128,-2.4209,-2.4516,-2.4596,-2.4596,-2.4596,-2.4155,-2.3754,-2.3674,-2.3634,-2.3313,-2.2365,0.0,-2.2392,-2.2632,-2.2834,-2.326,-2.4422,-2.4609,-2.4636,-2.4636,-2.4636,-2.4636,-2.4636,-2.4636,-2.4549,-2.4609,-2.4609,-2.4489,-2.4195,-2.4128,-2.3407,-2.1951,-2.1056,0.0,0.0,0.0,0.0,0.0,0.0,0.0,0.0,0.0,0.0,0.0,0.0,0.0,0.0,0.0,0.0,0.0,0.0,0.0,0.0,0.0,0.0,0.0,0.0,0.0,0.0,0.0,0.0,-1.7072,-1.7106,0.0,-1.4614,-1.4547,-1.5246,-1.6692,-1.7278,-1.8411,-2.0553,-2.1029,-2.1376,-2.167,-2.1951,-2.2164,-2.2258,-2.2645,-2.2899,-2.3006,-2.33,-2.35,-2.3621,-2.3915,-2.4048,-2.4062,-2.4249,-2.4329,-2.4342,-2.4436,-2.4142,-2.3634,-2.3821,-2.3688,-2.342,-2.3527,-2.3634,-2.3741,-2.3848,-2.3888,-2.3928,-2.4115,-2.4022,-2.3861,-2.3968,-2.3861,-2.3741,-2.3941,-2.4008,-2.4075,-2.4396,-2.4476,-2.4502,-2.4609,-2.4636,-2.4636,-2.4636,-2.4476,-2.4329,-2.4329,-2.4022,-2.3541,-2.2832,-2.334,-2.3621,-2.2966,-2.3514,-2.4155,-2.4583,-2.4636,-2.4636,-2.4636,-2.4636,-2.4636,-2.4636,-2.4636,-2.4636,-2.4636,-2.4636,-2.4596,-2.4489,-2.4476,-2.4142,-2.342,-2.3287,-2.1897,0.0,0.0,0.0,0.0,0.0,0.0,0.0,0.0,0.0,0.0,0.0,0.0,0.0,0.0,0.0,0.0,0.0,0.0,0.0,0.0,0.0,0.0,0.0,0.0,0.0,-1.6671,-1.6544,-1.5532,-1.5858,-1.5389,-1.3383,-1.3672,-1.4696,-1.6558,-1.7122,-1.8562,-2.1115,-2.163,-2.1937,-2.2124,-2.2418,-2.2619,-2.2726,-2.3126,-2.338,-2.3474,-2.3781,-2.3915,-2.3928,-2.4222,-2.4342,-2.4356,-2.4556,-2.4636,-2.4636,-2.4636,-2.4462,-2.4235,-2.4422,-2.4556,-2.4649,-2.4649,-2.4583,-2.4489,-2.4382,-2.4342,-2.4382,-2.4569,-2.4636,-2.4636,-2.4636,-2.4636,-2.4636,-2.4636,-2.4636,-2.4636,-2.4636,-2.4636,-2.4636,-2.4636,-2.4636,-2.4663,-2.477,-2.4783,-2.4823,-2.4917,-2.4462,-2.3941,-2.3527,-2.4115,-2.4369,-2.3581,-2.4128,-2.4676,-2.477,-2.4703,-2.4716,-2.4903,-2.5417,-2.5834,-2.5931,-2.6152,-2.6474,-2.6938,-2.6402,-2.6315,-2.6779,-2.6171,-2.577,-2.564,-2.5042,-2.3324,-2.0241,0.0,0.0,0.0,0.0,0.0,0.0,0.0,0.0,0.0,0.0,0.0,0.0,0.0,0.0,0.0,0.0,0.0,0.0,0.0,0.0,0.0,0.0,0.0,-1.5615,-1.4629,-1.4015,-1.4302,-1.4698,-1.4194,-1.2406,-1.2557,-1.3618,-1.5643,-1.6059,-1.779,-2.1434,-2.2111,-2.2418,-2.2432,-2.2726,-2.302,-2.3327,-2.334,-2.35,-2.3794,-2.4075,-2.4222,-2.4222,-2.4502,-2.4636,-2.4636,-2.4636,-2.4636,-2.4636,-2.4636,-2.4823,-2.509,-2.509,-2.5277,-2.5518,-2.5518,-2.5317,-2.5024,-2.473,-2.4636,-2.4636,-2.4636,-2.4636,-2.4636,-2.4636,-2.4636,-2.4636,-2.4636,-2.4636,-2.4636,-2.4636,-2.4636,-2.4636,-2.4636,-2.4649,-2.473,-2.5024,-2.509,-2.5184,-2.5464,-2.505,-2.4663,-2.4663,-2.4663,-2.4663,-2.4663,-2.4663,0.0,-2.5125,-2.4911,-2.4951,-2.5577,-2.7136,-2.831,-2.8642,-2.9338,-3.026,-3.1496,-3.0025,-2.9625,-3.0965,-2.9395,-2.8521,-2.8521,-2.632,-2.4166,-2.2202,0.0,0.0,0.0,0.0,0.0,0.0,0.0,0.0,0.0,0.0,0.0,0.0,0.0,0.0,0.0,0.0,0.0,0.0,0.0,0.0,0.0,-1.3613,-1.3097,-1.4245,-1.4516,-1.4215,-1.3403,-1.3409,-1.3323,-1.3023,-1.3331,-1.4763,-1.7888,-1.8322,-1.9579,-2.2032,-2.2338,-2.2512,-2.2726,-2.3033,-2.3247,-2.3327,-2.3754,-2.4008,-2.4088,-2.4382,-2.4516,-2.4516,-2.4596,-2.4636,-2.4636,-2.4636,-2.4636,-2.4636,-2.4636,-2.493,-2.5398,-2.5398,-2.5571,-2.5812,-2.5598,-2.5197,-2.4743,-2.4663,-2.4636,-2.4636,-2.4636,-2.4636,-2.4636,-2.4636,-2.4636,-2.4636,-2.4636,-2.4636,-2.4636,-2.4636,-2.4636,-2.4636,-2.4636,-2.4796,-2.4983,-2.5064,-2.5251,-2.5424,-2.5504,-2.5384,-2.5277,-2.5277,-2.5277,-2.5277,-2.5277,-2.5277,-2.5821,-2.7444,-2.7536,-2.7866,-2.8852,-2.9377,-2.972,-2.9817,-3.0058,-3.0524,-3.1513,-3.1109,-3.1026,-3.1397,-3.096,-3.0745,-3.0745,-2.7632,-2.6393,0.0,0.0,0.0,0.0,0.0,0.0,0.0,0.0,0.0,0.0,0.0,0.0,0.0,0.0,0.0,0.0,0.0,0.0,0.0,0.0,0.0,0.0,-1.2663,-1.202,-1.2337,-1.2715,-1.2737,-1.2001,-1.2605,-1.3175,-1.3484,-1.4325,-1.6088,-1.8975,-1.9421,-2.0386,-2.2271,-2.2539,-2.2739,-2.3046,-2.3233,-2.3447,-2.3688,-2.4035,-2.4262,-2.4382,-2.4556,-2.4636,-2.4636,-2.4636,-2.4636,-2.4636,-2.4636,-2.4636,-2.4636,-2.4636,-2.4983,-2.5518,0.0,0.0,0.0,0.0,-2.5117,-2.4796,-2.4676,-2.4636,-2.4589,-2.4783,-2.4823,-2.485,-2.497,-2.501,-2.4983,-2.4863,-2.4823,-2.4796,-2.4676,-2.473,-2.4823,-2.4823,-2.505,-2.5304,-2.5424,-2.6246,-2.701,-2.7122,-2.7827,0.0,-2.8424,-2.7535,-2.7074,-2.7951,-2.8026,-2.8522,-2.9844,-2.9958,-3.0203,-3.1088,-3.1883,-3.2354,-3.2436,-3.2825,0.0,0.0,0.0,-3.3358,-3.3198,-3.3198,0.0,0.0,0.0,-2.9338,-3.0085,-2.8205,0.0,0.0,-2.6376,-2.6818,0.0,0.0,0.0,0.0,0.0,0.0,0.0,0.0,0.0,0.0,0.0,0.0,0.0,0.0,0.0,0.0,-1.1823,-1.1736,-1.0467,-1.0619,-1.0839,-1.0839,-1.2334,-1.3616,-1.4312,-1.5833,-1.7608,-1.9578,-1.9963,-2.0798,-2.2404,-2.2752,0.0,0.0,0.0,-2.3674,-2.4195,-2.4235,-2.4382,-2.4636,-2.4636,-2.4636,-2.4636,-2.4636,-2.4636,-2.4636,-2.4636,-2.4636,-2.4636,-2.4636,-2.4957,-2.5464,-2.5531,-2.5678,-2.5798,-2.5277,-2.5064,-2.4997,-2.477,0.0,0.0,-2.5037,-2.513,-2.5184,-2.5438,-2.5518,-2.5464,-2.5197,-2.513,-2.5064,-2.481,-2.493,-2.513,-2.513,-2.5358,-2.5638,-2.5905,-2.7634,-2.9105,-2.9389,-3.1054,-3.2581,-3.2809,-3.07,-2.9632,-3.14,-3.1695,-3.1885,-3.235,-3.2174,-3.2282,-3.3003,-3.4401,0.0,-3.5649,-3.6352,-3.7266,-3.8496,-3.7148,-3.6133,-3.5762,-3.5762,-3.4978,-3.3317,-3.3041,-3.2809,-3.2549,-3.2328,-3.2328,-3.2481,-3.0799,-3.0763,0.0,0.0,0.0,0.0,0.0,0.0,0.0,0.0,0.0,0.0,0.0,0.0,0.0,0.0,0.0,-1.1692,-1.1233,-1.0665,-1.0497,-1.18,-1.2751,-1.2751,-1.3302,-1.4817,-1.7697,-1.8663,-1.9872,-2.1709,-2.2117,-2.2424,-2.2779,-2.3073,-2.326,-2.3327,-2.3781,-2.4088,-2.4209,-2.4436,-2.4583,-2.4636,-2.4636,0.0,-2.4636,-2.4636,-2.4636,-2.4636,-2.4636,-2.4636,-2.4636,-2.4636,-2.485,-2.5211,-2.5692,-2.5611,-2.5237,-2.5117,-2.493,-2.4743,-2.493,-2.4997,-2.5037,-2.5331,-2.5424,-2.5438,-2.5491,-2.5518,0.0,-2.5451,-2.5424,-2.5411,-2.5358,-2.5384,-2.5424,-2.5424,-2.5651,-2.5892,-2.6023,-2.7728,-2.9374,-2.9356,-3.1054,-3.3037,-3.4636,-3.3145,-3.1912,-3.2291,-3.2291,-3.291,-3.4627,-3.4797,-3.5174,-3.6255,-3.666,-3.6926,-3.6932,-3.7093,-3.7578,-3.8516,-3.8262,-3.8047,-3.7969,-3.7969,-3.7961,-3.7928,-3.6276,-3.6403,-3.831,-3.6576,-3.6652,-3.8197,-3.4077,-3.2267,0.0,0.0,0.0,0.0,0.0,0.0,0.0,0.0,0.0,0.0,0.0,-1.0939,-1.1257,0.0,-1.003,-1.0986,-1.0735,-1.0727,-1.1694,-1.2686,-1.3358,-1.3518,-1.5262,-1.7201,-1.9186,-2.0398,-2.1513,-2.2564,-2.2779,-2.2928,-2.2928,-2.3153,-2.3394,-2.3541,-2.3968,-2.4275,-2.4422,-2.4569,-2.4636,-2.4636,-2.4636,-2.4636,-2.4636,-2.4636,-2.4636,-2.4636,-2.4636,-2.4636,-2.4649,-2.4796,-2.4863,-2.4903,-2.5344,-2.5344,-2.5064,-2.4917,-2.4863,-2.4877,-2.5024,-2.517,-2.5344,-2.5638,-2.5732,-2.5758,-2.5905,-2.5945,-2.5919,-2.5772,-2.5732,-2.5705,-2.5545,-2.5625,-2.5732,-2.5732,-2.6708,-2.7692,-2.7692,-3.0238,-3.2472,-3.2472,-3.4151,-3.583,-3.6904,-3.622,-3.5533,-3.5533,-3.5533,-3.5905,-3.6885,-3.7032,-3.7267,-3.7897,-3.793,-3.793,-3.793,-3.793,-3.8125,-3.8555,-3.8574,-3.8672,-3.8887,-3.8887,-3.9101,-3.9551,-3.8537,-3.8652,-3.9902,-3.8861,-3.8861,-3.9807,-3.7629,-3.6479,0.0,0.0,0.0,0.0,0.0,0.0,0.0,-1.2037,-1.1864,-1.0771,-1.0823,-1.0819,-1.0039,-1.0012,-1.0141,-1.0297,-1.0419,-1.1142,-1.2895,-1.3548,-1.4059,-1.4824,-1.7378,-1.9423,-2.0226,-2.1636,-2.2605,-2.2914,-2.2928,-2.2928,-2.2928,-2.3207,-2.3527,-2.3768,-2.4102,-2.4396,-2.4636,-2.4636,-2.4636,-2.4636,-2.4636,-2.4636,-2.4636,-2.4636,-2.4636,-2.4636,-2.4636,-2.4636,-2.4649,-2.489,-2.485,-2.4663,-2.5405,-2.5664,-2.5636,-2.4958,-2.4943,-2.5251,-2.5251,-2.5398,-2.5651,-2.5945,-2.6117,-2.6079,-2.6319,-2.6386,-2.6333,-2.6106,-2.6117,-2.5985,-2.5745,-2.5865,-2.6195,-2.6571,-2.8046,-2.9526,-2.9898,-3.2994,-3.5623,-3.5623,-3.7387,-3.8828,-3.8828,-3.875,-3.8672,-3.8594,-3.8574,-3.8574,-3.8574,-3.8574,-3.8574,-3.8574,-3.8652,-3.873,-3.8828,-3.8828,-3.8828,-3.8828,-3.8828,-3.8984,-3.9316,-3.9336,-3.9551,-4.0019,-4.0019,-4.0059,-4.0137,-4.0137,-4.0176,-4.0273,-4.0605,-4.0547,-1.4255,-1.3107,-1.2668,-1.4705,-1.3997,-1.2781,0.0,-1.2073,-1.1141,-1.0254,-1.0135,-1.0149,-1.0258,-1.0243,-1.0304,-1.0446,-1.048,-1.1178,-1.3004,-1.4605,-1.6402,-1.8506,-1.9096,-2.0093,-2.1908,-2.2523,-2.2887,-2.2928,-2.2928,-2.2928,-2.2928,-2.3407,-2.3741,-2.3768,-2.4302,-2.4609,-2.4636,-2.4636,-2.4636,-2.4636,-2.4636,-2.4636,-2.4636,-2.4636,-2.4636,-2.4636,-2.4636,-2.4636,-2.4562,-2.4676,-2.4663,-2.4811,-2.6922,-2.7762,-2.7541,-2.5697,-2.5384,-2.5929,-2.5929,-2.5956,-2.5959,-2.6239,-2.6346,-2.6346,-2.6373,-2.6386,-2.6386,-2.6346,-2.6346,-2.6333,-2.6293,-2.6319,-2.6806,-2.8628,-2.9186,-2.9898,-3.1743,-3.4219,-3.615,-3.615,-3.8085,-3.9746,-3.9746,-3.9414,-3.9004,-3.8633,-3.8574,-3.8574,-3.8574,-3.8574,-3.8574,-3.8574,-3.8906,-3.9297,-3.9707,-3.9746,-3.9746,-3.9746,-3.9746,-3.9766,-3.9824,-3.9824,-4.0019,-4.0449,-4.0449,-4.0644,-4.1035,-4.1035,-4.123,-4.1582,-4.1641,-4.1426,-1.4686,-1.4051,-1.3623,-1.3654,-1.3221,-1.2499,-1.1363,-1.077,-1.0366,-1.0053,-0.9984,-1.0058,-1.0358,-1.0405,-1.0453,-1.0602,-1.1607,-1.3071,-1.4856,-1.6744,-1.8757,-2.0885,-2.1136,-2.152,-2.2578,-2.2792,-2.2928,-2.2928,-2.2928,-2.2939,-2.3126,-2.3541,-2.3848,-2.4022,-2.4422,-2.4636,-2.4636,-2.4636,-2.4636,-2.4636,-2.4636,-2.4636,-2.4636,-2.4636,-2.4636,-2.4636,-2.4636,-2.5212,-2.6284,-2.6284,-2.71,-2.8416,-2.9429,-3.015,-3.036,-2.8043,-2.8115,-2.9184,-2.6785,-2.6895,-2.7827,-2.6727,-2.6386,-2.6386,-2.6386,-2.6386,-2.6386,-2.6386,-2.6386,-2.6689,-2.7841,-2.8154,-2.8686,-3.0746,-3.2271,-3.3585,-3.4516,-3.6597,-3.8368,-3.8368,-3.9219,-3.9902,-3.9902,-3.9726,-3.9551,-3.9375,-3.8906,-3.8574,-3.8574,-3.8789,-3.9043,-3.9316,-3.9492,-3.9687,-3.9883,-3.9902,-3.9902,-3.9902,-3.9902,-4.0,-4.0254,-4.0254,-4.0469,-4.0898,-4.0898,-4.0996,-4.1172,-4.1426,-4.1621,-4.1816,-4.2051,-4.2207,-1.4114,-1.3756,-1.3469,-1.2557,-1.2266,-1.1776,-1.03,-0.9883,-0.9863,-0.9957,-1.0017,-1.0188,-1.0446,-1.0527,-1.0602,-1.0758,-1.246,-1.4415,-1.6195,-1.815,-2.0209,-2.2283,-2.2539,-2.2659,-2.2966,-2.2913,-2.2928,-2.2928,-2.302,-2.318,-2.3313,-2.3754,-2.4075,-2.4195,-2.4489,-2.4636,-2.4636,-2.4636,-2.4636,-2.4636,-2.4636,-2.4676,-2.4756,-2.4756,-2.4999,-2.5433,-2.5515,-2.6296,-2.7593,-2.834,-2.9568,-3.1087,-3.1794,-3.2606,-3.2969,-3.1189,-3.127,-3.1712,-2.8149,-2.8032,-2.906,-2.7083,-2.6386,-2.6386,-2.6386,-2.6386,-2.6386,-2.6386,-2.6768,-2.7541,-2.8983,-2.9897,-3.0964,-3.3035,-3.5018,-3.6537,-3.7086,-3.8747,-4.0078,-4.0078,-4.0176,-4.0254,-4.0254,-4.0156,-4.0117,-4.0234,-3.959,-3.9062,-3.8945,-3.9199,-3.957,-4.0019,-4.0078,-4.0117,-4.0234,-4.0254,-4.0254,-4.0254,-4.0254,-4.0391,-4.0684,-4.0703,-4.084,-4.1172,-4.1172,-4.123,-4.1348,-4.166,-4.1914,-4.2168,-4.2461,-4.2832,-1.1718,-1.0957,-1.0543,-1.188,-1.1275,-1.034,-1.027,-1.0032,-0.9863,-0.9957,-1.0168,-1.0317,-1.0466,-1.0616,-1.0765,-1.0847,-1.2538,-1.4468,-1.6348,-1.8195,-2.0282,-2.2642,-2.2846,-2.2966,-2.3287,-2.3046,-2.2928,-2.2928,-2.3407,-2.3621,-2.334,-2.4142,-2.4489,-2.4209,-2.4489,-2.4636,-2.4636,-2.4636,-2.4636,-2.4636,-2.4636,-2.4783,-2.5064,-2.5064,-2.5931,-2.7448,-2.7834,-2.7789,-2.7695,-3.0373,-3.133,-3.1282,-3.3923,-3.4975,-3.5047,-3.5186,-3.4267,-3.2565,-3.0144,-2.9356,-2.906,-2.7083,-2.6386,-2.6386,-2.6386,-2.6386,-2.6386,-2.6386,-2.7762,-2.9293,-2.9371,-3.1213,-3.348,-3.5579,-3.6417,-3.7338,-3.9316,-4.0139,-4.0508,-4.0508,-4.084,-4.1133,-4.1133,-4.0781,-4.0644,-4.1074,-4.0742,-4.0312,-3.9902,-3.9863,-4.0039,-4.0469,-4.0508,-4.0684,-4.1094,-4.1133,-4.1133,-4.1133,-4.1133,-4.1133,-4.1152,-4.1152,-4.1172,-4.1172,-4.1172,-4.1367,-4.1777,-4.1797,-4.2226,-4.3047,-4.3047,-4.3281,-1.0733,-1.0299,-1.0246,-1.0991,-1.0763,-1.0283,-1.0283,-1.012,-1.0321,-1.1651,-1.1058,-1.07,-1.1993,-1.2417,-1.2561,-1.2616,-1.5529,-1.8001,-1.8631,-2.0605,-2.2306,-2.307,-2.334,-2.35,-2.3607,-2.3354,-2.3086,-2.2873,-2.342,-2.3728,-2.3621,-2.4262,-2.4596,-2.4489,-2.4583,-2.5212,-2.6502,-2.5478,-2.5588,-2.6805,-2.7095,-2.6594,-2.5447,-2.6768,-2.7126,-2.6544,-2.7848,-2.9177,-3.0531,-3.266,-3.4342,-3.5659,-3.6607,-3.7128,-3.7448,-3.7528,-3.7219,-3.6162,-3.269,-3.2337,-3.3154,-3.1115,-2.9526,-2.8374,-2.8374,-2.7462,-2.6702,-2.7997,-2.8905,-3.0114,-3.3109,-3.4561,-3.5744,-3.8122,-3.8956,-3.9433,-4.016,-4.0644,-4.0957,-4.0957,-4.1074,-4.1172,-4.1172,-4.1055,-4.1191,-4.1894,-4.1406,-4.0898,-4.0762,-4.0742,-4.0801,-4.0937,-4.0957,-4.1016,-4.1172,-4.1172,-4.1172,-4.1172,-4.1172,-4.1172,-4.1172,-4.1172,-4.1172,-4.1172,-4.1445,-4.166,-4.1797,-4.2363,-4.2793,-4.3086,-4.3359,-4.3574,-1.0009,-0.9909,-1.0071,-1.048,-1.046,-1.0543,-1.1175,-1.1177,-1.158,-1.343,-1.2901,-1.2455,-1.377,-1.4216,-1.4426,-1.4702,-1.7709,-1.9965,-2.006,-2.2027,-2.3487,-2.3487,-2.3741,-2.3928,-2.3928,-2.3754,-2.3514,-2.3207,-2.3741,-2.4075,-2.4075,-2.4636,-2.4903,-2.4796,-2.5341,-2.6341,-2.767,-2.6655,-2.6812,-2.8163,-2.8567,-2.8732,-2.8762,-2.9482,-2.9577,-2.9321,-3.0573,-3.1861,-3.3135,-3.5267,-3.6831,-3.7949,-3.8086,-3.8418,-3.8789,-3.8789,-3.8906,-3.8542,-3.4875,-3.4451,-3.5199,-3.3171,-3.159,-3.0515,-3.0515,-2.9604,-2.8856,-3.036,-3.1227,-3.2539,-3.5628,-3.7081,-3.8121,-3.9736,-4.0449,-4.0762,-4.0762,-4.0976,-4.1172,-4.1172,-4.1172,-4.1172,-4.1172,-4.1426,-4.1797,-4.2344,-4.2109,-4.1797,-4.1641,-4.1484,-4.1348,-4.1191,-4.1172,-4.1172,-4.1172,-4.1172,-4.1172,-4.1172,-4.1172,-4.1172,-4.1172,-4.1308,-4.1387,-4.1387,-4.1816,-4.2109,-4.2266,-4.2812,-4.3164,-4.3301,-4.3574,-4.3711,-0.9585,-0.9842,-1.0038,-1.0263,-1.0463,-1.107,-1.2724,-1.3101,-1.3537,-1.5266,-1.5442,-1.5369,-1.5678,-1.5934,-1.6247,-1.6947,-1.8945,-2.0493,-2.0615,-2.2479,-2.3781,-2.3794,-2.4048,-2.4222,-2.4222,-2.4209,-2.4102,-2.3861,-2.4342,-2.4649,-2.4636,-2.5211,-2.5398,-2.5117,-2.663,-2.77,-2.8293,-2.8176,-2.8282,-2.8597,-2.8912,-3.09,-3.4342,-3.2736,-3.3129,-3.5046,-3.5499,-3.5537,-3.5394,-3.813,-3.8769,-3.8066,-3.8476,-3.8887,-3.9238,-3.9238,-3.9512,-3.954,-3.6682,-3.5718,-3.542,-3.3466,-3.2766,-3.269,-3.2707,-3.2614,-3.2604,-3.3105,-3.4682,-3.6348,-3.6881,-3.8783,-4.0527,-4.0547,-4.0879,-4.1172,-4.1172,-4.1172,-4.1172,-4.1172,-4.1172,-4.1172,-4.1211,-4.1894,-4.2441,-4.2461,-4.2812,-4.291,-4.248,-4.207,-4.168,-4.125,-4.123,-4.123,-4.123,-4.123,-4.123,-4.123,-4.123,-4.123,-4.123,-4.1621,-4.1836,-4.1836,-4.2246,-4.2656,-4.3086,-4.3105,-4.332,-4.3711,-4.3711,-4.3711,-0.9836,-1.008,-1.0283,-1.0541,-1.151,-1.2532,-1.2973,-1.4079,-1.5448,-1.6971,-1.6247,-1.5597,-1.6522,-1.7377,-1.7976,-1.7988,-2.0385,-2.2332,-2.2562,-2.3285,-2.3848,-2.4062,-2.4342,-2.4529,-2.4529,-2.4329,-2.4356,-2.4716,-2.4877,-2.4863,-2.4649,-2.5398,-2.5705,-2.5411,-2.5772,-2.7447,-3.0518,-3.0718,-3.0288,-2.9194,-2.9284,-3.0559,-3.2993,-3.2892,-3.3209,-3.4094,-3.5752,-3.6601,-3.6859,-3.8898,-3.959,-3.9394,-3.9512,-3.9629,-3.9726,-3.9726,-3.9785,-3.9788,-3.9009,-3.8763,-3.8688,-3.816,-3.6767,-3.5339,-3.564,-3.4427,-3.3353,-3.5285,-3.6254,-3.7129,-3.9051,-4.0047,-4.0605,-4.0937,-4.1094,-4.1172,-4.1172,-4.1172,-4.1172,-4.1172,-4.1172,-4.1269,-4.1582,-4.207,-4.2539,-4.2871,-4.3008,-4.291,-4.248,-4.2344,-4.2109,-4.168,-4.1914,-4.2109,-4.2109,-4.2109,-4.2109,-4.2109,-4.2109,-4.2109,-4.2109,-4.2207,-4.2266,-4.2266,-4.2695,-4.2969,-4.3086,-4.3398,-4.3594,-4.3711,-4.3711,-4.3887,-0.9903,-1.0209,-1.0412,-1.0575,-1.1315,-1.233,-1.3483,-1.4615,-1.5939,-1.7936,-1.7542,-1.7114,-1.7901,-1.8899,-1.965,-1.9738,-2.1632,-2.3166,-2.3474,-2.3781,-2.4022,-2.4182,-2.4462,-2.4636,-2.4636,-2.4609,-2.473,-2.505,-2.5077,-2.5117,-2.5211,-2.5692,-2.5879,-2.5718,-2.6399,-2.7874,-3.0233,-3.2367,-3.2517,-3.0746,-3.165,-3.3171,-3.516,-3.5628,-3.6022,-3.6415,-3.7847,-3.8532,-3.8738,-3.9797,-4.0059,-3.9902,-3.9902,-4.0019,-4.0176,-4.0176,-4.0293,-4.0449,-4.0449,-4.0449,-4.043,-4.0234,-3.9089,-3.7895,-3.8288,-3.7338,-3.6394,-3.7982,-3.8401,-3.8821,-4.0376,-4.0801,-4.0879,-4.1113,-4.1172,-4.1172,-4.1172,-4.1172,-4.1172,-4.1172,-4.1328,-4.1523,-4.1758,-4.2148,-4.25,-4.2754,-4.2793,-4.2695,-4.2461,-4.2422,-4.2344,-4.2109,-4.2285,-4.2422,-4.2422,-4.2422,-4.2422,-4.2422,-4.2422,-4.2422,-4.2422,-4.2617,-4.2715,-4.2715,-4.3144,-4.3359,-4.3359,-4.3594,-4.3711,-4.3711,-4.3906,-4.4141,-0.9997,-1.0297,-1.0493,-1.0514,-1.0944,-1.1961,-1.4128,-1.5156,-1.6243,-1.8396,-1.8865,-1.8931,-1.9145,-1.9973,-2.0802,-2.1413,-2.2432,-2.334,-2.3714,-2.3981,-2.4168,-2.4249,-2.4489,-2.4636,-2.4636,-2.4903,-2.509,-2.513,-2.517,-2.5424,-2.601,-2.5999,-2.6168,-2.6466,-2.8306,-2.9335,-2.932,-3.3453,-3.4601,-3.2944,-3.4376,-3.6386,-3.8672,-3.8786,-3.9307,-4.0,-4.043,-4.0605,-4.0605,-4.0605,-4.0391,-4.0059,-4.0059,-4.0293,-4.0605,-4.0605,-4.084,-4.1172,-4.1172,-4.1172,-4.1113,-4.0723,-4.0332,-4.0059,-4.0488,-4.0312,-4.0078,-4.0488,-4.0605,-4.0703,-4.1074,-4.1172,-4.1172,-4.1172,-4.1172,-4.1172,-4.1172,-4.1172,-4.1172,-4.1172,-4.1465,-4.1738,-4.1797,-4.2109,-4.2363,-4.2422,-4.2383,-4.2363,-4.2422,-4.248,-4.2519,-4.2519,-4.2558,-4.2598,-4.2598,-4.2598,-4.2598,-4.2598,-4.2598,-4.2598,-4.2598,-4.2969,-4.3164,-4.3164,-4.3516,-4.3711,-4.3711,-4.3711,-4.373,-4.3808,-4.4199,-4.4453,-1.0344,-1.0453,-1.0521,-1.0649,-1.2841,-1.5019,-1.4932,-1.699,-1.8893,-1.8632,-1.8571,-1.8504,-1.8262,-1.9386,-2.0428,-2.0775,-2.1817,-2.2859,-2.3661,-2.3808,-2.4022,-2.4502,-2.4609,-2.4636,-2.4636,-2.4903,-2.5184,-2.5424,-2.5665,-2.5929,-2.5959,-2.6186,-2.7079,-2.8754,-3.2399,-3.3453,-3.1875,-3.4267,-3.5348,-3.4975,-3.3624,-3.5171,-3.9028,-3.7745,-3.8404,-4.043,-4.0879,-4.1055,-4.1055,-4.1055,-4.1016,-4.0957,-4.0957,-4.0996,-4.1055,-4.1055,-4.1113,-4.1172,-4.1172,-4.1172,-4.1172,-4.1094,-4.0762,-4.0488,-4.0937,-4.0762,-4.0508,-4.0937,-4.1055,-4.1074,-4.1152,-4.1172,-4.1172,-4.1172,-4.1172,-4.1172,-4.1172,-4.1172,-4.1172,-4.1172,-4.123,-4.1387,-4.1738,-4.1855,-4.2031,-4.2383,-4.2129,-4.2031,-4.2383,-4.2734,-4.2969,-4.2969,-4.3281,-4.3476,-4.3476,-4.3476,-4.3476,-4.3476,-4.3476,-4.3476,-4.3476,-4.3555,-4.3594,-4.3594,-4.3672,-4.3711,-4.3711,-4.3711,-4.3906,-4.4277,-4.4355,-4.4785,-1.0453,-1.0548,-1.0629,-1.0704,-1.261,-1.4465,-1.4178,-1.6026,-1.7673,-1.7424,-1.7462,-1.7569,-1.7582,-1.8784,-1.988,-2.0174,-2.1323,-2.2512,-2.342,-2.3674,-2.3981,-2.4569,-2.4636,-2.4636,-2.4636,-2.5037,-2.5358,-2.5504,-2.5932,-2.6186,-2.6186,-2.7301,-2.8374,-2.9371,-3.3381,-3.4526,-3.2505,-3.5607,-3.6571,-3.5497,-3.5589,-3.6887,-3.9219,-3.8652,-3.9166,-4.0547,-4.0976,-4.1172,-4.1172,-4.1172,-4.1172,-4.1172,-4.1172,-4.1172,-4.1172,-4.1172,-4.1172,-4.1172,-4.1172,-4.1172,-4.1172,-4.1172,-4.1035,-4.0937,-4.1367,-4.1211,-4.0898,-4.1113,-4.1172,-4.1172,-4.1172,-4.1172,-4.1172,-4.1172,-4.1172,-4.1172,-4.1172,-4.1172,-4.1172,-4.1172,-4.1348,-4.1562,-4.1758,-4.1797,-4.1875,-4.207,-4.1933,-4.1875,-4.207,-4.248,-4.2734,-4.2734,-4.291,-4.3047,-4.3047,-4.3047,-4.3047,-4.3047,-4.3047,-4.3144,-4.3359,-4.3379,-4.3476,-4.3691,-4.3711,-4.3711,-4.3711,-4.3945,-4.418,-4.4414,-4.4863,-4.5273,-1.0521,-1.0629,-1.0717,-1.0717,-1.2281,-1.3742,-1.3489,-1.4993,-1.646,-1.6318,-1.65,-1.6794,-1.7152,-1.8318,-1.9332,-1.9813,-2.0909,-2.2058,-2.3086,-2.3487,-2.3888,-2.4476,-2.4596,-2.4636,-2.4636,-2.517,-2.5518,-2.5518,-2.6429,-2.7083,-2.7083,-2.9371,-3.0731,-3.0731,-3.4301,-3.544,-3.3792,-3.6977,-3.7805,-3.6183,-3.7805,-3.8848,-3.9355,-3.9726,-4.0176,-4.0684,-4.1035,-4.1172,-4.1172,-4.1172,-4.1172,-4.1172,-4.1172,-4.1172,-4.1172,-4.1172,-4.1172,-4.1172,-4.1172,-4.1172,-4.1172,-4.1172,-4.1172,-4.123,-4.1562,-4.1426,-4.1172,-4.1172,-4.1172,-4.1172,-4.1172,-4.1172,-4.1172,-4.1172,-4.1172,-4.1172,-4.1172,-4.1172,-4.1172,-4.1172,-4.1445,-4.166,-4.166,-4.166,-4.166,-4.166,-4.166,-4.166,-4.166,-4.1953,-4.2187,-4.2285,-4.2383,-4.2422,-4.2422,-4.2422,-4.2422,-4.2422,-4.2519,-4.2715,-4.3066,-4.3164,-4.3359,-4.3691,-4.3711,-4.3711,-4.3711,-4.418,-4.4433,-4.4551,-4.5312,-4.5723,-1.0629,-1.0711,-1.0717,-1.0717,-1.3193,-1.5302,-1.3966,-1.6034,-1.79,-1.658,-1.65,-1.6794,-1.7152,-1.7983,-1.8931,-2.0013,-2.0535,-2.1296,-2.2767,-2.3166,-2.3581,-2.4168,-2.4476,-2.4636,-2.4636,-2.517,-2.5518,-2.5518,-2.772,-2.9138,-2.9138,-3.2852,-3.4975,-3.4975,-3.7125,-3.8263,-3.8044,-3.8428,-3.8501,-3.8336,-3.8501,-3.9023,-3.9824,-3.9883,-4.0351,-4.1113,-4.1152,-4.1172,-4.1172,-4.1172,-4.1172,-4.1172,-4.1172,-4.1172,-4.1172,-4.1172,-4.1172,-4.1172,-4.1172,-4.1172,-4.1172,-4.1172,-4.1172,-4.1172,-4.1211,-4.1211,-4.1172,-4.1172,-4.1172,-4.1172,-4.1172,-4.1172,-4.1172,-4.1172,-4.1172,-4.1172,-4.1172,-4.1172,-4.1172,-4.1172,-4.1211,-4.123,-4.123,-4.123,-4.123,-4.123,-4.123,-4.123,-4.123,-4.1269,-4.1426,-4.1816,-4.2207,-4.2422,-4.2422,-4.2422,-4.2422,-4.2422,-4.2793,-4.3047,-4.3086,-4.3437,-4.3672,-4.3711,-4.3711,-4.3711,-4.3711,-4.418,-4.459,-4.498,-4.5449,-4.5879,-1.0616,-1.0717,-1.0717,-1.0717,-1.3026,-1.5018,-1.3771,-1.5514,-1.7141,-1.6192,-1.5965,-1.6112,-1.6767,-1.7462,-1.833,-1.9519,-2.0107,-2.0802,-2.1976,-2.2485,-2.3006,-2.3607,-2.3941,-2.4249,-2.4609,-2.517,-2.5665,-2.6012,-2.8152,-2.9975,-3.1207,-3.4001,-3.5497,-3.5497,-3.7492,-3.8574,-3.8574,-3.8574,-3.8574,-3.8574,-3.8828,-3.9277,-3.9902,-4.0156,-4.0605,-4.1172,-4.1172,-4.1172,-4.1172,-4.1172,-4.1172,-4.1172,-4.1172,-4.1172,-4.1172,-4.1172,-4.1172,-4.1172,-4.1172,-4.1172,-4.1172,-4.1172,-4.1172,-4.1172,-4.1172,-4.1172,-4.1172,-4.1172,-4.1172,-4.1172,-4.1172,-4.1172,-4.1172,-4.1172,-4.1172,-4.1172,-4.1172,-4.1172,-4.1172,-4.1172,-4.1172,-4.1172,-4.1172,-4.1172,-4.1172,-4.1172,-4.1172,-4.1172,-4.1172,-4.1172,-4.123,-4.1406,-4.1797,-4.2148,-4.2402,-4.2422,-4.2422,-4.2422,-4.2344,-4.2422,-4.2676,-4.2598,-4.2676,-4.293,-4.3183,-4.332,-4.332,-4.4297,-4.4863,-4.5039,-4.5723,-4.6152,-1.048,-1.0656,-1.085,-1.1372,-1.3238,-1.484,-1.4202,-1.5512,-1.6647,-1.5917,-1.5738,-1.5872,-1.658,-1.7181,-1.7943,-1.9052,-1.9586,-2.0214,-2.1269,-2.1844,-2.2378,-2.2979,-2.3407,-2.3834,-2.4329,-2.5064,-2.5758,-2.6346,-2.8218,-3.0284,-3.2429,-3.4376,-3.5812,-3.6423,-3.7805,-3.8574,-3.8574,-3.8574,-3.8574,-3.8574,-3.9004,-3.9453,-3.9902,-4.0332,-4.0762,-4.1172,-4.1172,-4.1172,-4.1172,-4.1172,-4.1172,-4.1172,-4.1172,-4.1172,-4.1172,-4.1172,-4.1172,-4.1172,-4.1172,-4.1172,-4.1172,-4.1172,-4.1172,-4.1172,-4.1172,-4.1172,-4.1172,-4.1172,-4.1172,-4.1172,-4.1172,-4.1172,-4.1172,-4.1172,-4.1172,-4.1172,-4.1172,-4.1172,-4.1172,-4.1172,-4.1172,-4.1172,-4.1172,-4.1172,-4.1172,-4.1172,-4.1172,-4.1211,-4.1348,-4.1367,-4.1465,-4.1719,-4.2012,-4.2148,-4.207,-4.2051,-4.2051,-4.2051,-4.2012,-4.2109,-4.2422,-4.2383,-4.25,-4.2793,-4.3105,-4.3262,-4.3262,-4.4453,-4.5019,-4.5039,-4.5898,-4.6308,-1.0202,-1.05,-1.1108,-1.2865,-1.4125,-1.5146,-1.5749,-1.658,-1.6951,-1.6005,-1.6059,-1.6353,-1.6647,-1.7181,-1.7876,-1.8784,-1.8931,-1.9452,-2.0909,-2.1376,-2.1842,-2.2352,-2.2966,-2.3447,-2.3754,-2.4836,-2.5758,-2.6346,-2.8218,-3.0284,-3.2429,-3.4376,-3.6423,-3.8501,-3.8574,-3.8574,-3.8574,-3.8574,-3.8574,-3.8574,-3.9004,-3.9453,-3.9902,-4.0332,-4.0762,-4.1172,-4.1172,-4.1172,-4.1172,-4.1172,-4.1172,-4.1172,-4.1172,-4.1172,-4.1172,-4.1172,-4.1172,-4.1172,-4.1172,-4.1172,-4.1172,-4.1172,-4.1172,-4.1172,-4.1172,-4.1172,-4.1172,-4.1172,-4.1172,-4.1172,-4.1172,-4.1172,-4.1172,-4.1172,-4.1172,-4.1172,-4.1172,-4.1172,-4.1172,-4.1172,-4.1172,-4.1172,-4.1172,-4.1172,-4.1172,-4.1172,-4.1172,-4.1328,-4.1738,-4.1797,-4.2109,-4.2969,-4.3066,-4.2558,-4.1289,-4.1191,-4.1191,-4.1191,-4.1973,-4.2422,-4.2422,-4.3242,-4.3691,-4.3691,-4.3691,-4.3691,-4.3691,-4.459,-4.5019,-4.5039,-4.5898,-4.6308,-0.9487,-1.0434,-1.1408,-1.1708,-1.3413,-1.501,-1.5033,-1.563,-1.6166,-1.5838,-1.5752,-1.5818,-1.6313,-1.6567,-1.7248,-1.8945,-1.9225,-1.9666,-2.0935,-2.171,-2.2218,-2.2392,-2.3661,-2.4636,-2.493,-2.5478,-2.658,-2.8345,-2.906,-3.0884,-3.4376,-3.5124,-3.6423,-3.8501,-3.8574,-3.8574,-3.8574,-3.8574,-3.8711,-3.9004,-3.9453,-3.9902,-4.0332,-4.0781,-4.1035,-4.1172,-4.1172,-4.1172,-4.1172,-4.1172,-4.1172,-4.1172,-4.1172,-4.1172,-4.1172,-4.1172,-4.1172,-4.1172,-4.1172,-4.1172,-4.1172,-4.1172,-4.1172,-4.1172,-4.1172,-4.1172,-4.1172,-4.1172,-4.1172,-4.1172,-4.1172,-4.1172,-4.1172,-4.1172,-4.1172,-4.1172,-4.1172,-4.1172,-4.1172,-4.1172,-4.1172,-4.1269,-4.1543,-4.1601,-4.1699,-4.1992,-4.2031,-4.207,-4.2207,-4.2226,-4.2324,-4.2598,-4.2637,-4.2695,-4.2891,-4.291,-4.291,-4.291,-4.2891,-4.2871,-4.2871,-4.2851,-4.2832,-4.2832,-4.3125,-4.3281,-4.3281,-4.4453,-4.5332,-4.5898,-4.6172,-4.6308,-0.8845,-1.0213,-1.1512,-1.2033,-1.3597,-1.5052,-1.5339,-1.5628,-1.5744,-1.5685,-1.5605,-1.5698,-1.6228,-1.6366,-1.6927,-1.845,-1.8798,-1.9319,-2.0601,-2.1443,-2.2138,-2.2699,-2.3941,-2.5202,-2.6335,-2.6906,-2.812,-3.0407,-3.0592,-3.2032,-3.5348,-3.5497,-3.6423,-3.8501,-3.8574,-3.8574,-3.8574,-3.8574,-3.8711,-3.8965,-3.959,-4.0039,-4.0312,-4.0898,-4.1172,-4.1172,-4.1172,-4.1172,0.0,-4.1172,-4.1172,-4.1172,-4.1172,-4.1172,-4.1172,-4.1172,-4.1172,-4.1172,-4.1172,-4.1172,-4.1172,-4.1172,-4.1172,-4.1172,-4.1172,-4.1172,-4.1172,-4.1172,-4.1172,-4.1172,-4.1172,-4.1172,-4.1172,-4.1172,-4.1172,-4.1172,-4.1172,-4.1308,-4.1406,-4.1406,-4.1543,-4.1738,-4.1992,-4.2031,-4.2129,-4.2383,-4.2422,-4.248,-4.2656,-4.2676,-4.2734,-4.2891,-4.291,-4.3125,-4.3652,-4.3418,-4.3223,-4.3223,-4.3125,-4.3086,-4.3086,-4.2969,-4.291,-4.291,-4.3183,-4.332,-4.332,-4.4473,-4.5469,-4.6308,-4.6308,-4.6308,0.0,-0.9845,-1.1573,-1.342,-1.4407,-1.5246,-1.6288,-1.6109,0.0,-1.5378,-1.5551,-1.5939,-1.6273,-1.6526,-1.6901,-1.7595,-1.7956,-1.8595,-2.0033,-2.0855,-2.1817,-2.3273,-2.3955,-2.5308,-2.791,-2.8702,-3.0022,-3.2548,-3.2717,-3.3549,-3.5571,-3.5738,-3.6571,-3.8574,-3.8574,-3.8574,-3.8574,-3.8574,-3.8594,-3.8633,-3.9492,-3.9902,-3.9961,-4.0801,-4.1172,-4.1172,-4.1172,-4.1172,-4.1172,-4.1172,-4.1172,-4.1172,-4.1172,-4.1172,-4.1172,-4.1172,-4.1172,-4.1172,-4.1172,-4.1172,-4.1172,-4.1172,-4.1172,-4.1172,-4.1172,-4.1172,-4.1172,-4.1172,-4.1172,-4.1172,-4.1172,-4.1172,-4.1172,-4.1172,-4.1172,-4.1172,-4.1172,-4.1504,-4.1797,-4.1797,-4.2148,-4.2441,-4.2461,-4.248,-4.248,-4.2519,-4.2519,-4.2656,-4.3066,-4.3125,-4.3281,-4.3672,-4.3711,-4.3711,-4.3711,-4.2969,-4.2519,-4.2519,-4.2891,-4.3125,-4.3125,-4.3496,-4.3711,-4.3711,-4.3711,-4.373,-4.3808,-4.4629,-4.5469,-4.6308,-4.6308,-4.6308,-0.7348,0.0,-1.1698,-1.3054,-1.4183,-1.4939,0.0,-1.5029,-1.5258,-1.4432,-1.5102,-1.6059,-1.6857,-1.6683,-1.6941,-1.872,-1.9011,-1.9492,-2.0735,-2.2004,-2.3273,-2.4516,-2.4983,-2.6164,-2.8535,-2.909,-3.0806,-3.4526,-3.4826,-3.5664,-3.7731,-3.7878,-3.8117,-3.8574,-3.8574,-3.8574,-3.8574,-3.8574,-3.873,-3.9062,-3.9629,-4.0059,-4.0391,-4.0918,-4.1172,-4.1172,-4.1172,-4.1172,-4.1172,-4.1172,-4.1172,-4.1172,-4.1172,-4.1172,-4.1172,-4.1172,-4.1172,-4.1172,-4.1172,-4.1172,-4.1172,-4.1172,-4.1172,-4.1172,-4.1172,-4.1172,-4.1172,-4.1172,-4.1172,-4.1172,-4.1172,-4.1172,-4.1172,-4.1172,-4.1172,-4.1172,-4.1172,-4.1504,-4.1797,-4.1797,-4.2148,-4.2539,-4.2871,-4.293,-4.3027,-4.3359,-4.3398,-4.3437,-4.3535,-4.3555,-4.3594,-4.3691,-4.3711,-4.3711,-4.3711,-4.3516,-4.3398,-4.3398,-4.3496,-4.3555,-4.3555,-4.3652,-4.3711,-4.3711,-4.3711,-4.4043,-4.4707,-4.4922,-4.5469,-4.6308,-4.6308,-4.6308,-0.7643,-0.9201,-1.0887,-1.1539,-1.2756,-1.359,-1.3021,-1.3826,-1.4487,-1.3791,-1.4814,-1.6019,-1.6683,-1.6764,-1.7179,-1.8531,-1.9212,-2.016,-2.1884,-2.3166,-2.4209,-2.4983,-2.5451,-2.692,-2.9922,-3.0602,-3.2489,-3.6571,-3.6885,-3.7419,-3.8574,-3.8574,-3.8574,-3.8574,-3.8574,-3.8574,-3.8574,-3.8574,-3.8691,-3.8926,-3.9375,-3.9805,-4.0254,-4.0684,-4.0976,-4.1172,-4.1172,-4.1172,-4.1172,-4.1172,-4.1172,-4.1172,-4.1172,-4.1172,-4.1172,-4.1172,-4.1172,-4.1172,-4.1172,-4.1035,-4.0879,-4.0879,-4.0742,-4.0586,-4.0586,-4.0586,-4.0664,-4.1055,-4.1172,-4.1172,-4.1172,-4.1172,-4.1172,-4.1172,-4.1172,-4.1172,-4.1172,-4.166,-4.209,-4.209,-4.2578,-4.3086,-4.332,-4.3359,-4.3437,-4.3672,-4.3711,-4.3711,-4.3711,-4.3711,-4.3711,-4.3711,-4.3711,-4.3711,-4.3711,-4.3711,-4.3711,-4.3711,-4.3711,-4.3711,-4.3711,-4.3711,-4.3711,-4.3711,-4.3711,-4.4141,-4.5019,-4.5019,-4.5469,-4.6308,-4.6308,-4.6308,-0.8305,-0.9058,-0.9981,-1.0118,-1.11,-1.1964,-1.1444,-1.263,-1.3719,-1.3297,-1.4621,-1.6059,-1.658,-1.7058,-1.7542,-1.8262,-1.9399,-2.0882,-2.302,-2.4048,-2.4703,-2.5037,-2.5558,-2.7449,-3.131,-3.2184,-3.4169,-3.8263,-3.8574,-3.8574,-3.8574,-3.8574,-3.8574,-3.8574,-3.8574,-3.8574,-3.8574,-3.8574,-3.8574,-3.8574,-3.9004,-3.9414,-3.9805,-4.0234,-4.0625,-4.0976,-4.0976,-4.1016,-4.1074,-4.1074,-4.1113,-4.1172,-4.1094,-4.1074,-4.1074,-4.0996,-4.0976,-4.0976,-4.0976,-4.0742,-4.043,-4.043,-4.0195,-3.9902,-3.9902,-3.9902,-4.0039,-4.0781,-4.0976,-4.0976,-4.0976,-4.0976,-4.0996,-4.1055,-4.1074,-4.1094,-4.1152,-4.1777,-4.2344,-4.2422,-4.3066,-4.3633,-4.3691,-4.3711,-4.3711,-4.3711,-4.3711,-4.3711,-4.3711,-4.3711,-4.3711,-4.3711,-4.3711,-4.3711,-4.3711,-4.3711,-4.3711,-4.3711,-4.3711,-4.3711,-4.3711,-4.3711,-4.3711,-4.3711,-4.3711,-4.4141,-4.5019,-4.5019,-4.5469,-4.6308,-4.6308,-4.6308,-0.7768,-0.9016,-1.0647,-1.0864,-1.1172,-1.1172,-1.007,-1.175,-1.3261,-1.2534,-1.4425,-1.6673,-1.8237,-1.8183,-1.8424,-2.0013,-2.1042,-2.2044,-2.3166,-2.3875,-2.4476,-2.501,-2.5371,-2.7231,-3.1547,-3.2258,-3.4169,-3.8263,-3.8574,-3.8574,-3.8574,-3.8574,-3.8574,-3.8574,-3.8574,-3.8574,-3.8574,-3.8574,-3.8574,-3.8574,-3.9004,-3.9238,-3.9316,-3.9785,-4.0019,-4.0098,-4.0098,-4.0293,-4.0625,-4.0625,-4.084,-4.1133,-4.0762,-4.0625,-4.0586,-4.0234,-4.0098,-4.0098,-4.0098,-4.0039,-4.0,-4.0,-3.9941,-3.9902,-3.9902,-3.9902,-3.9922,-4.0059,-4.0098,-4.0098,-4.0098,-4.0098,-4.0176,-4.0547,-4.0625,-4.0723,-4.1094,-4.1562,-4.1992,-4.2363,-4.2832,-4.3281,-4.3633,-4.3711,-4.3711,-4.3711,-4.3711,-4.3711,-4.3711,-4.3711,-4.3711,-4.3711,-4.3711,-4.3711,-4.3711,-4.3711,-4.3711,-4.3711,-4.3711,-4.3711,-4.3711,-4.3711,-4.3711,-4.3711,-4.3711,-4.4141,-4.5019,-4.5019,-4.5469,-4.6308,-4.6308,-4.6308,-0.7396,-0.8488,-0.9879,-0.9623,-0.9992,-1.0262,-0.9701,-1.0983,-1.2116,-1.1686,-1.3973,-1.6357,-1.7223,-1.8389,-1.9687,-2.1363,-2.2231,-2.2966,-2.3701,-2.4302,-2.4783,-2.505,-2.5478,-2.6934,-2.9891,-3.1572,-3.37,-3.6719,-3.7951,-3.8574,-3.8574,-3.8574,-3.8574,-3.8574,-3.8574,-3.8574,-3.8574,-3.8574,-3.8574,-3.8574,-3.8769,-3.8984,-3.9199,-3.9414,-3.9668,-3.9902,-3.9902,-4.0,-4.0195,-4.0195,-4.0312,-4.0469,-4.0254,-4.0195,-4.0156,-3.9961,-3.9902,-3.9902,-3.9902,-3.9726,-3.9512,-3.9512,-3.9375,-3.918,-3.918,-3.918,-3.918,-3.918,-3.9531,-3.9902,-3.9902,-3.9902,-3.9941,-4.0137,-4.0351,-4.0586,-4.0781,-4.1348,-4.1933,-4.2344,-4.2773,-4.3203,-4.3633,-4.3711,-4.3711,-4.3711,-4.3711,-4.3711,-4.3711,-4.3711,-4.3711,-4.3711,-4.3711,-4.3711,-4.3711,-4.3711,-4.3711,-4.3711,-4.3711,-4.3711,-4.3711,-4.3711,-4.3711,-4.3711,-4.3711,-4.4141,-4.5019,-4.5019,-4.5469,-4.6308,-4.6308,-4.6308,-0.7303,-0.8269,-0.9332,-0.8618,-0.8866,-0.9327,-0.9429,-1.0356,-1.1295,-1.1729,-1.402,-1.6238,-1.6939,-1.8992,-2.1029,-2.2231,-2.2993,-2.3607,-2.4128,-2.4649,-2.497,-2.497,-2.5491,-2.6592,-2.8432,-3.0946,-3.3322,-3.5348,-3.7419,-3.8574,-3.8574,-3.8574,-3.8574,-3.8574,-3.8574,-3.8574,-3.8574,-3.8574,-3.8574,-3.8574,-3.8574,-3.875,-3.9062,-3.9062,-3.9258,-3.959,-3.959,-3.9648,-3.9726,-3.9726,-3.9805,-3.9883,-3.9766,-3.9668,-3.959,-3.959,-3.959,-3.959,-3.959,-3.9355,-3.9062,-3.9062,-3.8828,-3.8574,-3.8574,-3.8574,-3.8574,-3.8574,-3.9062,-3.959,-3.959,-3.959,-3.9648,-3.9844,-4.0137,-4.043,-4.0625,-4.1191,-4.1816,-4.2324,-4.2695,-4.3086,-4.3613,-4.3711,-4.3711,-4.3711,-4.3711,-4.375,-4.3848,-4.3867,-4.3906,-4.4004,-4.4004,-4.4004,-4.4004,-4.4004,-4.4004,-4.4004,-4.3808,-4.3711,-4.3711,-4.3711,-4.3711,-4.3711,-4.3711,-4.4141,-4.5019,-4.5019,-4.5469,-4.6308,-4.6308,-4.6308,-0.783,-0.8832,-0.9933,-0.9096,-0.8628,-0.8479,-0.8893,-0.9898,-1.1359,-1.3433,-1.517,-1.7018,-1.9468,-2.1006,-2.1977,-2.2352,-2.3166,-2.3848,-2.4155,-2.4476,-2.4676,-2.4676,-2.5184,-2.6357,-2.8402,-3.0946,-3.3322,-3.5348,-3.7419,-3.8574,-3.8574,-3.8574,-3.8574,-3.8574,-3.8574,-3.8574,-3.8574,-3.8574,-3.8574,-3.8574,-3.8574,-3.8594,-3.8613,-3.8613,-3.8633,-3.8672,-3.8672,-3.8887,-3.9258,-3.9258,-3.9512,-3.9863,-3.9414,-3.9004,-3.8672,-3.8672,-3.8672,-3.8672,-3.8672,-3.8652,-3.8613,-3.8613,-3.8594,-3.8574,-3.8574,-3.8574,-3.8574,-3.8574,-3.8613,-3.8672,-3.8672,-3.8672,-3.8887,-3.9707,-3.9922,-4.0156,-4.0957,-4.1172,-4.1465,-4.2266,-4.2461,-4.2734,-4.3555,-4.3711,-4.3711,-4.3711,-4.3711,-4.3867,-4.4297,-4.4355,-4.4492,-4.4883,-4.4922,-4.4922,-4.4922,-4.4922,-4.4922,-4.4922,-4.416,-4.3711,-4.3711,-4.3711,-4.3711,-4.3711,-4.3711,-4.4141,-4.5019,-4.5019,-4.5469,-4.6308,-4.6308,-4.6308,-0.7337,-0.7961,-0.87,-0.8762,-0.8804,-0.896,-0.9444,-1.001,-1.0711,-1.1664,-1.3225,-1.5471,-1.8828,-2.098,-2.2352,-2.2645,-2.33,-2.3875,-2.4168,-2.4449,-2.4636,-2.4636,-2.5157,-2.581,-2.6634,-2.906,-3.1421,-3.3473,-3.5515,-3.7272,-3.8501,-3.8574,-3.8574,-3.8574,-3.8574,-3.8574,-3.8574,-3.8574,-3.8574,-3.8574,-3.8574,-3.8574,-3.8574,-3.8574,-3.8574,-3.8574,-3.8574,-3.8672,-3.8809,-3.8809,-3.8926,-3.9062,-3.8887,-3.8711,-3.8574,-3.8574,-3.8574,-3.8574,-3.8574,-3.8574,-3.8574,-3.8574,-3.8574,-3.8574,-3.8574,-3.8574,-3.8633,-3.8887,-3.8965,-3.8965,-3.8965,-3.8965,-3.9121,-3.9746,-4.0098,-4.0371,-4.0703,-4.0976,-4.1426,-4.2266,-4.2422,-4.2793,-4.3945,-4.4141,-4.4219,-4.4492,-4.4531,-4.459,-4.4766,-4.4785,-4.4844,-4.5,-4.5019,-4.5019,-4.5019,-4.5019,-4.5019,-4.5019,-4.4707,-4.4531,-4.4531,-4.4531,-4.4531,-4.4531,-4.4531,-4.4824,-4.543,-4.543,-4.5723,-4.6308,-4.6308,-4.6308,-0.7227,-0.7577,-0.7977,-0.8676,-0.8899,-0.9137,-0.9822,-1.0093,-1.0405,-1.1207,-1.2849,-1.5137,-1.8384,-2.0327,-2.1787,-2.2724,-2.338,-2.3875,-2.4168,-2.4449,-2.4636,-2.4636,-2.5157,-2.5518,-2.5518,-2.786,-2.9975,-3.1437,-3.3398,-3.544,-3.7492,-3.7639,-3.7878,-3.8574,-3.8574,-3.8574,-3.8574,-3.8574,-3.8574,-3.8574,-3.8574,-3.8574,-3.8574,-3.8574,-3.8574,-3.8574,-3.8574,-3.8574,-3.8574,-3.8574,-3.8574,-3.8574,-3.8574,-3.8574,-3.8574,-3.8574,-3.8574,-3.8574,-3.8574,-3.8574,-3.8574,-3.8574,-3.8574,-3.8574,-3.8574,-3.8574,-3.8652,-3.9082,-3.9199,-3.9258,-3.9551,-3.9512,-3.9531,-3.998,-4.0312,-4.0566,-4.0703,-4.0957,-4.1426,-4.2266,-4.2422,-4.2793,-4.3984,-4.4297,-4.4492,-4.4785,-4.4941,-4.5078,-4.5215,-4.5234,-4.5273,-4.541,-4.543,-4.543,-4.543,-4.543,-4.543,-4.543,-4.543,-4.5312,-4.5039,-4.5019,-4.5019,-4.5019,-4.5019,-4.5234,-4.5683,-4.5683,-4.5898,-4.6308,-4.6308,-4.6308,-0.7801,-0.7807,-0.8031,-0.8982,-0.8873,-0.8771,-0.9754,-0.9869,-1.0486,-1.2783,-1.4688,-1.6504,-1.858,-1.9177,-2.0203,-2.2479,-2.3367,-2.3875,-2.4168,-2.4449,-2.4636,-2.4636,-2.5157,-2.5518,-2.5518,-2.786,-2.9371,-2.9449,-3.136,-3.3322,-3.5422,-3.5497,-3.6423,-3.8501,-3.8574,-3.8574,-3.8574,-3.8574,-3.8574,-3.8574,-3.8574,-3.8574,-3.8574,-3.8574,-3.8574,-3.8574,-3.8574,-3.8574,-3.8574,-3.8574,-3.8574,-3.8574,-3.8574,-3.8574,-3.8574,-3.8574,-3.8574,-3.8574,-3.8574,-3.8574,-3.8574,-3.8574,-3.8574,-3.8574,-3.8574,-3.8574,-3.8672,-3.9082,-3.9219,-3.9414,-4.0293,-4.0215,-4.0019,-4.043,-4.0527,-4.0644,-4.1074,-4.1172,-4.1426,-4.2266,-4.2422,-4.2695,-4.3574,-4.4101,-4.4414,-4.4414,-4.4766,-4.5195,-4.5625,-4.5683,-4.584,-4.625,-4.6308,-4.6308,-4.6308,-4.6308,-4.6308,-4.6308,-4.6308,-4.5918,-4.5078,-4.5039,-4.5039,-4.5039,-4.5039,-4.5254,-4.5683,-4.5683,-4.5898,-4.6308,-4.6308,-4.6308,-0.7146,-0.7726,-0.835,-0.8615,-0.9293,-0.9951,-1.0161,-1.0175,-1.041,-1.1437,-1.3159,-1.4733,-1.5259,-1.7816,-2.015,-2.08,-2.2512,-2.3875,-2.4168,-2.4449,-2.4636,-2.4636,-2.5157,-2.5518,-2.5518,-2.6571,-2.8452,-3.136,-3.0823,-3.1879,-3.5274,-3.4151,-3.4301,-3.6349,-3.6423,-3.7106,-3.8574,-3.8574,-3.8574,-3.8574,-3.8574,-3.8574,-3.8574,-3.8574,-3.8574,-3.8574,-3.8574,-3.8574,-3.8574,-3.8574,-3.8574,-3.8574,-3.8574,-3.8574,-3.8574,-3.8574,-3.8574,-3.8574,-3.8574,-3.8574,-3.8574,-3.8574,-3.8574,-3.8574,-3.8574,-3.8789,-3.9121,-3.957,-3.9902,-4.0254,-4.084,-4.0879,-4.082,-4.0957,-4.0976,-4.1016,-4.1152,-4.1172,-4.1426,-4.2266,-4.2422,-4.2812,-4.3984,-4.4551,-4.4941,-4.5254,-4.5664,-4.5976,-4.6094,-4.6113,-4.6172,-4.6289,-4.6308,-4.6308,-4.6308,-4.6308,-4.6308,-4.6308,-4.6308,-4.6191,-4.5937,-4.5918,-4.5918,-4.5918,-4.5918,-4.5996,-4.6113,-4.6113,-4.6191,-4.6308,-4.6308,-4.6308,-0.7834,-0.8404,-0.9001,-0.93,-0.9802,-1.0263,-1.0419,-1.05,-1.0622,-1.0826,-1.1937,-1.3086,-1.383,-1.6649,-1.9162,-1.997,-2.216,-2.3834,-2.4008,-2.4382,-2.4636,-2.4636,-2.5157,-2.5518,-2.5518,-2.6052,-2.7384,-2.9913,-2.892,-2.9666,-3.2927,-3.1956,-3.2565,-3.5422,-3.5497,-3.6497,-3.8574,-3.8574,-3.8574,-3.8574,-3.8574,-3.8574,-3.8574,-3.8574,-3.8574,-3.8574,-3.8574,-3.8574,-3.8574,-3.8574,-3.8574,-3.8574,-3.8574,-3.8574,-3.8574,-3.8574,-3.8574,-3.8574,-3.8574,-3.8574,-3.8574,-3.8574,-3.8574,-3.8613,-3.8769,-3.9004,-3.9336,-3.9961,-4.0332,-4.0625,-4.1055,-4.1172,-4.1172,-4.1172,-4.1172,-4.1172,-4.1172,-4.1172,-4.1426,-4.2266,-4.2422,-4.2793,-4.3926,-4.4492,-4.4863,-4.5137,-4.5527,-4.5801,-4.5801,-4.5937,-4.6055,-4.6055,-4.6211,-4.6308,-4.6308,-4.6308,-4.6308,-4.6308,-4.6308,-4.6308,-4.6308,-4.6308,-4.6308,-4.6308,-4.6308,-4.6308,-4.6308,-4.6308,-4.6308,-4.6308,-4.6308,-4.6308,-0.9069,-0.9401,-0.9761,-1.046,-1.027,-1.0046,-1.0595,-1.0772,-1.088,-1.088,-1.107,-1.1843,-1.3841,-1.575,-1.7707,-1.9739,-2.216,-2.3768,-2.3768,-2.4275,-2.4636,-2.4636,-2.5157,-2.5518,-2.5518,-2.6052,-2.6465,-2.6702,-2.6465,-2.7305,-2.9293,-2.9371,-3.1191,-3.5124,-3.5422,-3.6497,-3.8574,-3.8574,-3.8574,-3.8574,-3.8574,-3.8574,-3.8574,-3.8574,-3.8574,-3.8574,-3.8574,-3.8574,-3.8574,-3.8574,-3.8574,-3.8574,-3.8574,-3.8574,-3.8574,-3.8574,-3.8574,-3.8574,-3.8574,-3.8574,-3.8574,-3.8574,-3.8574,-3.8652,-3.9082,-3.9238,-3.9453,-4.0293,-4.0547,-4.0664,-4.1074,-4.1172,-4.1172,-4.1172,-4.1172,-4.1172,-4.1172,-4.1172,-4.1426,-4.2266,-4.2422,-4.2695,-4.3555,-4.4082,-4.4414,-4.4453,-4.4785,-4.5019,-4.5019,-4.541,-4.5683,-4.5683,-4.6055,-4.6308,-4.6308,-4.6308,-4.6308,-4.6308,-4.6308,-4.6308,-4.6308,-4.6308,-4.6308,-4.6308,-4.6308,-4.6308,-4.6308,-4.6308,-4.6308,-4.6308,-4.6269,-4.6269,-0.795,-0.8689,-0.9523,-0.9917,-1.027,-1.0561,-1.069,-1.0772,-1.088,-1.088,-1.1158,-1.1972,-1.3866,-1.5803,-1.7827,-1.9773,-2.216,-2.3768,-2.3768,-2.4275,-2.4636,-2.4636,-2.5157,-2.5518,-2.5518,-2.6052,-2.7083,-2.8608,-2.7305,-2.7305,-2.9293,-2.9371,-3.0592,-3.3095,-3.4676,-3.6497,-3.8574,-3.8574,-3.8574,-3.8574,-3.8574,-3.8574,-3.8574,-3.8574,-3.8574,-3.8574,-3.8574,-3.8574,-3.8574,-3.8574,-3.8574,-3.8574,-3.8574,-3.8574,-3.8574,-3.8574,-3.8574,-3.8574,-3.8574,-3.8574,-3.8574,-3.8574,-3.8574,-3.8652,-3.9082,-3.9453,-3.9844,-4.0371,-4.0781,-4.1055,-4.1152,-4.1172,-4.1172,-4.1172,-4.1172,-4.1172,-4.1172,-4.1172,-4.1426,-4.2266,-4.2422,-4.2695,-4.3555,-4.4082,-4.4512,-4.4844,-4.4961,-4.5019,-4.5019,-4.541,-4.5683,-4.5683,-4.6055,-4.6308,-4.6308,-4.6308,-4.6308,-4.6308,-4.6308,-4.6308,-4.6308,-4.6308,-4.6308,-4.6308,-4.6308,-4.6308,-4.6308,-4.6308,-4.6308,-4.6289,-4.5976,-4.5996,-0.8255,-0.896,-0.9612,-1.0127,-1.0432,-1.0609,-1.0609,-1.0731,-1.0772,-1.0772,-1.1131,-1.1945,-1.3874,-1.584,-1.7809,-1.9773,-2.216,-2.3768,-2.3768,-2.4275,-2.4636,-2.4636,-2.5157,-2.5518,-2.5518,-2.6052,-2.6847,-2.7841,-2.7004,-2.6847,-2.7919,-2.8905,-3.0361,-3.2429,-3.4451,-3.6497,-3.8574,-3.8574,-3.8574,-3.8574,-3.8574,-3.8574,-3.8574,-3.8574,-3.8574,-3.8574,-3.8574,-3.8574,-3.8574,-3.8574,-3.8574,-3.8574,-3.8574,-3.8574,-3.8574,-3.8574,-3.8574,-3.8574,-3.8574,-3.8574,-3.8574,-3.8574,-3.8574,-3.8691,-3.9336,-3.9707,-4.0019,-4.0664,-4.0996,-4.1172,-4.1172,-4.1172,-4.1172,-4.1172,-4.1172,-4.1172,-4.1172,-4.1172,-4.1426,-4.2266,-4.2422,-4.2695,-4.3555,-4.3906,-4.4141,-4.4355,-4.4394,-4.4394,-4.4394,-4.4961,-4.5371,-4.5371,-4.5937,-4.6308,-4.6308,-4.6308,-4.6308,-4.6308,-4.6308,-4.6308,-4.6308,-4.6308,-4.6308,-4.6308,-4.6308,-4.6308,-4.6308,-4.6308,-4.6308,-4.6289,-4.6074,-4.6094,-0.8648,-0.9293,-0.9788,-1.0534,-1.0622,-1.0521,-1.05,-1.0609,-1.0711,-1.0683,-1.1056,-1.2086,-1.4284,-1.605,-1.7949,-2.019,-2.2371,-2.3768,-2.3768,-2.4275,-2.4636,-2.4636,-2.5157,-2.5518,-2.5518,-2.6052,-2.6386,-2.6386,-2.6386,-2.6544,-2.6925,-2.8842,-3.0884,-3.2944,-3.4993,-3.6885,-3.8574,-3.8574,-3.8574,-3.8574,-3.8574,-3.8574,-3.8574,-3.8574,-3.8574,-3.8574,-3.8574,-3.8574,-3.8574,-3.8574,-3.8574,-3.8574,-3.8574,-3.8574,-3.8574,-3.8574,-3.8574,-3.8574,-3.8574,-3.8574,-3.8574,-3.8574,-3.8633,-3.8828,-3.9648,-3.9941,-4.0176,-4.0957,-4.1172,-4.1172,-4.1172,-4.1172,-4.1172,-4.1172,-4.1172,-4.1172,-4.1172,-4.123,-4.1504,-4.2285,-4.2539,-4.2871,-4.3574,-4.3711,-4.3711,-4.3711,-4.3711,-4.3711,-4.3711,-4.4473,-4.5019,-4.5019,-4.5801,-4.6308,-4.6308,-4.6308,-4.6308,-4.6308,-4.6308,-4.6308,-4.6308,-4.6308,-4.6308,-4.6308,-4.6308,-4.6308,-4.6308,-4.6308,-4.6308,-4.6308,-4.623,-4.623,-0.7307,-0.8499,-0.9788,-1.0534,-1.0704,-1.0656,-1.0521,-1.0609,-1.0683,-1.0548,-1.0989,-1.2499,-1.5948,-1.6957,-1.8369,-2.1953,-2.3227,-2.3768,-2.3768,-2.4275,-2.4636,-2.4636,-2.5157,-2.5518,-2.5518,-2.6052,-2.6386,-2.6386,-2.6386,-2.7162,-2.8905,-3.0977,-3.302,-3.505,-3.7106,-3.8336,-3.8574,-3.8574,-3.8574,-3.8574,-3.8574,-3.8574,-3.8574,-3.8574,-3.8574,-3.8574,-3.8574,-3.8574,-3.8574,-3.8574,-3.8574,-3.8574,-3.8574,-3.8574,-3.8574,-3.8574,-3.8574,-3.8574,-3.8574,-3.8574,-3.8574,-3.8574,-3.8828,-3.9219,-3.9746,-4.0156,-4.0547,-4.1035,-4.1172,-4.1172,-4.1172,-4.1172,-4.1172,-4.1172,-4.1172,-4.1172,-4.1172,-4.1465,-4.1855,-4.2344,-4.3027,-4.3574,-4.3691,-4.3711,-4.3711,-4.3711,-4.3711,-4.3711,-4.3711,-4.4473,-4.5019,-4.5019,-4.5801,-4.6308,-4.6308,-4.6308,-4.6308,-4.6308,-4.6308,-4.6308,-4.6308,-4.6308,-4.6308,-4.6308,-4.6308,-4.6308,-4.6308,-4.6308,-4.6308,-4.6289,-4.5918,-4.5957,-0.7482,-0.873,-0.9869,-1.0446,-1.0595,-1.0575,-1.0507,-1.0548,-1.0595,-1.0616,-1.09,-1.2322,-1.6157,-1.7085,-1.8438,-2.2297,-2.338,-2.3768,-2.3768,-2.4275,-2.4636,-2.4636,-2.5157,-2.5518,-2.5518,-2.6052,-2.6386,-2.6386,-2.7695,-2.8718,-2.9371,-3.2687,-3.4847,-3.5515,-3.7492,-3.8574,-3.8574,-3.8574,-3.8574,-3.8574,-3.8574,-3.8574,-3.8574,-3.8574,-3.8574,-3.8574,-3.8574,-3.8574,-3.8574,-3.8574,-3.8574,-3.8574,-3.8574,-3.8574,-3.8574,-3.8574,-3.8574,-3.8574,-3.8574,-3.8574,-3.8574,-3.8574,-3.8867,-3.9297,-3.9766,-4.0195,-4.0605,-4.1055,-4.1172,-4.1172,-4.1172,-4.1172,-4.1172,-4.1172,-4.1172,-4.1172,-4.1172,-4.1504,-4.1992,-4.2656,-4.3281,-4.3711,-4.3711,-4.3711,-4.3711,-4.3711,-4.3711,-4.3711,-4.3711,-4.4473,-4.5019,-4.5019,-4.5801,-4.6308,-4.6308,-4.6308,-4.6308,-4.6308,-4.6308,-4.6308,-4.6308,-4.6308,-4.6308,-4.6308,-4.6308,-4.6308,-4.6308,-4.6308,-4.6308,-4.6289,-4.6113,-4.6133,-0.7536,-0.8547,-0.932,-1.008,-1.027,-1.0304,-1.046,-1.0521,-1.0568,-1.0649,-1.0745,-1.2127,-1.6068,-1.6963,-1.8443,-2.2284,-2.338,-2.3768,-2.3768,-2.4275,-2.4636,-2.4636,-2.509,-2.5438,-2.5504,-2.5972,-2.6306,-2.6386,-2.8604,-3.0015,-3.0145,-3.3898,-3.6065,-3.6275,-3.7805,-3.8574,-3.8574,-3.8574,-3.8574,-3.8574,-3.8574,-3.8574,-3.8574,-3.8574,-3.8574,-3.8574,-3.8574,-3.8574,-3.8574,-3.8574,-3.8574,-3.8574,-3.8574,-3.8574,-3.8574,-3.8574,-3.8574,-3.8574,-3.8574,-3.8574,-3.8574,-3.8574,-3.8945,-3.9453,-3.9785,-4.0273,-4.0762,-4.1074,-4.1172,-4.1172,-4.1172,-4.1172,-4.1172,-4.1172,-4.1172,-4.123,-4.1445,-4.1738,-4.2207,-4.3066,-4.3496,-4.3711,-4.3711,-4.3711,-4.3711,-4.3711,-4.3711,-4.3711,-4.3711,-4.4473,-4.5019,-4.5019,-4.5801,-4.6308,-4.6308,-4.6308,-4.625,-4.6152,-4.6152,-4.6094,-4.5976,-4.5976,-4.5976,-4.5976,-4.5976,-4.6035,-4.6152,-4.6152,-4.6094,-4.5976,-4.6211,-4.625,-0.6822,-0.7193,-0.7617,-0.9259,-0.9652,-0.9802,-1.0365,-1.0602,-1.067,-1.0534,-1.0744,-1.2127,-1.6068,-1.6909,-1.8317,-2.2258,-2.338,-2.3768,-2.3768,-2.4275,-2.4636,-2.4636,-2.4917,-2.5211,-2.5491,-2.5798,-2.6092,-2.6373,-2.8325,-3.03,-3.2201,-3.4394,-3.6442,-3.8336,-3.8574,-3.8574,-3.8574,-3.8574,-3.8574,-3.8574,-3.8574,-3.8574,-3.8574,-3.8574,-3.8574,-3.8574,-3.8574,-3.8574,-3.8574,-3.8574,-3.8574,-3.8574,-3.8574,-3.8574,-3.8574,-3.8574,-3.8574,-3.8574,-3.8574,-3.8574,-3.8574,-3.8574,-3.916,-3.9863,-3.9883,-4.0469,-4.1152,-4.1172,-4.1172,-4.1172,-4.1172,-4.1172,-4.1172,-4.1172,-4.1172,-4.1387,-4.2187,-4.2383,-4.2656,-4.3516,-4.3691,-4.3711,-4.3711,-4.3711,-4.3711,-4.3711,-4.3711,-4.3711,-4.3711,-4.4473,-4.5019,-4.5019,-4.5801,-4.6308,-4.6308,-4.6308,-4.6133,-4.5742,-4.5703,-4.5527,-4.5117,-4.5098,-4.5098,-4.5098,-4.5098,-4.5293,-4.5703,-4.5703,-4.5488,-4.5117,-4.5918,-4.6094,-0.6614,-0.7068,-0.7522,-0.8506,-0.9184,-0.9686,-0.9992,-1.0405,-1.0704,-1.0649,-1.0724,-1.197,-1.5862,-1.6797,-1.8295,-2.2245,-2.3207,-2.3554,-2.3741,-2.4115,-2.4422,-2.4609,-2.4903,-2.5197,-2.5478,-2.5785,-2.6079,-2.6373,-2.9721,-3.1969,-3.2429,-3.5917,-3.8073,-3.8574,-3.8574,-3.8574,-3.8574,-3.8574,-3.8574,-3.8574,-3.8574,-3.8574,-3.8574,-3.8574,-3.8574,-3.8574,-3.8574,-3.8574,-3.8574,-3.8574,-3.8574,-3.8574,-3.8574,-3.8574,-3.8574,-3.8574,-3.8574,-3.8574,-3.8574,-3.8574,-3.8613,-3.8887,-3.9394,-3.9941,-4.0215,-4.0703,-4.1172,-4.1172,-4.1172,-4.1172,-4.1172,-4.1172,-4.1172,-4.1172,-4.1172,-4.1328,-4.1894,-4.2246,-4.2598,-4.3183,-4.3516,-4.3711,-4.3711,-4.3711,-4.3711,-4.3711,-4.3711,-4.3711,-4.3711,-4.4238,-4.4726,-4.5,-4.5547,-4.6016,-4.6289,-4.6055,-4.584,-4.5683,-4.541,-4.5195,-4.5039,-4.5019,-4.5019,-4.5019,-4.4766,-4.4824,-4.5254,-4.5254,-4.5176,-4.5039,-4.5332,-4.5547,-0.6152,-0.6546,-0.7023,-0.7834,-0.8418,-0.8974,-0.9727,-1.0134,-1.0419,-1.067,-1.1174,-1.2534,-1.581,-1.7093,-1.8767,-2.2157,-2.306,-2.3434,-2.3728,-2.4022,-2.4315,-2.4596,-2.481,-2.505,-2.5344,-2.5638,-2.6229,-2.7217,-3.0128,-3.2353,-3.3415,-3.6309,-3.8166,-3.8594,-3.8574,-3.8574,-3.8574,-3.8574,-3.8574,-3.8574,-3.8574,-3.8574,-3.8574,-3.8574,-3.8574,-3.8574,-3.8574,-3.8574,-3.8574,-3.8574,-3.8574,-3.8574,-3.8574,-3.8574,-3.8574,-3.8574,-3.8574,-3.8594,-3.873,-3.8789,-3.8848,-3.9297,-3.9746,-4.0156,-4.043,-4.084,-4.1172,-4.1172,-4.1172,-4.1172,-4.1172,-4.1172,-4.1172,-4.1172,-4.1172,-4.125,-4.1523,-4.1914,-4.2344,-4.2773,-4.3086,-4.332,-4.3476,-4.3496,-4.3535,-4.3691,-4.3711,-4.3711,-4.3711,-4.4101,-4.4512,-4.4785,-4.5195,-4.5566,-4.5859,-4.5625,-4.5391,-4.5254,-4.498,-4.4746,-4.459,-4.459,-4.459,-4.459,-4.4316,-4.4297,-4.459,-4.4746,-4.4824,-4.4824,-4.5117,-4.5469,0.0,0.0,0.0,-0.7224,-0.7339,-0.7584,-0.9485,-0.9768,-0.9781,-1.0599,-1.2119,-1.3932,-1.6064,-1.7829,-1.9723,-2.2031,-2.2899,-2.3407,-2.3714,-2.4008,-2.4302,-2.4596,-2.4636,-2.4756,-2.505,-2.5331,-2.644,-2.8712,-2.9177,-3.1175,-3.5199,-3.5497,-3.6497,-3.8574,-3.8574,-3.8574,-3.8574,-3.8574,-3.8574,-3.8574,-3.8574,-3.8574,-3.8574,-3.8574,-3.8574,-3.8574,-3.8574,-3.8574,-3.8574,-3.8574,-3.8574,-3.8574,-3.8574,-3.8574,-3.8594,-3.8594,-3.8613,-3.8672,-3.9082,-3.9219,-3.9297,-3.9766,-4.0195,-4.0527,-4.0547,-4.084,-4.1172,-4.1172,-4.1172,-4.1172,-4.1172,-4.1172,-4.1172,-4.1172,-4.1172,-4.1172,-4.1172,-4.1484,-4.1914,-4.2324,-4.2422,-4.2558,-4.2988,-4.3066,-4.3223,-4.3633,-4.3691,-4.3711,-4.3711,-4.4101,-4.4375,-4.4394,-4.4766,-4.5019,-4.5019,-4.5019,-4.4824,-4.4433,-4.4394,-4.418,-4.373,-4.3711,-4.3711,-4.3711,-4.3711,-4.3711,-4.3711,-4.416,-4.4375,-4.4394,-4.5254,-4.5859,-0.5528,0.0,0.0,0.0,0.0,0.0,-0.8079,-0.8465,-0.9292,-1.149,-1.2228,-1.3585,-1.7268,-1.8511,-1.9601,-2.1503,-2.2285,-2.2846,-2.338,-2.3701,-2.3995,-2.4289,-2.4516,-2.4756,-2.505,-2.5157,-2.5626,-2.6744,-2.8216,-3.0328,-3.3154,-3.6127,-3.8044,-3.8574,-3.8574,-3.8574,-3.8574,-3.8574,-3.8574,-3.8574,-3.8574,-3.8574,-3.8574,-3.8574,-3.8574,-3.8574,-3.8574,-3.8574,-3.8574,-3.8574,-3.8574,-3.8574,-3.8574,-3.8769,-3.9023,-3.9023,-3.9238,-3.9551,-3.9668,-3.9707,-3.9766,-4.0215,-4.043,-4.0586,-4.0898,-4.1074,-4.1172,-4.1172,-4.1172,-4.1172,-4.1172,-4.1172,-4.1172,-4.1172,-4.1172,-4.1172,-4.1172,-4.1269,-4.1465,-4.1894,-4.2226,-4.2461,-4.2578,-4.2871,-4.3125,-4.3223,-4.3516,-4.3711,-4.3711,-4.3808,-4.4023,-4.4355,-4.4492,-4.4687,-4.5,-4.4746,-4.4531,-4.4414,-4.4082,-4.3848,-4.3711,-4.3711,-4.3711,-4.3711,-4.3711,-4.3711,-4.3711,-4.3828,-4.3887,-4.3906,-4.4492,-4.4824,-0.5637,-0.5677,-0.5752,-0.6051,0.0,0.0,-0.7821,-0.8174,-0.9161,-1.2162,-1.3261,-1.4723,-1.7914,-1.9221,-2.0219,-2.1394,-2.1844,-2.2311,-2.3033,-2.3394,-2.3741,-2.4155,-2.4356,-2.4569,-2.4863,-2.501,-2.5642,-2.701,-2.7458,-2.8736,-3.1099,-3.5068,-3.7345,-3.7345,-3.819,-3.8574,-3.8574,-3.8574,-3.8574,-3.8574,-3.8574,-3.8574,-3.8574,-3.8574,-3.8574,-3.8574,-3.8574,-3.8574,-3.8574,-3.8574,-3.8574,-3.8574,-3.8574,-3.8828,-3.9199,-3.9199,-3.9492,-3.9922,-4.0098,-4.0156,-4.0234,-4.0664,-4.0801,-4.084,-4.1094,-4.1172,-4.1172,-4.1172,-4.1172,-4.1172,-4.1172,-4.1172,-4.1172,-4.1172,-4.1172,-4.1172,-4.1172,-4.1172,-4.125,-4.1484,-4.1738,-4.1953,-4.2129,-4.2383,-4.2656,-4.3027,-4.3281,-4.3496,-4.3691,-4.3711,-4.3808,-4.4082,-4.4101,-4.4199,-4.4453,-4.4258,-4.4101,-4.4101,-4.3848,-4.3711,-4.3711,-4.3711,-4.3711,-4.3711,-4.3711,-4.3278,-4.2326,-4.2326,-4.2337,-4.261,-4.4013,-4.4668,-0.5806,-0.5813,-0.5867,-0.6177,-0.6017,0.0,-0.7997,-0.8201,-0.8974,-1.2376,-1.4264,-1.5992,-1.7882,-1.961,-2.0748,-2.1078,-2.1293,-2.1762,-2.2672,-2.3073,-2.3487,-2.4035,-2.4168,-2.4302,-2.4569,-2.485,-2.5957,-2.8028,-2.7052,-2.722,-2.9279,-3.3305,-3.5497,-3.5497,-3.7492,-3.8574,-3.8574,-3.8574,-3.8574,-3.8574,-3.8574,-3.8574,-3.8574,-3.8574,-3.8574,-3.8574,-3.8574,-3.8574,-3.8574,-3.8633,-3.8613,-3.8574,-3.8633,-3.8906,-3.9277,-3.9336,-3.9648,-4.0098,-4.0469,-4.0586,-4.0664,-4.1055,-4.1172,-4.1172,-4.1172,-4.1172,-4.1172,-4.1172,-4.1172,-4.1172,-4.1172,-4.1172,-4.1172,-4.1172,-4.1172,-4.1172,-4.1172,-4.1172,-4.1172,-4.1172,-4.1172,-4.1289,-4.166,-4.1777,-4.207,-4.2891,-4.3047,-4.3223,-4.3652,-4.3711,-4.3711,-4.3711,-4.3711,-4.3711,-4.3711,-4.3711,-4.3711,-4.3711,-4.3711,-4.3711,-4.3711,-4.3711,-4.3711,-4.3711,-4.3443,-4.2243,-3.9903,-4.0156,-4.0439,-4.0903,-4.3632,-4.4883,-0.604,-0.5895,-0.5813,-0.5874,-0.5935,0.0,-0.6308,-0.6417,-0.7386,-1.0761,-1.1836,-1.3128,-1.6151,-1.7384,-1.7996,-1.805,-1.9269,-2.0695,-2.2285,-2.2766,-2.3086,-2.346,-2.3915,-2.4222,-2.4289,-2.4556,-2.4985,-2.5732,-2.7445,-2.8721,-2.9356,-3.3305,-3.5497,-3.5497,-3.7492,-3.8574,-3.8574,-3.8574,-3.8574,-3.8574,-3.8574,-3.8574,-3.8574,-3.8574,-3.8574,-3.8574,-3.8574,-3.8574,-3.8613,-3.8945,-3.8887,-3.8613,-3.8945,-3.9355,-3.9805,-4.0137,-4.0547,-4.0937,-4.1016,-4.1055,-4.1055,-4.1152,-4.1172,-4.1172,-4.1172,-4.1172,-4.1172,-4.1172,-4.1172,-4.1172,-4.1172,-4.1172,-4.1172,-4.1172,-4.1172,-4.1172,-4.1172,-4.1172,-4.1172,-4.1172,-4.1172,-4.1191,-4.1289,-4.1582,-4.1973,-4.248,-4.2851,-4.3223,-4.3652,-4.3711,-4.3711,-4.3711,-4.3711,-4.3711,-4.3711,-4.3711,-4.3711,-4.3711,-4.3711,-4.3711,-4.3711,-4.3711,-4.3711,-4.3711,-4.189,-3.9818,-3.7518,-3.9395,-4.0379,-4.0451,-4.2869,-4.3965,-0.6485,-0.6308,-0.6234,-0.6152,-0.6084,0.0,0.0,-0.6417,-0.7241,-1.038,-1.1331,-1.245,-1.5146,-1.6258,-1.6804,-1.6901,-1.8424,-1.9733,-2.0174,-2.163,-2.2752,-2.306,-2.3487,-2.3888,-2.4168,-2.4329,-2.4596,-2.505,-2.6593,-2.7523,-2.7678,-3.0714,-3.2927,-3.4001,-3.5979,-3.7566,-3.8574,-3.8574,-3.8574,-3.8574,-3.8574,-3.8574,-3.8574,-3.8574,-3.8574,-3.8574,-3.8574,-3.8691,-3.8906,-3.9121,-3.9219,-3.9258,-3.9473,-3.9824,-4.0234,-4.0449,-4.0801,-4.1172,-4.1172,-4.1172,-4.1172,-4.1172,-4.1172,-4.1172,-4.1172,-4.1172,-4.1172,-4.1172,-4.1172,-4.1172,-4.1172,-4.1172,-4.1172,-4.1172,-4.1172,-4.1172,-4.1172,-4.1172,-4.1172,-4.1172,-4.1172,-4.1172,-4.1172,-4.1348,-4.1621,-4.2051,-4.248,-4.291,-4.334,-4.3574,-4.3711,-4.3711,-4.3711,-4.3711,-4.3711,-4.3711,-4.3711,-4.3711,-4.3711,-4.3711,-4.3711,-4.3711,-4.3711,-4.3711,-3.9225,-3.683,-3.683,-3.7947,-3.8545,-3.863,-4.2057,-4.3711,-0.6905,-0.6763,-0.6722,-0.6451,-0.6274,-0.6236,0.0,0.0,0.0,-0.9793,-1.0679,-1.1657,-1.3707,-1.4713,-1.5404,-1.5851,-1.7395,-1.829,-1.7583,-1.9813,-2.1643,-2.2058,-2.2779,-2.3354,-2.3661,-2.3741,-2.4142,-2.501,-2.5251,-2.5608,-2.601,-2.8453,-3.0668,-3.2429,-3.4843,-3.6885,-3.8574,-3.8574,-3.8574,-3.8574,-3.8574,-3.8574,-3.8574,-3.8574,-3.8574,-3.8574,-3.8652,-3.8887,-3.9219,-3.9394,-3.9687,-4.0019,-4.0019,-4.0234,-4.0527,-4.0625,-4.0879,-4.1172,-4.1172,-4.1172,-4.1172,-4.1172,-4.1172,-4.1172,-4.1172,-4.1172,-4.1172,-4.1172,-4.1172,-4.1172,-4.1172,-4.1172,-4.1172,-4.1172,-4.1172,-4.1172,-4.1172,-4.1172,-4.1172,-4.1172,-4.1172,-4.1172,-4.1172,-4.1172,-4.1308,-4.1738,-4.209,-4.25,-4.3008,-4.3379,-4.3613,-4.3691,-4.3711,-4.3711,-4.3711,-4.3711,-4.3711,-4.3711,-4.3711,-4.3711,-4.3711,-4.3711,-4.3278,-4.2409,-3.6917,-3.4766,-3.614,-3.6572,-3.683,-3.6917,-4.1556,-4.3711,-0.7204,-0.695,-0.6883,-0.6209,-0.6356,-0.6437,-0.576,0.0,-0.6193,-0.7166,0.0,-0.844,-1.053,0.0,0.0,-1.3028,-1.4512,-1.5571,-1.5671,-1.7101,-1.8437,-1.9265,-2.147,-2.2632,-2.199,-2.2084,-2.3033,-2.4943,-2.3915,-2.4093,-2.5929,-2.9595,-3.1933,-3.2489,-3.622,-3.8336,-3.8574,-3.8574,-3.8574,-3.8574,-3.8574,-3.8574,-3.8574,-3.8574,-3.8574,-3.8594,-3.8965,-3.916,-3.9258,-4.0059,-4.041,-4.0449,-4.0449,-4.0488,-4.0566,-4.0957,-4.1133,-4.1172,-4.1172,-4.1172,-4.1172,-4.1172,-4.1172,-4.1172,-4.1172,-4.1172,-4.1172,-4.1172,-4.1172,-4.1172,-4.1172,-4.1172,-4.1172,-4.1172,-4.1172,-4.1172,-4.1172,-4.1172,-4.1172,-4.1172,-4.1172,-4.1172,-4.1172,-4.1172,-4.1308,-4.1738,-4.1836,-4.2168,-4.2969,-4.3125,-4.3301,-4.3672,-4.3711,-4.3711,-4.3711,-4.3711,-4.3711,-4.3711,-4.3711,-4.3711,-4.3711,-4.3711,-4.1807,-3.769,-3.683,-3.5549,-3.3819,-3.5793,-3.683,-3.6917,-4.1556,-4.3711,-0.7213,-0.7307,-0.7415,-0.6627,-0.6688,-0.6722,-0.582,-0.5617,-0.5714,-0.6169,0.0,0.0,0.0,0.0,0.0,0.0,-1.3144,-1.4255,-1.3681,-1.5458,-1.7208,-1.8263,-1.9386,-2.0388,-2.1216,-2.1563,-2.297,-2.5968,-2.3955,-2.4386,-2.8565,-2.9712,-3.1351,-3.3821,-3.5777,-3.7345,-3.8574,-3.8574,-3.8574,-3.8574,-3.8574,-3.8574,-3.8574,-3.8574,-3.8711,-3.8945,-3.9121,-3.9492,-4.0,-4.0371,-4.0664,-4.0898,-4.0898,-4.0898,-4.0918,-4.1113,-4.1172,-4.1172,-4.1172,-4.1172,-4.1172,-4.1172,-4.1172,-4.1172,-4.1172,-4.1172,-4.1172,-4.1172,-4.1172,-4.1172,-4.1172,-4.1172,-4.1172,-4.1172,-4.1172,-4.1172,-4.1172,-4.1172,-4.1172,-4.1172,-4.1172,-4.1172,-4.1172,-4.1172,-4.123,-4.1406,-4.1641,-4.1933,-4.2285,-4.2773,-4.3144,-4.332,-4.3555,-4.3711,-4.3711,-4.3711,-4.3711,-4.3711,-4.3711,-4.3093,-4.1807,-4.0427,-3.88,-3.683,-3.4154,-3.3043,-3.3395,-3.5707,-3.683,-3.6917,-4.1556,-4.3711,-0.7624,-0.7801,-0.7909,-0.6844,-0.677,-0.6736,-0.5874,-0.561,-0.5603,-0.582,-0.6315,0.0,0.0,0.0,0.0,0.0,0.0,-1.3293,-1.2425,-1.3961,-1.5591,-1.6687,-1.7276,-1.8424,-2.0321,-2.0639,-2.2083,-2.5371,-2.3532,-2.4285,-2.8987,-2.9632,-3.112,-3.4039,-3.5538,-3.7032,-3.8574,-3.8574,-3.8574,-3.8574,-3.8574,-3.8574,-3.8574,-3.8691,-3.8906,-3.9219,-3.9453,-3.9922,-4.0527,-4.0644,-4.0879,-4.1172,-4.1172,-4.1172,-4.1172,-4.1172,-4.1172,-4.1172,-4.1172,-4.1172,-4.1172,-4.1172,-4.1172,-4.1172,-4.1172,-4.1172,-4.1172,-4.1172,-4.1172,-4.1172,-4.1172,-4.1172,-4.1172,-4.1172,-4.1172,-4.1172,-4.1172,-4.1172,-4.1172,-4.1172,-4.1172,-4.1172,-4.1172,-4.1172,-4.1172,-4.1172,-4.1426,-4.168,-4.1777,-4.2441,-4.2949,-4.3066,-4.3457,-4.3711,-4.3711,-4.3711,-4.3711,-4.3711,-4.3093,-4.1723,-3.9395,-3.769,-3.6226,-3.494,-3.2263,-3.139,-3.244,-3.4766,-3.6226,-3.6917,-4.1556,-4.3711,-0.8606,-0.835,-0.8113,-0.6682,-0.6422,-0.6334,-0.5583,-0.5705,-0.5973,-0.5986,-0.6363,-0.6983,-0.7975,0.0,0.0,0.0,0.0,0.0,0.0,0.0,0.0,-1.364,-1.5538,-1.7341,-1.8851,-1.8626,-1.9422,-2.1986,-2.1998,-2.2899,-2.5127,-2.9482,-3.196,-3.211,-3.6238,-3.8501,-3.8574,-3.8574,-3.8574,-3.8574,-3.8574,-3.8574,-3.8594,-3.9004,-3.9199,-3.9258,-4.0117,-4.0488,-4.0566,-4.0976,-4.1172,-4.1172,-4.1172,-4.1172,-4.1172,-4.1172,-4.1172,-4.1172,-4.1172,-4.1172,-4.1172,-4.1172,-4.1172,-4.1172,-4.1172,-4.1172,-4.1172,-4.1172,-4.1172,-4.1172,-4.1172,-4.1172,-4.1172,-4.1172,-4.1172,-4.1172,-4.1172,-4.1172,-4.1172,-4.1172,-4.1172,-4.1172,-4.1172,-4.1172,-4.1172,-4.1172,-4.1191,-4.1348,-4.1758,-4.2168,-4.2617,-4.3027,-4.3457,-4.3711,-4.3711,-4.3711,-4.3711,-4.3711,-4.1621,-3.9395,-3.7003,-3.683,-3.4679,-3.0182,-3.2174,-3.2174,-3.0003,-3.2351,-3.4679,-3.6917,-4.1556,-4.3711,-0.8825,-0.9035,-0.9008,-0.7516,-0.7333,-0.7183,-0.5935,-0.5847,-0.5966,-0.5901,-0.6234,-0.6667,-0.7031,0.0,0.0,0.0,0.0,0.0,0.0,0.0,0.0,0.0,0.0,0.0,0.0,0.0,-2.2149,-2.5843,-2.4672,-2.6433,-3.2436,-3.1828,-3.2767,-3.5813,-3.7398,-3.8281,-3.8574,-3.8574,-3.8574,-3.8574,-3.8574,-3.873,-3.9004,-3.9141,-3.9531,-4.0098,-4.0391,-4.0684,-4.0996,-4.1406,-4.1582,-4.1582,-4.1582,-4.1582,-4.1562,-4.1269,-4.1172,-4.1172,-4.1172,-4.1172,-4.1172,-4.1172,-4.1172,-4.1172,-4.1172,-4.1172,-4.1172,-4.1172,-4.1172,-4.1172,-4.1172,-4.1172,-4.1172,-4.1172,-4.1172,-4.1172,-4.1172,-4.1172,-4.1172,-4.1172,-4.1172,-4.1172,-4.1172,-4.1172,-4.1172,-4.1172,-4.1172,-4.123,-4.1367,-4.1992,-4.248,-4.2637,-4.3281,-4.3711,-4.3711,-4.3711,-4.3711,-4.3711,-4.1537,-3.9225,-3.6917,-3.5375,-3.3116,-3.0003,-3.0691,-3.0705,-2.9913,-3.3731,-3.6053,-3.6917,-4.1556,-4.3711,-0.9256,-0.953,-0.9517,-0.8235,-0.8099,-0.7867,-0.6519,-0.6444,-0.662,-0.6471,-0.6946,-0.7585,-0.8398,0.0,0.0,0.0,0.0,0.0,0.0,-1.1538,0.0,0.0,0.0,0.0,0.0,0.0,0.0,-2.6463,-2.504,0.0,-3.2277,-3.1637,-3.2557,-3.5722,-3.7172,-3.8125,-3.8574,-3.8574,-3.8574,-3.8574,-3.873,-3.8945,-3.9219,-3.9531,-3.998,-4.0527,-4.0684,-4.0996,-4.1426,-4.168,-4.1894,-4.2031,-4.2031,-4.2031,-4.1953,-4.1387,-4.1172,-4.1172,-4.1172,-4.1172,-4.1172,-4.1172,-4.1172,-4.1172,-4.1172,-4.1172,-4.1172,-4.1172,-4.1172,-4.1172,-4.1172,-4.1172,-4.1172,-4.1172,-4.1172,-4.1172,-4.1172,-4.1172,-4.1172,-4.1172,-4.1172,-4.1172,-4.1172,-4.1172,-4.1172,-4.1172,-4.1172,-4.1172,-4.1172,-4.1914,-4.2422,-4.2422,-4.3183,-4.3711,-4.3711,-4.3711,-4.3711,-4.3711,-4.0782,-3.8374,-3.683,-3.3819,-3.1479,-2.9913,-2.9913,-2.9913,-2.9913,-3.3523,-3.5773,-3.6718,-4.0334,-4.2562]},{"header":{"parameterUnit":"m.s-1","parameterCategory":1,"la1":30.6,"la2":29.2853,"lo1":-89.7004,"lo2":-87.6739,"dx":0.0162,"dy":0.0183,"nx":112,"ny":82,"refTime":"2022-12-02T06:00:00:Z","depth":0,"parameterNumber":3,"parameterNumberName":"V-component_of_WINDS"},"data":[0.0,0.0,0.0,0.0,0.0,0.0,0.0,0.0,0.0,0.0,0.0,0.0,0.0,0.0,0.0,0.0,0.0,0.0,0.0,0.0,0.0,0.0,0.0,0.0,0.0,0.0,0.0,0.0,0.0,0.0,0.0,0.0,0.0,0.0,0.0,0.0,0.0,0.0,0.0,0.0,0.0,0.0,0.0,0.0,0.0,0.0,0.0,0.0,0.0,0.0,0.0,0.0,0.0,0.0,0.0,0.0,0.0,0.0,0.0,0.0,0.0,0.0,0.0,0.0,0.0,0.0,0.0,0.0,0.0,0.0,0.0,0.0,0.0,0.0,0.0,0.0,0.0,0.0,0.0,0.0,0.0,0.0,0.0,0.0,0.0,0.0,0.0,0.0,0.0,0.0,4.8269,5.0161,5.227,5.3518,5.3387,5.3408,5.0949,4.5259,0.0,0.0,0.0,0.0,0.0,0.0,0.0,0.0,0.0,0.0,0.0,0.0,0.0,0.0,0.0,0.0,0.0,0.0,0.0,0.0,0.0,0.0,0.0,0.0,0.0,0.0,0.0,0.0,0.0,0.0,0.0,0.0,0.0,0.0,0.0,0.0,0.0,0.0,0.0,0.0,0.0,0.0,0.0,0.0,0.0,0.0,0.0,0.0,0.0,0.0,0.0,0.0,0.0,0.0,0.0,0.0,0.0,0.0,0.0,0.0,0.0,0.0,0.0,0.0,0.0,0.0,0.0,0.0,0.0,0.0,0.0,0.0,0.0,0.0,0.0,0.0,0.0,0.0,0.0,0.0,0.0,0.0,0.0,0.0,0.0,0.0,0.0,0.0,0.0,0.0,0.0,0.0,0.0,0.0,0.0,0.0,0.0,0.0,0.0,0.0,0.0,0.0,0.0,0.0,4.6654,5.3004,5.462,5.495,5.4289,5.4216,5.1793,4.6067,0.0,0.0,0.0,0.0,0.0,0.0,0.0,0.0,0.0,0.0,0.0,0.0,0.0,0.0,0.0,0.0,0.0,0.0,0.0,0.0,0.0,0.0,0.0,0.0,0.0,0.0,0.0,0.0,0.0,0.0,0.0,0.0,0.0,0.0,0.0,0.0,0.0,0.0,0.0,0.0,0.0,0.0,0.0,0.0,0.0,0.0,0.0,0.0,0.0,0.0,0.0,0.0,0.0,0.0,0.0,0.0,0.0,0.0,0.0,0.0,0.0,0.0,0.0,0.0,0.0,0.0,0.0,0.0,0.0,0.0,0.0,0.0,0.0,0.0,0.0,0.0,0.0,0.0,0.0,0.0,0.0,0.0,0.0,0.0,0.0,0.0,0.0,0.0,0.0,0.0,0.0,0.0,0.0,0.0,0.0,0.0,0.0,0.0,0.0,0.0,0.0,0.0,0.0,4.6764,4.9407,5.4509,5.5354,5.5427,5.506,5.4656,5.216,4.6874,4.3864,0.0,0.0,0.0,0.0,0.0,0.0,0.0,0.0,0.0,0.0,0.0,0.0,0.0,0.0,0.0,0.0,0.0,0.0,0.0,0.0,0.0,0.0,0.0,0.0,0.0,0.0,0.0,0.0,0.0,0.0,0.0,0.0,0.0,0.0,0.0,0.0,0.0,0.0,0.0,0.0,0.0,0.0,0.0,0.0,0.0,0.0,0.0,0.0,0.0,0.0,0.0,0.0,0.0,0.0,0.0,0.0,0.0,0.0,0.0,0.0,0.0,0.0,0.0,0.0,0.0,0.0,0.0,0.0,0.0,0.0,0.0,0.0,0.0,0.0,0.0,0.0,0.0,0.0,0.0,0.0,0.0,0.0,0.0,0.0,0.0,0.0,0.0,0.0,0.0,0.0,0.0,0.0,0.0,0.0,0.0,0.0,0.0,0.0,0.0,0.0,0.0,0.0,5.1169,5.3151,5.5611,5.6051,5.6088,5.5904,5.5133,5.2527,4.7406,4.4268,0.0,0.0,0.0,0.0,0.0,0.0,0.0,0.0,0.0,0.0,0.0,0.0,0.0,0.0,0.0,0.0,0.0,0.0,0.0,0.0,0.0,0.0,0.0,0.0,0.0,0.0,0.0,0.0,0.0,0.0,0.0,0.0,0.0,0.0,0.0,0.0,0.0,0.0,0.0,0.0,0.0,0.0,0.0,0.0,0.0,0.0,0.0,0.0,0.0,0.0,0.0,0.0,0.0,0.0,0.0,0.0,0.0,0.0,0.0,0.0,0.0,0.0,0.0,0.0,0.0,0.0,0.0,0.0,0.0,0.0,0.0,0.0,0.0,0.0,0.0,0.0,0.0,0.0,0.0,0.0,0.0,0.0,0.0,0.0,0.0,0.0,0.0,0.0,0.0,0.0,0.0,0.0,0.0,0.0,0.0,0.0,0.0,0.0,0.0,0.0,0.0,0.0,5.2197,5.6492,5.6712,5.7373,5.7519,5.6785,5.5978,5.3115,4.7443,4.4782,0.0,0.0,0.0,0.0,0.0,0.0,0.0,0.0,0.0,0.0,0.0,0.0,0.0,0.0,0.0,0.0,0.0,0.0,0.0,0.0,0.0,0.0,0.0,0.0,0.0,0.0,0.0,0.0,0.0,0.0,0.0,0.0,0.0,0.0,0.0,0.0,0.0,0.0,0.0,0.0,0.0,0.0,0.0,0.0,0.0,0.0,0.0,0.0,0.0,0.0,0.0,0.0,0.0,0.0,0.0,0.0,0.0,0.0,0.0,0.0,0.0,0.0,0.0,0.0,0.0,0.0,0.0,0.0,0.0,0.0,0.0,0.0,0.0,0.0,0.0,0.0,0.0,0.0,0.0,0.0,0.0,0.0,0.0,0.0,0.0,0.0,0.0,0.0,0.0,0.0,0.0,0.0,0.0,0.0,0.0,0.0,0.0,0.0,0.0,0.0,0.0,0.0,5.161,5.5317,5.7336,5.7813,5.7886,5.7556,5.6822,5.3702,4.748,0.0,0.0,0.0,0.0,0.0,0.0,0.0,0.0,0.0,0.0,0.0,0.0,0.0,0.0,0.0,0.0,0.0,0.0,0.0,0.0,0.0,0.0,0.0,0.0,0.0,0.0,0.0,0.0,0.0,0.0,0.0,0.0,0.0,0.0,0.0,0.0,0.0,0.0,0.0,0.0,0.0,0.0,0.0,0.0,0.0,0.0,0.0,0.0,0.0,0.0,0.0,0.0,0.0,0.0,0.0,0.0,0.0,0.0,0.0,0.0,0.0,0.0,0.0,0.0,0.0,0.0,0.0,0.0,0.0,0.0,0.0,0.0,0.0,0.0,0.0,0.0,0.0,0.0,0.0,0.0,0.0,0.0,0.0,0.0,0.0,0.0,0.0,0.0,0.0,0.0,0.0,0.0,0.0,0.0,0.0,0.0,0.0,0.0,0.0,0.0,0.0,0.0,4.8049,5.2234,5.5574,5.7776,5.7997,5.7997,5.7997,5.7262,5.4011,4.7516,0.0,0.0,0.0,0.0,0.0,0.0,0.0,0.0,0.0,0.0,0.0,0.0,0.0,0.0,0.0,0.0,0.0,0.0,0.0,0.0,0.0,0.0,0.0,0.0,0.0,0.0,0.0,0.0,0.0,0.0,0.0,0.0,0.0,0.0,0.0,0.0,0.0,0.0,0.0,0.0,0.0,0.0,0.0,0.0,0.0,0.0,0.0,0.0,0.0,0.0,0.0,0.0,0.0,0.0,0.0,0.0,0.0,0.0,0.0,0.0,0.0,0.0,0.0,0.0,0.0,0.0,0.0,0.0,0.0,0.0,0.0,0.0,0.0,0.0,0.0,0.0,0.0,0.0,0.0,0.0,0.0,0.0,0.0,0.0,0.0,0.0,0.0,0.0,0.0,0.0,0.0,0.0,0.0,0.0,0.0,0.0,0.0,0.0,0.0,0.0,0.0,0.0,4.9114,5.4509,5.8033,5.8033,5.8033,5.8033,5.7997,5.7299,5.4032,0.0,0.0,0.0,0.0,0.0,0.0,0.0,0.0,0.0,0.0,0.0,0.0,0.0,0.0,0.0,0.0,0.0,0.0,0.0,0.0,0.0,0.0,0.0,0.0,0.0,0.0,0.0,0.0,0.0,0.0,0.0,0.0,0.0,0.0,0.0,0.0,0.0,0.0,0.0,0.0,0.0,0.0,0.0,0.0,0.0,0.0,0.0,0.0,0.0,0.0,0.0,0.0,0.0,0.0,0.0,0.0,0.0,0.0,0.0,0.0,0.0,0.0,0.0,0.0,0.0,0.0,0.0,0.0,0.0,0.0,0.0,0.0,0.0,0.0,0.0,0.0,0.0,0.0,0.0,0.0,0.0,0.0,0.0,0.0,0.0,0.0,0.0,0.0,0.0,0.0,0.0,0.0,0.0,0.0,0.0,0.0,0.0,0.0,0.0,0.0,0.0,0.0,0.0,5.0912,5.6198,5.9685,5.9685,5.9685,5.9465,5.8914,5.8634,5.4965,4.6764,0.0,0.0,0.0,0.0,0.0,0.0,0.0,0.0,0.0,0.0,0.0,0.0,0.0,0.0,0.0,0.0,0.0,0.0,0.0,0.0,0.0,0.0,0.0,0.0,0.0,0.0,0.0,0.0,0.0,0.0,0.0,0.0,0.0,0.0,0.0,0.0,0.0,0.0,0.0,0.0,0.0,0.0,0.0,0.0,0.0,0.0,0.0,0.0,0.0,0.0,0.0,0.0,0.0,0.0,0.0,0.0,0.0,0.0,0.0,0.0,0.0,0.0,0.0,0.0,0.0,0.0,0.0,0.0,0.0,0.0,0.0,0.0,0.0,0.0,0.0,0.0,0.0,0.0,0.0,0.0,0.0,0.0,0.0,0.0,0.0,0.0,0.0,0.0,0.0,0.0,0.0,0.0,0.0,0.0,0.0,0.0,0.0,0.0,0.0,0.0,0.0,0.0,5.2123,5.7116,6.0419,6.0419,6.0419,6.0199,5.9722,5.9661,5.6565,4.926,0.0,0.0,0.0,0.0,0.0,0.0,0.0,0.0,0.0,0.0,0.0,0.0,0.0,0.0,0.0,0.0,0.0,0.0,0.0,0.0,0.0,0.0,0.0,0.0,0.0,0.0,0.0,0.0,0.0,0.0,0.0,0.0,0.0,0.0,0.0,0.0,0.0,0.0,0.0,0.0,0.0,0.0,0.0,0.0,0.0,0.0,0.0,0.0,0.0,0.0,0.0,0.0,0.0,0.0,0.0,0.0,0.0,0.0,0.0,0.0,0.0,0.0,0.0,0.0,0.0,0.0,0.0,0.0,0.0,0.0,0.0,0.0,0.0,0.0,0.0,0.0,0.0,0.0,0.0,0.0,0.0,0.0,0.0,0.0,0.0,0.0,0.0,0.0,0.0,0.0,0.0,0.0,0.0,0.0,0.0,0.0,0.0,0.0,0.0,0.0,0.0,0.0,5.3004,5.7703,6.0713,6.0639,6.0713,6.0676,6.0529,6.0529,5.8437,5.3607,0.0,0.0,0.0,0.0,0.0,0.0,0.0,0.0,0.0,0.0,0.0,0.0,0.0,0.0,0.0,0.0,0.0,0.0,0.0,0.0,0.0,0.0,0.0,0.0,0.0,0.0,0.0,0.0,0.0,0.0,0.0,0.0,0.0,0.0,0.0,0.0,0.0,0.0,0.0,0.0,0.0,0.0,0.0,0.0,0.0,0.0,0.0,0.0,0.0,0.0,0.0,0.0,0.0,0.0,0.0,0.0,0.0,0.0,0.0,0.0,4.4525,4.0671,0.0,0.0,0.0,0.0,0.0,0.0,0.0,0.0,0.0,0.0,0.0,0.0,0.0,0.0,0.0,0.0,0.0,0.0,0.0,0.0,0.0,0.0,0.0,0.0,0.0,0.0,0.0,0.0,0.0,0.0,0.0,0.0,0.0,0.0,0.0,0.0,0.0,0.0,0.0,0.0,5.4656,5.9905,6.3062,6.2365,6.2915,6.2768,6.1447,6.1337,5.9281,5.4436,5.3335,0.0,0.0,0.0,0.0,0.0,0.0,0.0,0.0,0.0,0.0,0.0,0.0,0.0,0.0,0.0,0.0,0.0,0.0,0.0,0.0,0.0,0.0,0.0,0.0,0.0,0.0,0.0,0.0,0.0,0.0,0.0,0.0,0.0,0.0,0.0,0.0,0.0,0.0,0.0,0.0,0.0,0.0,0.0,0.0,0.0,0.0,0.0,0.0,0.0,0.0,0.0,0.0,0.0,0.0,0.0,0.0,0.0,0.0,0.0,4.9077,4.6801,0.0,0.0,0.0,0.0,0.0,0.0,0.0,0.0,0.0,0.0,0.0,0.0,0.0,0.0,0.0,0.0,0.0,0.0,0.0,0.0,0.0,0.0,0.0,0.0,0.0,0.0,0.0,0.0,0.0,0.0,0.0,0.0,0.0,0.0,0.0,0.0,0.0,0.0,0.0,0.0,5.6345,6.1374,6.4494,6.4053,6.442,6.431,6.3466,6.3392,6.1961,5.8657,5.6638,0.0,0.0,0.0,0.0,0.0,0.0,0.0,0.0,0.0,0.0,0.0,0.0,0.0,0.0,0.0,0.0,0.0,0.0,0.0,0.0,0.0,0.0,0.0,0.0,0.0,0.0,0.0,0.0,0.0,0.0,0.0,0.0,0.0,0.0,0.0,0.0,0.0,0.0,0.0,0.0,0.0,0.0,0.0,0.0,0.0,0.0,0.0,0.0,0.0,0.0,0.0,0.0,0.0,5.1499,5.2123,5.2307,5.3115,5.4252,5.5537,5.3555,5.3518,5.4509,5.0452,0.0,0.0,0.0,0.0,0.0,0.0,0.0,0.0,0.0,0.0,0.0,0.0,0.0,0.0,0.0,0.0,0.0,0.0,0.0,0.0,0.0,0.0,5.4693,5.4818,5.6418,5.6381,5.1002,0.0,0.0,0.0,0.0,0.0,0.0,0.0,0.0,0.0,0.0,0.0,5.818,6.2658,6.5485,6.5301,6.5448,6.5448,6.5301,6.5301,6.4714,6.3294,6.0126,5.7373,0.0,0.0,0.0,0.0,0.0,0.0,0.0,0.0,0.0,0.0,0.0,0.0,0.0,0.0,0.0,0.0,0.0,0.0,0.0,0.0,0.0,0.0,0.0,0.0,0.0,0.0,0.0,0.0,0.0,0.0,0.0,0.0,4.0948,4.2653,0.0,0.0,0.0,0.0,0.0,0.0,0.0,0.0,0.0,0.0,0.0,0.0,0.0,4.8636,5.0618,5.1903,5.2968,5.3775,5.5978,5.7409,5.812,5.8951,5.9795,6.0639,6.0309,0.0,5.6455,5.5794,0.0,0.0,0.0,0.0,0.0,0.0,0.0,0.0,0.0,0.0,0.0,0.0,0.0,0.0,0.0,0.0,0.0,0.0,0.0,0.0,0.0,0.0,6.0676,6.1374,6.1753,6.1753,6.0909,5.517,4.9848,4.8746,4.7976,4.6728,0.0,0.0,0.0,0.0,0.0,0.0,6.0529,6.4163,6.6072,6.5375,6.5925,6.6072,6.5375,6.5301,6.5228,6.5007,6.4494,6.2511,5.8707,5.6712,0.0,0.0,0.0,0.0,0.0,0.0,0.0,0.0,0.0,0.0,0.0,0.0,0.0,0.0,0.0,0.0,0.0,0.0,0.0,0.0,0.0,0.0,0.0,0.0,0.0,0.0,0.0,0.0,0.0,4.0157,4.2359,4.3975,4.2837,4.1882,0.0,0.0,0.0,0.0,0.0,0.0,0.0,0.0,0.0,5.1022,5.238,5.3665,5.484,5.6455,5.7409,5.7776,5.8841,5.9538,5.9942,6.119,6.1961,6.2328,6.3282,6.3135,6.1998,5.8804,5.6455,5.462,0.0,0.0,0.0,0.0,5.1793,5.216,5.5244,5.6014,5.55,5.4671,0.0,0.0,0.0,0.0,0.0,0.0,0.0,5.7093,5.9428,6.1153,6.2622,6.3906,6.4237,6.4237,6.4237,6.1447,5.818,5.5464,5.3959,5.1867,4.8049,4.9591,0.0,0.0,0.0,5.9538,6.2585,6.5448,6.7026,6.6696,6.6953,6.7026,6.6659,6.6659,6.6476,6.5999,6.5962,6.4971,6.2707,6.0199,5.6675,0.0,0.0,0.0,0.0,0.0,0.0,0.0,0.0,0.0,0.0,0.0,0.0,0.0,0.0,0.0,0.0,0.0,0.0,0.0,0.0,0.0,0.0,0.0,0.0,0.0,0.0,0.0,0.0,4.3277,4.4745,4.6397,4.5663,4.4853,0.0,0.0,0.0,0.0,0.0,0.0,4.9848,5.2013,5.3592,5.4399,5.6381,5.7813,5.8621,5.9795,6.0493,6.0713,6.0933,6.1153,6.1374,6.2805,6.3441,6.3514,6.4787,6.5632,6.5888,6.1851,5.9942,5.9318,5.6932,5.5611,5.5207,5.6602,5.6895,5.7079,6.0933,6.1851,6.1263,6.0676,6.0162,5.9428,5.7226,0.0,0.0,0.0,0.0,6.0542,6.2365,6.3319,6.4127,6.5558,6.5925,6.5925,6.5925,6.5595,6.4395,6.1349,5.9771,5.7629,5.3335,5.5097,0.0,5.4987,5.8841,6.2658,6.4751,6.6586,6.7687,6.7687,6.7687,6.7687,6.7687,6.7687,6.743,6.6843,6.6806,6.6439,6.5632,6.3282,6.0639,5.7776,0.0,0.0,0.0,0.0,0.0,0.0,0.0,0.0,0.0,0.0,0.0,0.0,0.0,0.0,0.0,0.0,0.0,0.0,0.0,0.0,0.0,0.0,0.0,0.0,0.0,0.0,0.0,0.0,0.0,5.1426,5.0178,0.0,0.0,0.0,0.0,5.089,5.1878,5.2882,5.4017,5.5647,5.6932,5.774,5.8621,5.9465,6.0272,6.0346,6.0786,6.1557,6.2328,6.3099,6.3943,6.4787,6.5191,6.5191,6.5264,6.5338,6.5411,6.5888,6.5154,6.3759,6.3613,6.2108,6.0126,6.097,6.1777,6.2548,6.3613,6.3943,6.3906,6.387,6.2768,6.1594,6.2218,6.1374,0.0,0.0,6.256,6.3209,6.5632,6.6292,6.6512,6.7357,6.7577,6.7577,6.7577,6.6366,6.5264,6.5044,6.4934,6.4053,6.1447,0.0,6.152,6.2181,6.2523,6.3906,6.71,6.7614,6.7687,6.7687,6.7687,6.7687,6.7687,6.7687,6.7677,6.7614,6.7614,6.7283,6.6476,6.6292,6.431,6.0309,5.785,0.0,0.0,0.0,0.0,0.0,0.0,0.0,0.0,0.0,0.0,0.0,0.0,0.0,0.0,0.0,0.0,0.0,0.0,0.0,0.0,0.0,0.0,0.0,0.0,0.0,0.0,0.0,0.0,5.1584,5.2067,0.0,5.2253,5.2677,5.317,5.3757,5.5006,5.6037,5.6661,5.7776,5.8731,5.9538,6.0309,6.0896,6.1153,6.2218,6.2915,6.3209,6.4016,6.4567,6.4897,6.5705,6.6072,6.6109,6.6623,6.6843,6.688,6.7136,6.6329,6.4934,6.5448,6.5081,6.4347,6.464,6.4934,6.5228,6.5521,6.5632,6.5742,6.6256,6.5999,6.5558,6.5852,6.5558,6.5228,6.5778,6.5962,6.6145,6.7026,6.7247,6.732,6.7614,6.7687,6.7687,6.7687,6.7247,6.6843,6.6843,6.5999,6.4677,6.2732,6.4127,6.4897,6.3099,6.4604,6.6366,6.754,6.7687,6.7687,6.7687,6.7687,6.7687,6.7687,6.7687,6.7687,6.7687,6.7687,6.7577,6.7283,6.7247,6.6329,6.4347,6.398,6.0162,0.0,0.0,0.0,0.0,0.0,0.0,0.0,0.0,0.0,0.0,0.0,0.0,0.0,0.0,0.0,0.0,0.0,0.0,0.0,0.0,0.0,0.0,0.0,0.0,0.0,4.9824,5.1879,5.2435,5.3968,5.4794,5.4434,5.5609,5.6317,5.6124,5.7342,5.8206,5.841,5.9428,6.0272,6.0786,6.1594,6.2144,6.2438,6.3539,6.4237,6.4494,6.5338,6.5705,6.5742,6.6549,6.688,6.6916,6.7467,6.7687,6.7687,6.7687,6.721,6.6586,6.71,6.7467,6.7724,6.7724,6.754,6.7283,6.699,6.688,6.699,6.7504,6.7687,6.7687,6.7687,6.7687,6.7687,6.7687,6.7687,6.7687,6.7687,6.7687,6.7687,6.7687,6.7687,6.776,6.8054,6.8091,6.8201,6.8458,6.721,6.5778,6.464,6.6256,6.6953,6.4787,6.6292,6.7797,6.8054,6.7871,6.7907,6.8421,6.7982,6.7741,6.7996,6.7032,6.678,6.752,6.6598,6.638,6.7121,6.6227,6.542,6.4883,6.5451,6.2384,5.5611,0.0,0.0,0.0,0.0,0.0,0.0,0.0,0.0,0.0,0.0,0.0,0.0,0.0,0.0,0.0,0.0,0.0,0.0,0.0,0.0,0.0,0.0,0.0,5.0288,5.2086,5.3709,5.4563,5.6074,5.6929,5.6545,5.7232,5.7832,5.8127,5.8905,5.9344,5.9291,6.075,6.1594,6.163,6.2438,6.3246,6.409,6.4127,6.4567,6.5375,6.6145,6.6549,6.6549,6.732,6.7687,6.7687,6.7687,6.7687,6.7687,6.7687,6.8201,6.8935,6.8935,6.9449,7.011,7.011,6.9559,6.8752,6.7944,6.7687,6.7687,6.7687,6.7687,6.7687,6.7687,6.7687,6.7687,6.7687,6.7687,6.7687,6.7687,6.7687,6.7687,6.7687,6.7724,6.7944,6.8752,6.8935,6.9192,6.9963,6.8825,6.776,6.776,6.776,6.776,6.776,6.776,0.0,6.8798,6.8211,6.8321,6.9797,6.845,6.7719,6.8512,6.57,6.4893,6.7161,6.4572,6.3896,6.6029,6.3399,6.1867,6.1867,6.1818,6.1349,6.0384,0.0,0.0,0.0,0.0,0.0,0.0,0.0,0.0,0.0,0.0,0.0,0.0,0.0,0.0,0.0,0.0,0.0,0.0,0.0,0.0,0.0,5.0583,5.2774,5.2476,5.394,5.5715,5.7481,5.8081,5.8582,5.905,5.9822,6.0048,5.9437,6.0162,6.071,6.0945,6.1374,6.1851,6.2438,6.3282,6.387,6.409,6.5264,6.5962,6.6182,6.699,6.7357,6.7357,6.7577,6.7687,6.7687,6.7687,6.7687,6.7687,6.7687,6.8495,6.9779,6.9779,7.0257,7.0917,7.033,6.9229,6.7981,6.776,6.7687,6.7687,6.7687,6.7687,6.7687,6.7687,6.7687,6.7687,6.7687,6.7687,6.7687,6.7687,6.7687,6.7687,6.7687,6.8128,6.8641,6.8862,6.9376,6.9853,7.0073,6.9743,6.9449,6.9449,6.9449,6.9449,6.9449,6.9449,6.9291,6.879,6.8585,6.7903,6.6554,6.5982,6.5785,6.5999,6.5202,6.5459,6.7196,6.6523,6.6346,6.6949,6.6204,6.5744,6.5744,6.3549,6.1616,0.0,0.0,0.0,0.0,0.0,0.0,0.0,0.0,0.0,0.0,0.0,0.0,0.0,0.0,0.0,0.0,0.0,0.0,0.0,0.0,0.0,0.0,5.3,5.5071,5.5361,5.6477,5.7753,5.8987,5.93,5.9736,6.0508,6.0836,6.0838,6.041,6.113,6.1597,6.1606,6.1924,6.2475,6.3319,6.3833,6.442,6.5081,6.6035,6.6659,6.699,6.7467,6.7687,6.7687,6.7687,6.7687,6.7687,6.7687,6.7687,6.7687,6.7687,6.8641,7.011,0.0,0.0,0.0,0.0,6.9009,6.8128,6.7797,6.7687,6.7787,6.8091,6.8201,6.8274,6.8605,6.8715,6.8641,6.8311,6.8201,6.8128,6.7797,6.7944,6.8201,6.8201,6.8825,6.9522,6.9853,6.9966,7.0135,7.0426,7.0193,0.0,6.9911,6.9678,6.9398,6.8965,6.8934,6.8858,6.8636,6.8288,6.7838,6.705,6.6285,6.597,6.6321,6.5125,0.0,0.0,0.0,6.5117,6.4804,6.4804,0.0,0.0,0.0,6.2737,6.3075,6.1711,0.0,0.0,5.8723,5.8007,0.0,0.0,0.0,0.0,0.0,0.0,0.0,0.0,0.0,0.0,0.0,0.0,0.0,0.0,0.0,0.0,5.5033,5.7047,5.8247,5.9092,5.9569,5.9569,5.9955,6.0478,6.108,6.0946,6.0904,6.1162,6.1899,6.216,6.1765,6.2511,0.0,0.0,0.0,6.5044,6.6476,6.6586,6.699,6.7687,6.7687,6.7687,6.7687,6.7687,6.7687,6.7687,6.7687,6.7687,6.7687,6.7687,6.8568,6.9963,7.0146,7.055,7.0881,6.9449,6.8862,6.8678,6.8054,0.0,0.0,6.8788,6.9045,6.9192,6.9889,7.011,6.9963,6.9229,6.9045,6.8862,6.8164,6.8495,6.9045,6.9045,6.9669,7.044,7.1174,7.0605,7.0265,7.0951,7.0366,6.9672,6.9565,6.9156,6.8558,6.7723,6.7585,6.7798,6.8399,6.7835,6.787,6.8998,6.7698,0.0,6.7757,6.5244,6.4546,6.6677,6.4343,6.2584,6.1941,6.1941,6.2297,6.3157,6.3302,6.4739,6.7482,6.7588,6.7588,6.7341,6.0283,5.8939,0.0,0.0,0.0,0.0,0.0,0.0,0.0,0.0,0.0,0.0,0.0,0.0,0.0,0.0,0.0,5.4422,5.6472,5.825,5.9154,5.9664,5.9988,5.9988,6.0628,6.0839,6.0227,6.1284,6.1847,6.1516,6.2242,6.2671,6.2585,6.3392,6.3906,6.409,6.5338,6.6182,6.6512,6.7136,6.754,6.7687,6.7687,0.0,6.7687,6.7687,6.7687,6.7687,6.7687,6.7687,6.7687,6.7687,6.8274,6.9265,7.0587,7.0367,6.9339,6.9009,6.8495,6.7981,6.8495,6.8678,6.8788,6.9596,6.9853,6.9889,7.0036,7.011,0.0,6.9926,6.9853,6.9816,6.9669,6.9743,6.9853,6.9853,7.0477,7.1138,7.1256,7.1072,7.0915,7.1091,7.0366,6.9457,6.8717,6.9102,6.9423,6.9247,6.9247,6.8998,6.8328,6.811,6.7388,6.5744,6.5295,6.51,6.5277,6.4735,6.5087,6.6711,6.6271,6.5899,6.5764,6.5764,6.6083,6.6867,6.7689,6.8285,6.8759,6.952,6.948,6.8732,6.7424,6.7271,0.0,0.0,0.0,0.0,0.0,0.0,0.0,0.0,0.0,0.0,0.0,5.1188,5.2398,0.0,5.5467,5.652,5.792,5.8954,5.9128,5.9682,6.0256,6.066,6.0648,6.0736,6.1081,6.1634,6.204,6.2206,6.2585,6.278,6.278,6.3613,6.4273,6.4677,6.5852,6.6696,6.71,6.7504,6.7687,6.7687,6.7687,6.7687,6.7687,6.7687,6.7687,6.7687,6.7687,6.7687,6.7724,6.8128,6.8311,6.8421,6.9633,6.9633,6.8862,6.8458,6.8311,6.8348,6.8752,6.9155,6.9633,7.044,7.0697,7.077,7.1174,7.1284,7.1211,7.0807,7.0697,7.0624,7.0183,7.0403,7.0697,7.0697,7.0961,7.1211,7.1211,7.0381,6.9637,6.9637,6.8873,6.8102,6.7616,6.794,6.8258,6.8258,6.8258,6.8063,6.7582,6.7501,6.7059,6.5805,6.5696,6.5696,6.5696,6.5696,6.6034,6.6779,6.6812,6.6981,6.7354,6.7354,6.7726,6.8504,6.899,6.9194,6.9113,6.9569,6.9569,6.9122,6.9667,6.9703,0.0,0.0,0.0,0.0,0.0,0.0,0.0,4.8731,4.9657,5.1223,5.2609,5.4085,5.5863,5.678,5.7511,5.8396,5.9088,5.9393,5.9078,5.9572,6.0297,6.1159,6.0604,6.0678,6.2019,6.1956,6.2108,6.2743,6.278,6.278,6.278,6.3759,6.464,6.5301,6.6219,6.7026,6.7687,6.7687,6.7687,6.7687,6.7687,6.7687,6.7687,6.7687,6.7687,6.7687,6.7687,6.7687,6.7724,6.8385,6.8274,6.776,6.8403,6.864,6.8567,6.811,6.8531,6.9376,6.9376,6.9779,7.0477,7.1284,7.1513,7.1651,7.2312,7.2496,7.2349,7.1725,7.1513,7.1394,7.0734,7.1064,7.1484,7.1304,7.1199,7.1063,7.0865,6.9564,6.8431,6.8431,6.7796,6.7252,6.7252,6.7117,6.6981,6.6846,6.6812,6.6812,6.6812,6.6812,6.6812,6.6812,6.6948,6.7083,6.7252,6.7252,6.7252,6.7252,6.7252,6.7523,6.8098,6.8132,6.8504,6.9316,6.9316,6.9383,6.9519,6.9519,6.9586,6.9755,7.0331,7.0229,4.5556,4.5899,4.7277,4.9054,4.9423,5.0558,0.0,5.4179,5.2982,5.5665,5.6401,5.6835,5.7808,5.8088,5.8434,5.9242,5.9435,5.9585,5.9893,5.9684,5.9904,6.1005,6.1027,6.1159,6.1653,6.2304,6.267,6.278,6.278,6.278,6.278,6.431,6.5228,6.5301,6.6769,6.7614,6.7687,6.7687,6.7687,6.7687,6.7687,6.7687,6.7687,6.7687,6.7687,6.7687,6.7687,6.7687,6.7714,6.7797,6.776,6.7707,6.7694,6.765,6.774,6.8503,6.9743,7.0999,7.0999,7.1073,7.1321,7.2092,7.2386,7.2386,7.2459,7.2496,7.2496,7.2386,7.2386,7.2349,7.2239,7.2312,7.2175,7.1303,7.1119,7.0865,7.0058,6.958,6.9258,6.9258,6.9062,6.8842,6.8842,6.8267,6.7557,6.6914,6.6812,6.6812,6.6812,6.6812,6.6812,6.6812,6.7387,6.8064,6.8774,6.8842,6.8842,6.8842,6.8842,6.8876,6.8977,6.8977,6.9316,7.006,7.006,7.0398,7.1075,7.1075,7.1413,7.2022,7.2124,7.1751,5.1217,5.1759,5.2439,5.352,5.4031,5.4683,5.6167,5.5408,5.4929,5.6654,5.6983,5.7407,5.8742,5.9011,5.9281,6.0127,6.0418,6.0519,6.0427,6.0377,6.0642,6.1306,6.1385,6.1624,6.2242,6.2622,6.278,6.278,6.278,6.3025,6.3539,6.4677,6.5521,6.5999,6.71,6.7687,6.7687,6.7687,6.7687,6.7687,6.7687,6.7687,6.7687,6.7687,6.7687,6.7687,6.7687,6.7433,6.6939,6.6939,6.6865,6.6741,6.6685,6.7519,6.8794,6.8759,6.9151,6.9809,7.0931,7.1224,7.1326,7.2204,7.2496,7.2496,7.2496,7.2496,7.2496,7.2496,7.2496,7.2343,7.1824,7.1702,7.1448,7.0501,7.0203,7.0018,6.9608,6.9376,6.9218,6.9218,6.9144,6.9113,6.9113,6.8808,6.8504,6.8199,6.7387,6.6812,6.6812,6.7184,6.7624,6.8098,6.8402,6.8741,6.9079,6.9113,6.9113,6.9113,6.9113,6.9282,6.9722,6.9722,7.0094,7.0838,7.0838,7.1007,7.1312,7.1751,7.209,7.2428,7.2834,7.3105,5.4329,5.5428,5.6101,5.6352,5.7096,5.7558,5.6609,5.6049,5.5934,5.683,5.7176,5.778,5.9242,5.9704,6.0127,6.1012,6.1245,6.1216,6.0972,6.103,6.1285,6.1851,6.1924,6.2254,6.3099,6.2952,6.278,6.278,6.3246,6.3686,6.4053,6.5264,6.6145,6.6476,6.7283,6.7687,6.7687,6.7687,6.7687,6.7687,6.7687,6.7797,6.8017,6.8017,6.7762,6.735,6.7569,6.7186,6.641,6.6562,6.641,6.6101,6.6285,6.7411,6.8927,6.8636,6.8814,6.9385,7.078,7.1162,7.1255,7.2197,7.2496,7.2496,7.2496,7.2496,7.2496,7.2496,7.2314,7.1981,7.1286,7.1078,7.079,6.9847,6.9663,6.9629,6.9382,6.9365,6.9417,6.9417,6.9586,6.9722,6.9722,6.9553,6.9485,6.9688,6.8571,6.7658,6.7455,6.7895,6.8538,6.9316,6.9417,6.9485,6.9688,6.9722,6.9722,6.9722,6.9722,6.9958,7.0466,7.05,7.0737,7.1312,7.1312,7.1413,7.1616,7.2157,7.2597,7.3037,7.3544,7.4187,5.2857,5.4774,5.6883,5.6499,5.7339,5.8269,5.8242,5.6896,5.5934,5.683,5.7665,5.8511,5.9358,6.0204,6.105,6.1908,6.1628,6.1444,6.182,6.1424,6.1508,6.2634,6.2768,6.3099,6.398,6.3319,6.278,6.278,6.431,6.4897,6.4127,6.6329,6.7283,6.6512,6.7283,6.7687,6.7687,6.7687,6.7687,6.7687,6.7687,6.8091,6.8862,6.8862,6.7996,6.647,6.7198,6.7089,6.6452,6.7034,6.6807,6.6139,6.6758,6.7007,6.7146,6.7954,6.9295,7.0842,7.1015,7.1091,7.1255,7.2197,7.2496,7.2496,7.2496,7.2496,7.2496,7.2496,7.1854,7.1159,7.1127,7.0936,7.0588,6.9641,6.9956,7.0222,6.9313,6.9698,7.0161,7.0161,7.0737,7.1244,7.1244,7.0635,7.0398,7.1142,7.0567,6.9823,6.9113,6.9045,6.935,7.0094,7.0161,7.0466,7.1176,7.1244,7.1244,7.1244,7.1244,7.1244,7.1278,7.1278,7.1312,7.1312,7.1312,7.165,7.236,7.2394,7.3138,7.4559,7.4559,7.4965,5.4898,5.6252,5.7373,5.8945,5.8788,5.8319,5.8319,5.7396,5.6725,5.7264,5.7899,5.8443,5.8948,5.9699,6.0387,6.0655,6.1427,6.201,6.215,6.2717,6.3211,6.3601,6.4127,6.4567,6.4861,6.4163,6.3429,6.2842,6.4347,6.5191,6.4897,6.6659,6.7577,6.7283,6.754,6.7433,6.6852,6.7917,6.821,6.7615,6.813,6.883,6.9678,6.9056,6.9084,6.9602,6.8711,6.8116,6.7777,6.6777,6.6147,6.5847,6.604,6.6466,6.6868,6.7182,6.7666,6.8369,6.9707,6.9743,6.9315,7.0297,7.1063,7.1573,7.1573,7.2011,7.238,7.1763,7.1318,7.0943,7.0201,6.989,6.9776,6.9309,6.974,7.0234,6.9911,7.0398,7.0939,7.0939,7.1142,7.1312,7.1312,7.1109,7.1345,7.2563,7.1718,7.0838,7.0601,7.0567,7.0669,7.0906,7.0939,7.1041,7.1312,7.1312,7.1312,7.1312,7.1312,7.1312,7.1312,7.1312,7.1312,7.1312,7.1785,7.2157,7.2394,7.3375,7.4119,7.4627,7.51,7.5473,5.5352,5.656,5.7484,5.9435,5.9319,5.8669,5.8513,5.7836,5.7239,5.7315,5.7596,5.7974,5.8479,5.9216,6.0089,6.0947,6.2013,6.2842,6.314,6.397,6.453,6.453,6.5228,6.5742,6.5742,6.5264,6.4604,6.3759,6.5228,6.6145,6.6145,6.7687,6.8421,6.8128,6.7552,6.7084,6.6801,6.7884,6.8284,6.7992,6.8754,6.894,6.8589,6.8622,6.9049,6.9709,6.887,6.8327,6.7936,6.7031,6.6274,6.573,6.5967,6.6542,6.7184,6.7184,6.7387,6.7776,6.8816,6.8723,6.8343,6.935,7.0127,7.0601,7.0601,7.1031,7.1422,7.1093,7.0759,7.0381,6.9923,6.9739,6.9666,6.9524,7.006,7.0601,7.0601,7.0973,7.1312,7.1312,7.1312,7.1312,7.1312,7.1751,7.2394,7.3341,7.2935,7.2394,7.2124,7.1853,7.1616,7.1345,7.1312,7.1312,7.1312,7.1312,7.1312,7.1312,7.1312,7.1312,7.1312,7.1548,7.1684,7.1684,7.2428,7.2935,7.3206,7.4153,7.4762,7.4999,7.5473,7.5709,5.4357,5.5818,5.7291,5.8204,5.8962,5.9367,5.8915,5.8192,5.749,5.6974,5.6886,5.7109,5.7753,5.8696,6.0109,6.2428,6.3198,6.3781,6.4644,6.5054,6.5338,6.5375,6.6072,6.6549,6.6549,6.6512,6.6219,6.5558,6.688,6.7724,6.7687,6.9265,6.9779,6.9009,6.739,6.6873,6.7472,6.7605,6.8069,6.8827,6.9584,6.8596,6.6147,6.7869,6.8113,6.7323,6.8012,6.7904,6.7273,6.774,6.7151,6.5933,6.6643,6.7354,6.7963,6.7963,6.8436,6.9006,6.8447,6.825,6.8405,6.9382,6.9672,6.9707,6.9743,6.9743,6.992,7.0591,7.0135,6.9639,7.0286,7.0328,7.0195,7.0229,7.0804,7.1312,7.1312,7.1312,7.1312,7.1312,7.1312,7.1312,7.1379,7.2563,7.351,7.3544,7.4153,7.4322,7.3578,7.2868,7.2191,7.1447,7.1413,7.1413,7.1413,7.1413,7.1413,7.1413,7.1413,7.1413,7.1413,7.209,7.2462,7.2462,7.3172,7.3883,7.4627,7.4661,7.5033,7.5709,7.5709,7.5709,5.578,5.7165,5.8319,5.9781,5.9562,5.8956,5.8821,5.8365,5.7654,5.6612,5.6662,5.648,5.5116,5.7061,5.8798,5.8835,6.1145,6.3284,6.4156,6.4853,6.5521,6.6109,6.688,6.7393,6.7393,6.6843,6.6916,6.7907,6.8348,6.8311,6.7724,6.9779,7.0624,6.9816,6.9392,6.8578,6.7354,6.7992,6.9039,7.0482,7.0698,7.0071,6.8785,6.9742,7.0413,7.0684,7.0167,7.0124,7.043,6.928,6.8571,6.8233,6.8436,6.8639,6.8808,6.8808,6.891,6.9089,6.8948,6.8863,6.8905,6.9199,6.9331,6.9544,7.0136,7.0391,7.0518,7.0577,7.0392,7.0199,7.0269,7.0246,7.0331,7.0906,7.1176,7.1312,7.1312,7.1312,7.1312,7.1312,7.1312,7.1481,7.2022,7.2868,7.368,7.4255,7.4492,7.4322,7.3578,7.3341,7.2935,7.2191,7.2597,7.2935,7.2935,7.2935,7.2935,7.2935,7.2935,7.2935,7.2935,7.3105,7.3206,7.3206,7.395,7.4424,7.4627,7.5168,7.5506,7.5709,7.5709,7.6014,5.6522,5.7896,5.905,5.9973,5.9957,5.9278,5.7824,5.7548,5.6993,5.4795,5.4595,5.4485,5.3696,5.5875,5.7888,5.8147,6.1087,6.3649,6.4494,6.5338,6.5999,6.6439,6.721,6.7687,6.7687,6.7614,6.7944,6.8825,6.8898,6.9009,6.9265,7.0587,7.1101,7.066,6.9908,6.9207,6.8508,6.8435,6.9141,7.0501,7.0057,6.935,6.8451,6.9176,6.994,7.0704,7.0437,7.0599,7.0976,6.9984,6.9383,6.9113,6.9113,6.9316,6.9586,6.9586,6.9789,7.006,7.006,7.006,7.0026,6.9688,6.9442,6.9433,7.0153,7.0222,7.01,7.032,7.0359,7.0396,7.0643,7.0669,7.0804,7.121,7.1312,7.1312,7.1312,7.1312,7.1312,7.1312,7.1582,7.1921,7.2326,7.3003,7.3612,7.4052,7.4119,7.395,7.3544,7.3477,7.3341,7.2935,7.324,7.3477,7.3477,7.3477,7.3477,7.3477,7.3477,7.3477,7.3477,7.3815,7.3984,7.3984,7.4728,7.51,7.51,7.5506,7.5709,7.5709,7.6048,7.6454,5.706,5.8396,5.9511,5.9627,6.0145,5.9792,5.6664,5.6316,5.5728,5.2495,5.183,5.2013,5.2601,5.4876,5.7152,5.8634,6.163,6.4127,6.5154,6.5888,6.6402,6.6623,6.7283,6.7687,6.7687,6.8421,6.8935,6.9045,6.9155,6.9853,7.1219,7.1431,7.1411,7.1259,6.9622,6.911,6.9921,6.878,6.8648,6.9458,6.876,6.7896,6.6981,6.7862,6.8599,6.9282,7.0026,7.0331,7.0331,7.0331,6.9958,6.9383,6.9383,6.9789,7.0331,7.0331,7.0737,7.1312,7.1312,7.1312,7.121,7.0534,6.9857,6.9383,7.0128,6.9823,6.9417,7.0128,7.0331,7.05,7.1142,7.1312,7.1312,7.1312,7.1312,7.1312,7.1312,7.1312,7.1312,7.1312,7.1819,7.2293,7.2394,7.2935,7.3375,7.3477,7.3409,7.3375,7.3477,7.3578,7.3646,7.3646,7.3713,7.3781,7.3781,7.3781,7.3781,7.3781,7.3781,7.3781,7.3781,7.4424,7.4762,7.4762,7.5371,7.5709,7.5709,7.5709,7.5743,7.5879,7.6555,7.6995,5.8665,5.9281,5.9665,6.0396,6.0088,5.9138,5.7224,5.579,5.4101,5.154,5.1022,5.0839,5.0345,5.3261,5.6124,5.7079,5.9942,6.2805,6.5007,6.5411,6.5999,6.732,6.7614,6.7687,6.7687,6.8421,6.9192,6.9853,7.0513,7.0999,7.1321,7.1945,7.1948,7.1168,6.9283,6.878,6.9741,6.8728,6.8266,6.8458,6.9131,6.884,6.7768,6.9337,7.0001,7.0026,7.0804,7.1109,7.1109,7.1109,7.1041,7.0939,7.0939,7.1007,7.1109,7.1109,7.121,7.1312,7.1312,7.1312,7.1312,7.1176,7.0601,7.0128,7.0906,7.0601,7.0161,7.0906,7.1109,7.1142,7.1278,7.1312,7.1312,7.1312,7.1312,7.1312,7.1312,7.1312,7.1312,7.1312,7.1413,7.1684,7.2293,7.2496,7.28,7.3409,7.2969,7.28,7.3409,7.4018,7.4424,7.4424,7.4965,7.5303,7.5303,7.5303,7.5303,7.5303,7.5303,7.5303,7.5303,7.5439,7.5506,7.5506,7.5642,7.5709,7.5709,7.5709,7.6048,7.669,7.6826,7.757,5.9281,5.9819,6.0281,6.0704,6.0297,5.8834,5.5321,5.3674,5.1877,4.8363,4.7976,4.8269,4.8306,5.161,5.462,5.5427,5.8584,6.1851,6.4347,6.5044,6.5888,6.7504,6.7687,6.7687,6.7687,6.8788,6.9669,7.0073,7.1248,7.1945,7.1945,7.1822,7.1573,7.1127,6.9206,6.8685,6.9708,6.8219,6.7708,6.8189,6.8185,6.8114,6.7929,6.9194,6.9936,7.0229,7.0973,7.1312,7.1312,7.1312,7.1312,7.1312,7.1312,7.1312,7.1312,7.1312,7.1312,7.1312,7.1312,7.1312,7.1312,7.1312,7.1075,7.0906,7.165,7.1379,7.0838,7.121,7.1312,7.1312,7.1312,7.1312,7.1312,7.1312,7.1312,7.1312,7.1312,7.1312,7.1312,7.1312,7.1616,7.1988,7.2326,7.2394,7.2529,7.2868,7.2631,7.2529,7.2868,7.3578,7.4018,7.4018,7.4322,7.4559,7.4559,7.4559,7.4559,7.4559,7.4559,7.4728,7.51,7.5134,7.5303,7.5676,7.5709,7.5709,7.5709,7.6115,7.6521,7.6927,7.7705,7.8416,5.9665,6.0281,6.0781,6.0781,6.0365,5.8646,5.3602,5.186,5.01,4.5606,4.5333,4.614,4.6966,5.0158,5.3115,5.4436,5.7446,6.0603,6.3429,6.453,6.5632,6.7247,6.7577,6.7687,6.7687,6.9155,7.011,7.011,7.1398,7.2197,7.2197,7.1127,7.0465,7.0465,6.8798,6.8262,6.9093,6.7576,6.7161,6.7871,6.7161,6.7286,6.8166,6.8808,6.9586,7.0466,7.1075,7.1312,7.1312,7.1312,7.1312,7.1312,7.1312,7.1312,7.1312,7.1312,7.1312,7.1312,7.1312,7.1312,7.1312,7.1312,7.1312,7.1413,7.1988,7.1751,7.1312,7.1312,7.1312,7.1312,7.1312,7.1312,7.1312,7.1312,7.1312,7.1312,7.1312,7.1312,7.1312,7.1312,7.1785,7.2157,7.2157,7.2157,7.2157,7.2157,7.2157,7.2157,7.2157,7.2665,7.3071,7.324,7.3409,7.3477,7.3477,7.3477,7.3477,7.3477,7.3646,7.3984,7.4593,7.4762,7.51,7.5676,7.5709,7.5709,7.5709,7.6521,7.6961,7.7164,7.8483,7.9194,6.0281,6.0742,6.0781,6.0781,6.0132,5.8379,5.4247,5.2039,4.9686,4.5553,4.5333,4.614,4.6966,4.9241,5.2013,5.4987,5.6418,5.851,6.234,6.3649,6.4787,6.6402,6.7247,6.7687,6.7687,6.9155,7.011,7.011,7.0823,7.1223,7.1223,6.9459,6.8458,6.8458,6.7495,6.6946,6.7071,6.6896,6.6854,6.6904,6.6854,6.759,6.8977,6.9079,6.9891,7.121,7.1278,7.1312,7.1312,7.1312,7.1312,7.1312,7.1312,7.1312,7.1312,7.1312,7.1312,7.1312,7.1312,7.1312,7.1312,7.1312,7.1312,7.1312,7.1379,7.1379,7.1312,7.1312,7.1312,7.1312,7.1312,7.1312,7.1312,7.1312,7.1312,7.1312,7.1312,7.1312,7.1312,7.1312,7.1379,7.1413,7.1413,7.1413,7.1413,7.1413,7.1413,7.1413,7.1413,7.1481,7.1751,7.2428,7.3105,7.3477,7.3477,7.3477,7.3477,7.3477,7.4119,7.4559,7.4627,7.5236,7.5642,7.5709,7.5709,7.5709,7.5709,7.6521,7.7232,7.7908,7.872,7.9464,6.0204,6.0781,6.0781,6.0781,5.9369,5.704,5.349,5.0155,4.7095,4.4488,4.3864,4.4268,4.6067,4.7976,5.0362,5.3628,5.5244,5.7152,6.0175,6.1777,6.3209,6.4861,6.5778,6.6623,6.7614,6.9155,7.0513,7.1468,7.1241,7.0832,7.0298,6.8947,6.8189,6.8189,6.7291,6.6812,6.6812,6.6812,6.6812,6.6812,6.7252,6.803,6.9113,6.9553,7.0331,7.1312,7.1312,7.1312,7.1312,7.1312,7.1312,7.1312,7.1312,7.1312,7.1312,7.1312,7.1312,7.1312,7.1312,7.1312,7.1312,7.1312,7.1312,7.1312,7.1312,7.1312,7.1312,7.1312,7.1312,7.1312,7.1312,7.1312,7.1312,7.1312,7.1312,7.1312,7.1312,7.1312,7.1312,7.1312,7.1312,7.1312,7.1312,7.1312,7.1312,7.1312,7.1312,7.1312,7.1312,7.1312,7.1413,7.1718,7.2394,7.3003,7.3443,7.3477,7.3477,7.3477,7.3341,7.3477,7.3916,7.3781,7.3916,7.4356,7.4796,7.5033,7.5033,7.6724,7.7705,7.801,7.9194,7.9938,5.9435,6.0435,6.0757,6.0622,5.8802,5.6118,5.2771,4.901,4.5736,4.3882,4.324,4.3608,4.5553,4.7205,4.9297,5.2344,5.3812,5.5537,5.8437,6.0015,6.1484,6.3135,6.431,6.5485,6.6843,6.8862,7.077,7.2386,7.1635,7.0701,6.9743,6.876,6.8068,6.7787,6.7161,6.6812,6.6812,6.6812,6.6812,6.6812,6.7557,6.8335,6.9113,6.9857,7.0601,7.1312,7.1312,7.1312,7.1312,7.1312,7.1312,7.1312,7.1312,7.1312,7.1312,7.1312,7.1312,7.1312,7.1312,7.1312,7.1312,7.1312,7.1312,7.1312,7.1312,7.1312,7.1312,7.1312,7.1312,7.1312,7.1312,7.1312,7.1312,7.1312,7.1312,7.1312,7.1312,7.1312,7.1312,7.1312,7.1312,7.1312,7.1312,7.1312,7.1312,7.1312,7.1312,7.1379,7.1616,7.165,7.1819,7.2259,7.2766,7.3003,7.2868,7.2834,7.2834,7.2834,7.2766,7.2935,7.3477,7.3409,7.3612,7.4119,7.4661,7.4931,7.4931,7.6995,7.7976,7.801,7.9498,8.0209,5.7857,5.955,6.0671,6.0203,5.8555,5.6036,5.233,4.9195,4.6415,4.3975,4.4121,4.4929,4.5736,4.7205,4.9114,5.161,5.2013,5.3445,5.7446,5.8731,5.9808,6.141,6.3099,6.442,6.5264,6.8238,7.077,7.2386,7.1635,7.0701,6.9743,6.876,6.7787,6.6854,6.6812,6.6812,6.6812,6.6812,6.6812,6.6812,6.7557,6.8335,6.9113,6.9857,7.0601,7.1312,7.1312,7.1312,7.1312,7.1312,7.1312,7.1312,7.1312,7.1312,7.1312,7.1312,7.1312,7.1312,7.1312,7.1312,7.1312,7.1312,7.1312,7.1312,7.1312,7.1312,7.1312,7.1312,7.1312,7.1312,7.1312,7.1312,7.1312,7.1312,7.1312,7.1312,7.1312,7.1312,7.1312,7.1312,7.1312,7.1312,7.1312,7.1312,7.1312,7.1312,7.1312,7.1582,7.2293,7.2394,7.2935,7.4424,7.4593,7.3713,7.1515,7.1345,7.1345,7.1345,7.2699,7.3477,7.3477,7.4897,7.5676,7.5676,7.5676,7.5676,7.5676,7.7232,7.7976,7.801,7.9498,8.0209,5.3462,5.4956,5.5759,5.4499,5.2815,5.1082,4.9363,4.6712,4.4415,4.3662,4.3277,4.3461,4.4819,4.5516,4.7388,5.205,5.2821,5.4032,5.7519,5.9648,6.1043,6.152,6.5007,6.7687,6.8495,7.0,7.1092,7.15,7.1255,7.0398,6.876,6.8381,6.7787,6.6854,6.6812,6.6812,6.6812,6.6812,6.7049,6.7557,6.8335,6.9113,6.9857,7.0635,7.1075,7.1312,7.1312,7.1312,7.1312,7.1312,7.1312,7.1312,7.1312,7.1312,7.1312,7.1312,7.1312,7.1312,7.1312,7.1312,7.1312,7.1312,7.1312,7.1312,7.1312,7.1312,7.1312,7.1312,7.1312,7.1312,7.1312,7.1312,7.1312,7.1312,7.1312,7.1312,7.1312,7.1312,7.1312,7.1312,7.1312,7.1481,7.1954,7.2056,7.2225,7.2732,7.28,7.2868,7.3105,7.3138,7.3308,7.3781,7.3849,7.395,7.4289,7.4322,7.4322,7.4322,7.4289,7.4255,7.4255,7.4221,7.4187,7.4187,7.4695,7.4965,7.4965,7.6995,7.8517,7.9498,7.9972,8.0209,5.0164,5.1935,5.2743,5.1864,5.0304,4.8663,4.7384,4.5227,4.3404,4.3094,4.2873,4.313,4.4434,4.4966,4.6507,5.0692,5.1646,5.3078,5.6602,5.8914,6.0823,6.2365,6.5778,6.8312,6.9055,7.0091,7.0707,7.0563,7.0568,6.9883,6.8266,6.8189,6.7787,6.6854,6.6812,6.6812,6.6812,6.6812,6.7049,6.7489,6.8571,6.935,6.9823,7.0838,7.1312,7.1312,7.1312,7.1312,0.0,7.1312,7.1312,7.1312,7.1312,7.1312,7.1312,7.1312,7.1312,7.1312,7.1312,7.1312,7.1312,7.1312,7.1312,7.1312,7.1312,7.1312,7.1312,7.1312,7.1312,7.1312,7.1312,7.1312,7.1312,7.1312,7.1312,7.1312,7.1312,7.1548,7.1718,7.1718,7.1954,7.2293,7.2732,7.28,7.2969,7.3409,7.3477,7.3578,7.3883,7.3916,7.4018,7.4289,7.4322,7.4695,7.5608,7.5202,7.4864,7.4864,7.4695,7.4627,7.4627,7.4424,7.4322,7.4322,7.4796,7.5033,7.5033,7.7029,7.8754,8.0209,8.0209,8.0209,0.0,4.9778,5.0888,5.12,4.9834,4.7988,4.6156,4.456,0.0,4.254,4.3018,4.3791,4.4709,4.5406,4.6434,4.8343,4.9334,5.1263,5.5229,5.7299,5.9942,6.3943,6.5815,6.7021,6.7589,6.9079,6.9878,6.9601,6.9566,6.9168,6.815,6.8107,6.7708,6.6812,6.6812,6.6812,6.6812,6.6812,6.6846,6.6914,6.8402,6.9113,6.9214,7.0669,7.1312,7.1312,7.1312,7.1312,7.1312,7.1312,7.1312,7.1312,7.1312,7.1312,7.1312,7.1312,7.1312,7.1312,7.1312,7.1312,7.1312,7.1312,7.1312,7.1312,7.1312,7.1312,7.1312,7.1312,7.1312,7.1312,7.1312,7.1312,7.1312,7.1312,7.1312,7.1312,7.1312,7.1887,7.2394,7.2394,7.3003,7.351,7.3544,7.3578,7.3578,7.3646,7.3646,7.3883,7.4593,7.4695,7.4965,7.5642,7.5709,7.5709,7.5709,7.4424,7.3646,7.3646,7.4289,7.4695,7.4695,7.5337,7.5709,7.5709,7.5709,7.5743,7.5879,7.7299,7.8754,8.0209,8.0209,8.0209,4.1939,0.0,4.5029,4.4247,4.3488,4.3234,0.0,4.3492,4.2791,4.3447,4.355,4.4121,4.6159,4.5682,4.6544,5.1259,5.2234,5.3555,5.6969,6.0456,6.3943,6.7357,6.8641,6.9287,6.9317,7.0229,7.0219,6.8685,6.8534,6.8146,6.7202,6.712,6.7029,6.6812,6.6812,6.6812,6.6812,6.6812,6.7083,6.7658,6.8639,6.9383,6.9958,7.0872,7.1312,7.1312,7.1312,7.1312,7.1312,7.1312,7.1312,7.1312,7.1312,7.1312,7.1312,7.1312,7.1312,7.1312,7.1312,7.1312,7.1312,7.1312,7.1312,7.1312,7.1312,7.1312,7.1312,7.1312,7.1312,7.1312,7.1312,7.1312,7.1312,7.1312,7.1312,7.1312,7.1312,7.1887,7.2394,7.2394,7.3003,7.368,7.4255,7.4356,7.4525,7.51,7.5168,7.5236,7.5405,7.5439,7.5506,7.5676,7.5709,7.5709,7.5709,7.5371,7.5168,7.5168,7.5337,7.5439,7.5439,7.5608,7.5709,7.5709,7.5709,7.6284,7.7435,7.7807,7.8754,8.0209,8.0209,8.0209,3.8865,4.1292,4.3462,4.3253,4.3236,4.3431,4.4135,4.3684,4.314,4.3409,4.3483,4.4011,4.5682,4.5902,4.7039,5.0912,5.2784,5.539,6.0126,6.3649,6.6512,6.8641,6.9926,7.0128,6.8815,6.9754,6.9672,6.7708,6.7582,6.7332,6.6812,6.6812,6.6812,6.6812,6.6812,6.6812,6.6812,6.6812,6.7015,6.7421,6.8199,6.8944,6.9722,7.0466,7.0973,7.1312,7.1312,7.1312,7.1312,7.1312,7.1312,7.1312,7.1312,7.1312,7.1312,7.1312,7.1312,7.1312,7.1312,7.1075,7.0804,7.0804,7.0567,7.0297,7.0297,7.0297,7.0432,7.1109,7.1312,7.1312,7.1312,7.1312,7.1312,7.1312,7.1312,7.1312,7.1312,7.2157,7.2902,7.2902,7.3747,7.4627,7.5033,7.51,7.5236,7.5642,7.5709,7.5709,7.5709,7.5709,7.5709,7.5709,7.5709,7.5709,7.5709,7.5709,7.5709,7.5709,7.5709,7.5709,7.5709,7.5709,7.5709,7.5709,7.5709,7.6454,7.7976,7.7976,7.8754,8.0209,8.0209,8.0209,3.8049,4.1284,4.456,4.4489,4.4938,4.5242,4.4449,4.4045,4.3677,4.3154,4.3384,4.4121,4.5553,4.6709,4.8196,5.0345,5.3298,5.7373,6.3246,6.6072,6.7871,6.8788,7.022,7.0132,6.7722,6.8823,6.8908,6.6946,6.6812,6.6812,6.6812,6.6812,6.6812,6.6812,6.6812,6.6812,6.6812,6.6812,6.6812,6.6812,6.7557,6.8267,6.8944,6.9688,7.0364,7.0973,7.0973,7.1041,7.1142,7.1142,7.121,7.1312,7.1176,7.1142,7.1142,7.1007,7.0973,7.0973,7.0973,7.0567,7.0026,7.0026,6.962,6.9113,6.9113,6.9113,6.935,7.0635,7.0973,7.0973,7.0973,7.0973,7.1007,7.1109,7.1142,7.1176,7.1278,7.236,7.3341,7.3477,7.4593,7.5574,7.5676,7.5709,7.5709,7.5709,7.5709,7.5709,7.5709,7.5709,7.5709,7.5709,7.5709,7.5709,7.5709,7.5709,7.5709,7.5709,7.5709,7.5709,7.5709,7.5709,7.5709,7.5709,7.5709,7.6454,7.7976,7.7976,7.8754,8.0209,8.0209,8.0209,4.0671,4.4566,4.7053,4.2581,4.2623,4.3591,4.2976,4.2913,4.3206,4.4073,4.4395,4.581,5.0105,4.9958,5.0618,5.4987,5.7813,6.0566,6.3649,6.5595,6.7247,6.8715,6.9706,6.9798,6.843,6.9177,6.8908,6.6946,6.6812,6.6812,6.6812,6.6812,6.6812,6.6812,6.6812,6.6812,6.6812,6.6812,6.6812,6.6812,6.7557,6.7963,6.8098,6.891,6.9316,6.9451,6.9451,6.9789,7.0364,7.0364,7.0737,7.1244,7.0601,7.0364,7.0297,6.9688,6.9451,6.9451,6.9451,6.935,6.9282,6.9282,6.918,6.9113,6.9113,6.9113,6.9147,6.9383,6.9451,6.9451,6.9451,6.9451,6.9586,7.0229,7.0364,7.0534,7.1176,7.1988,7.2732,7.3375,7.4187,7.4965,7.5574,7.5709,7.5709,7.5709,7.5709,7.5709,7.5709,7.5709,7.5709,7.5709,7.5709,7.5709,7.5709,7.5709,7.5709,7.5709,7.5709,7.5709,7.5709,7.5709,7.5709,7.5709,7.5709,7.6454,7.7976,7.7976,7.8754,8.0209,8.0209,8.0209,3.9906,4.2919,4.5262,4.4319,4.6757,4.9335,4.905,4.8538,4.8147,4.8213,4.8333,4.9064,5.1287,5.229,5.4274,5.8694,6.108,6.3099,6.5118,6.6769,6.8091,6.8825,7.0,7.0164,6.8744,6.9278,6.9095,6.7628,6.7078,6.6812,6.6812,6.6812,6.6812,6.6812,6.6812,6.6812,6.6812,6.6812,6.6812,6.6812,6.7151,6.7523,6.7895,6.8267,6.8707,6.9113,6.9113,6.9282,6.962,6.962,6.9823,7.0094,6.9722,6.962,6.9553,6.9214,6.9113,6.9113,6.9113,6.8808,6.8436,6.8436,6.8199,6.7861,6.7861,6.7861,6.7861,6.7861,6.847,6.9113,6.9113,6.9113,6.918,6.9519,6.9891,7.0297,7.0635,7.1616,7.2631,7.3341,7.4086,7.483,7.5574,7.5709,7.5709,7.5709,7.5709,7.5709,7.5709,7.5709,7.5709,7.5709,7.5709,7.5709,7.5709,7.5709,7.5709,7.5709,7.5709,7.5709,7.5709,7.5709,7.5709,7.5709,7.5709,7.6454,7.7976,7.7976,7.8754,8.0209,8.0209,8.0209,3.9645,4.1807,4.4141,4.7069,5.0279,5.2895,5.3472,5.2663,5.175,5.1574,5.1646,5.1894,5.2326,5.4769,5.7776,6.108,6.3172,6.4861,6.6292,6.7724,6.8605,6.8605,7.0036,7.042,6.8853,6.9303,6.9277,6.8266,6.7332,6.6812,6.6812,6.6812,6.6812,6.6812,6.6812,6.6812,6.6812,6.6812,6.6812,6.6812,6.6812,6.7117,6.7658,6.7658,6.7996,6.8571,6.8571,6.8673,6.8808,6.8808,6.8944,6.9079,6.8876,6.8707,6.8571,6.8571,6.8571,6.8571,6.8571,6.8166,6.7658,6.7658,6.7252,6.6812,6.6812,6.6812,6.6812,6.6812,6.7658,6.8571,6.8571,6.8571,6.8673,6.9011,6.9519,7.0026,7.0364,7.1345,7.2428,7.3308,7.395,7.4627,7.554,7.5709,7.5709,7.5709,7.5709,7.5777,7.5946,7.598,7.6048,7.6217,7.6217,7.6217,7.6217,7.6217,7.6217,7.6217,7.5879,7.5709,7.5709,7.5709,7.5709,7.5709,7.5709,7.6454,7.7976,7.7976,7.8754,8.0209,8.0209,8.0209,4.2249,4.4403,4.6729,4.9682,4.8933,4.8086,5.0433,5.0046,4.9695,5.1479,5.2257,5.3163,5.4975,5.7909,6.0382,6.141,6.3649,6.5521,6.6366,6.7247,6.7797,6.7797,6.9192,6.9798,6.878,6.9303,6.9277,6.8266,6.7332,6.6812,6.6812,6.6812,6.6812,6.6812,6.6812,6.6812,6.6812,6.6812,6.6812,6.6812,6.6812,6.6846,6.688,6.688,6.6914,6.6981,6.6981,6.7354,6.7996,6.7996,6.8436,6.9045,6.8267,6.7557,6.6981,6.6981,6.6981,6.6981,6.6981,6.6948,6.688,6.688,6.6846,6.6812,6.6812,6.6812,6.6812,6.6812,6.688,6.6981,6.6981,6.6981,6.7354,6.8774,6.9147,6.9553,7.0939,7.1312,7.1819,7.3206,7.3544,7.4018,7.5439,7.5709,7.5709,7.5709,7.5709,7.598,7.6724,7.6826,7.7063,7.7739,7.7807,7.7807,7.7807,7.7807,7.7807,7.7807,7.6487,7.5709,7.5709,7.5709,7.5709,7.5709,7.5709,7.6454,7.7976,7.7976,7.8754,8.0209,8.0209,8.0209,4.083,4.3218,4.5822,4.9067,4.9933,5.0818,5.3905,5.4677,5.5101,5.6384,5.7001,5.7486,5.8161,5.9868,6.141,6.2218,6.4016,6.5595,6.6402,6.7173,6.7687,6.7687,6.9119,6.9961,6.961,7.0157,7.016,6.9205,6.8223,6.7414,6.6854,6.6812,6.6812,6.6812,6.6812,6.6812,6.6812,6.6812,6.6812,6.6812,6.6812,6.6812,6.6812,6.6812,6.6812,6.6812,6.6812,6.6981,6.7218,6.7218,6.7421,6.7658,6.7354,6.7049,6.6812,6.6812,6.6812,6.6812,6.6812,6.6812,6.6812,6.6812,6.6812,6.6812,6.6812,6.6812,6.6914,6.7354,6.7489,6.7489,6.7489,6.7489,6.776,6.8842,6.9451,6.9925,7.05,7.0973,7.1751,7.3206,7.3477,7.4119,7.6115,7.6454,7.6589,7.7063,7.713,7.7232,7.7536,7.757,7.7671,7.7942,7.7976,7.7976,7.7976,7.7976,7.7976,7.7976,7.7435,7.713,7.713,7.713,7.713,7.713,7.713,7.7638,7.8686,7.8686,7.9194,8.0209,8.0209,8.0209,4.1247,4.297,4.524,4.9202,5.0471,5.1818,5.606,5.7242,5.7901,5.9381,5.9807,5.9874,5.9898,6.0752,6.1737,6.2646,6.4237,6.5595,6.6402,6.7173,6.7687,6.7687,6.9119,7.011,7.011,7.0726,7.0832,7.0196,6.9241,6.8262,6.7291,6.7209,6.712,6.6812,6.6812,6.6812,6.6812,6.6812,6.6812,6.6812,6.6812,6.6812,6.6812,6.6812,6.6812,6.6812,6.6812,6.6812,6.6812,6.6812,6.6812,6.6812,6.6812,6.6812,6.6812,6.6812,6.6812,6.6812,6.6812,6.6812,6.6812,6.6812,6.6812,6.6812,6.6812,6.6812,6.6948,6.7692,6.7895,6.7996,6.8504,6.8436,6.847,6.9248,6.9823,7.0263,7.05,7.0939,7.1751,7.3206,7.3477,7.4119,7.6183,7.6724,7.7063,7.757,7.7841,7.8077,7.8314,7.8348,7.8416,7.8653,7.8686,7.8686,7.8686,7.8686,7.8686,7.8686,7.8686,7.8483,7.801,7.7976,7.7976,7.7976,7.7976,7.8348,7.9126,7.9126,7.9498,8.0209,8.0209,8.0209,4.4239,4.4278,4.5547,5.0615,5.0,4.974,5.5675,5.6329,5.6575,5.9502,5.9744,5.9512,5.9838,6.0592,6.1493,6.261,6.42,6.5595,6.6402,6.7173,6.7687,6.7687,6.9119,7.011,7.011,7.0726,7.1127,7.1095,7.023,6.9277,6.8227,6.8189,6.7787,6.6854,6.6812,6.6812,6.6812,6.6812,6.6812,6.6812,6.6812,6.6812,6.6812,6.6812,6.6812,6.6812,6.6812,6.6812,6.6812,6.6812,6.6812,6.6812,6.6812,6.6812,6.6812,6.6812,6.6812,6.6812,6.6812,6.6812,6.6812,6.6812,6.6812,6.6812,6.6812,6.6812,6.6981,6.7692,6.7929,6.8267,6.9789,6.9654,6.9316,7.0026,7.0195,7.0398,7.1142,7.1312,7.1751,7.3206,7.3477,7.395,7.5473,7.6386,7.6927,7.6927,7.7536,7.828,7.9025,7.9126,7.9397,8.0107,8.0209,8.0209,8.0209,8.0209,8.0209,8.0209,8.0209,7.9532,7.8077,7.801,7.801,7.801,7.801,7.8382,7.9126,7.9126,7.9498,8.0209,8.0209,8.0209,4.0785,4.3816,4.7355,4.8856,5.2702,5.6434,5.7627,5.7703,5.8296,6.0968,6.1578,6.1663,6.1776,6.2389,6.2947,6.3311,6.4463,6.5595,6.6402,6.7173,6.7687,6.7687,6.9119,7.011,7.011,7.1304,7.1542,7.023,7.0468,6.9953,6.8305,6.8873,6.8798,6.7827,6.7787,6.7461,6.6812,6.6812,6.6812,6.6812,6.6812,6.6812,6.6812,6.6812,6.6812,6.6812,6.6812,6.6812,6.6812,6.6812,6.6812,6.6812,6.6812,6.6812,6.6812,6.6812,6.6812,6.6812,6.6812,6.6812,6.6812,6.6812,6.6812,6.6812,6.6812,6.7184,6.776,6.8538,6.9113,6.9722,7.0737,7.0804,7.0703,7.0939,7.0973,7.1041,7.1278,7.1312,7.1751,7.3206,7.3477,7.4153,7.6183,7.7164,7.7841,7.8382,7.9092,7.9634,7.9837,7.987,7.9972,8.0175,8.0209,8.0209,8.0209,8.0209,8.0209,8.0209,8.0209,8.0006,7.9566,7.9532,7.9532,7.9532,7.9532,7.9667,7.987,7.987,8.0006,8.0209,8.0209,8.0209,4.4432,4.7663,5.1048,5.2741,5.5588,5.8204,5.9088,5.955,6.0242,6.1793,6.2503,6.2911,6.3032,6.3236,6.3418,6.3578,6.4585,6.5485,6.5962,6.699,6.7687,6.7687,6.9119,7.011,7.011,7.1578,7.2041,7.0901,7.1354,7.0962,6.9423,6.9918,6.9637,6.8227,6.8189,6.7747,6.6812,6.6812,6.6812,6.6812,6.6812,6.6812,6.6812,6.6812,6.6812,6.6812,6.6812,6.6812,6.6812,6.6812,6.6812,6.6812,6.6812,6.6812,6.6812,6.6812,6.6812,6.6812,6.6812,6.6812,6.6812,6.6812,6.6812,6.688,6.7151,6.7557,6.8132,6.9214,6.9857,7.0364,7.1109,7.1312,7.1312,7.1312,7.1312,7.1312,7.1312,7.1312,7.1751,7.3206,7.3477,7.4119,7.6082,7.7063,7.7705,7.8179,7.8855,7.9329,7.9329,7.9566,7.9769,7.9769,8.004,8.0209,8.0209,8.0209,8.0209,8.0209,8.0209,8.0209,8.0209,8.0209,8.0209,8.0209,8.0209,8.0209,8.0209,8.0209,8.0209,8.0209,8.0209,8.0209,5.1433,5.3318,5.5357,5.9319,5.8242,5.6973,6.0089,6.1485,6.2101,6.2101,6.2781,6.3514,6.3749,6.3465,6.3313,6.3568,6.4585,6.5301,6.5301,6.6696,6.7687,6.7687,6.9119,7.011,7.011,7.1578,7.2467,7.238,7.2467,7.2071,7.1159,7.1127,7.0263,6.8381,6.8227,6.7747,6.6812,6.6812,6.6812,6.6812,6.6812,6.6812,6.6812,6.6812,6.6812,6.6812,6.6812,6.6812,6.6812,6.6812,6.6812,6.6812,6.6812,6.6812,6.6812,6.6812,6.6812,6.6812,6.6812,6.6812,6.6812,6.6812,6.6812,6.6948,6.7692,6.7963,6.8335,6.9789,7.0229,7.0432,7.1142,7.1312,7.1312,7.1312,7.1312,7.1312,7.1312,7.1312,7.1751,7.3206,7.3477,7.395,7.5439,7.6352,7.6927,7.6995,7.757,7.7976,7.7976,7.8653,7.9126,7.9126,7.9769,8.0209,8.0209,8.0209,8.0209,8.0209,8.0209,8.0209,8.0209,8.0209,8.0209,8.0209,8.0209,8.0209,8.0209,8.0209,8.0209,8.0209,8.0141,8.0141,4.5086,4.9279,5.401,5.6242,5.8242,5.9896,6.0627,6.1485,6.2101,6.2101,6.3281,6.4206,6.3863,6.3975,6.4009,6.368,6.4585,6.5301,6.5301,6.6696,6.7687,6.7687,6.9119,7.011,7.011,7.1578,7.2197,7.148,7.2071,7.2071,7.1159,7.1127,7.0568,6.9386,6.861,6.7747,6.6812,6.6812,6.6812,6.6812,6.6812,6.6812,6.6812,6.6812,6.6812,6.6812,6.6812,6.6812,6.6812,6.6812,6.6812,6.6812,6.6812,6.6812,6.6812,6.6812,6.6812,6.6812,6.6812,6.6812,6.6812,6.6812,6.6812,6.6948,6.7692,6.8335,6.9011,6.9925,7.0635,7.1109,7.1278,7.1312,7.1312,7.1312,7.1312,7.1312,7.1312,7.1312,7.1751,7.3206,7.3477,7.395,7.5439,7.6352,7.7096,7.7671,7.7874,7.7976,7.7976,7.8653,7.9126,7.9126,7.9769,8.0209,8.0209,8.0209,8.0209,8.0209,8.0209,8.0209,8.0209,8.0209,8.0209,8.0209,8.0209,8.0209,8.0209,8.0209,8.0209,8.0175,7.9634,7.9667,4.6817,5.0818,5.4511,5.7434,5.9165,6.0165,6.0165,6.0858,6.1485,6.1485,6.3128,6.4449,6.3902,6.4127,6.4217,6.368,6.4585,6.5301,6.5301,6.6696,6.7687,6.7687,6.9119,7.011,7.011,7.1578,7.2285,7.1824,7.2226,7.2285,7.1794,7.1318,7.0668,6.9743,6.8723,6.7747,6.6812,6.6812,6.6812,6.6812,6.6812,6.6812,6.6812,6.6812,6.6812,6.6812,6.6812,6.6812,6.6812,6.6812,6.6812,6.6812,6.6812,6.6812,6.6812,6.6812,6.6812,6.6812,6.6812,6.6812,6.6812,6.6812,6.6812,6.7015,6.8132,6.8774,6.9316,7.0432,7.1007,7.1312,7.1312,7.1312,7.1312,7.1312,7.1312,7.1312,7.1312,7.1312,7.1751,7.3206,7.3477,7.395,7.5439,7.6048,7.6454,7.6826,7.6893,7.6893,7.6893,7.7874,7.8585,7.8585,7.9566,8.0209,8.0209,8.0209,8.0209,8.0209,8.0209,8.0209,8.0209,8.0209,8.0209,8.0209,8.0209,8.0209,8.0209,8.0209,8.0209,8.0175,7.9803,7.9837,4.9048,5.2702,5.5511,5.9742,6.0242,5.9665,5.955,6.0165,6.0742,6.0589,6.2704,6.4423,6.3771,6.4075,6.4178,6.355,6.4512,6.5301,6.5301,6.6696,6.7687,6.7687,6.9119,7.011,7.011,7.1578,7.2496,7.2496,7.2496,7.2438,7.2255,7.1386,7.0398,6.9458,6.8493,6.7582,6.6812,6.6812,6.6812,6.6812,6.6812,6.6812,6.6812,6.6812,6.6812,6.6812,6.6812,6.6812,6.6812,6.6812,6.6812,6.6812,6.6812,6.6812,6.6812,6.6812,6.6812,6.6812,6.6812,6.6812,6.6812,6.6812,6.6914,6.7252,6.8673,6.918,6.9586,7.0939,7.1312,7.1312,7.1312,7.1312,7.1312,7.1312,7.1312,7.1312,7.1312,7.1413,7.1887,7.324,7.368,7.4255,7.5473,7.5709,7.5709,7.5709,7.5709,7.5709,7.5709,7.7029,7.7976,7.7976,7.9329,8.0209,8.0209,8.0209,8.0209,8.0209,8.0209,8.0209,8.0209,8.0209,8.0209,8.0209,8.0209,8.0209,8.0209,8.0209,8.0209,8.0209,8.0073,8.0073,4.1708,4.8202,5.5511,5.9742,6.0704,6.0435,5.9665,6.0165,6.0589,5.9819,6.232,6.4304,6.3376,6.3841,6.4059,6.3086,6.4251,6.5301,6.5301,6.6696,6.7687,6.7687,6.9119,7.011,7.011,7.1578,7.2496,7.2496,7.2496,7.2167,7.1318,7.04,6.9422,6.842,6.7461,6.6904,6.6812,6.6812,6.6812,6.6812,6.6812,6.6812,6.6812,6.6812,6.6812,6.6812,6.6812,6.6812,6.6812,6.6812,6.6812,6.6812,6.6812,6.6812,6.6812,6.6812,6.6812,6.6812,6.6812,6.6812,6.6812,6.6812,6.7252,6.7929,6.8842,6.9553,7.0229,7.1075,7.1312,7.1312,7.1312,7.1312,7.1312,7.1312,7.1312,7.1312,7.1312,7.1819,7.2496,7.3341,7.4525,7.5473,7.5676,7.5709,7.5709,7.5709,7.5709,7.5709,7.5709,7.7029,7.7976,7.7976,7.9329,8.0209,8.0209,8.0209,8.0209,8.0209,8.0209,8.0209,8.0209,8.0209,8.0209,8.0209,8.0209,8.0209,8.0209,8.0209,8.0209,8.0175,7.9532,7.96,4.2431,4.951,5.5972,5.9242,6.0089,5.9973,5.9588,5.9819,6.0089,6.0204,6.182,6.3025,6.2476,6.3483,6.4039,6.2965,6.4237,6.5301,6.5301,6.6696,6.7687,6.7687,6.9119,7.011,7.011,7.1578,7.2496,7.2496,7.2383,7.1983,7.1127,7.0097,6.9136,6.8223,6.7291,6.6812,6.6812,6.6812,6.6812,6.6812,6.6812,6.6812,6.6812,6.6812,6.6812,6.6812,6.6812,6.6812,6.6812,6.6812,6.6812,6.6812,6.6812,6.6812,6.6812,6.6812,6.6812,6.6812,6.6812,6.6812,6.6812,6.6812,6.732,6.8064,6.8876,6.962,7.0331,7.1109,7.1312,7.1312,7.1312,7.1312,7.1312,7.1312,7.1312,7.1312,7.1312,7.1887,7.2732,7.3883,7.4965,7.5709,7.5709,7.5709,7.5709,7.5709,7.5709,7.5709,7.5709,7.7029,7.7976,7.7976,7.9329,8.0209,8.0209,8.0209,8.0209,8.0209,8.0209,8.0209,8.0209,8.0209,8.0209,8.0209,8.0209,8.0209,8.0209,8.0209,8.0209,8.0175,7.987,7.9904,4.2739,4.8471,5.2856,5.7165,5.8242,5.8434,5.9319,5.9665,5.9935,6.0396,6.1331,6.2029,6.1853,6.3031,6.3794,6.2929,6.4237,6.5301,6.5301,6.6696,6.7687,6.7687,6.8935,6.9889,7.0073,7.1358,7.2275,7.2496,7.2154,7.1578,7.0803,6.9693,6.8729,6.7866,6.7161,6.6812,6.6812,6.6812,6.6812,6.6812,6.6812,6.6812,6.6812,6.6812,6.6812,6.6812,6.6812,6.6812,6.6812,6.6812,6.6812,6.6812,6.6812,6.6812,6.6812,6.6812,6.6812,6.6812,6.6812,6.6812,6.6812,6.6812,6.7455,6.8335,6.891,6.9755,7.0601,7.1142,7.1312,7.1312,7.1312,7.1312,7.1312,7.1312,7.1312,7.1413,7.1785,7.2293,7.3105,7.4593,7.5337,7.5709,7.5709,7.5709,7.5709,7.5709,7.5709,7.5709,7.5709,7.7029,7.7976,7.7976,7.9329,8.0209,8.0209,8.0209,8.0107,7.9938,7.9938,7.9837,7.9634,7.9634,7.9634,7.9634,7.9634,7.9735,7.9938,7.9938,7.9837,7.9634,8.004,8.0107,3.8938,4.1054,4.3478,5.251,5.4741,5.5588,5.8781,6.0127,6.0512,5.9742,6.0935,6.2029,6.1853,6.256,6.3098,6.2855,6.4237,6.5301,6.5301,6.6696,6.7687,6.7687,6.8458,6.9265,7.0036,7.0881,7.1688,7.2459,7.1677,7.0737,6.9849,6.8795,6.7822,6.6904,6.6812,6.6812,6.6812,6.6812,6.6812,6.6812,6.6812,6.6812,6.6812,6.6812,6.6812,6.6812,6.6812,6.6812,6.6812,6.6812,6.6812,6.6812,6.6812,6.6812,6.6812,6.6812,6.6812,6.6812,6.6812,6.6812,6.6812,6.6812,6.7827,6.9045,6.9079,7.0094,7.1278,7.1312,7.1312,7.1312,7.1312,7.1312,7.1312,7.1312,7.1312,7.1684,7.3071,7.3409,7.3883,7.5371,7.5676,7.5709,7.5709,7.5709,7.5709,7.5709,7.5709,7.5709,7.5709,7.7029,7.7976,7.7976,7.9329,8.0209,8.0209,8.0209,7.9904,7.9228,7.916,7.8855,7.8145,7.8111,7.8111,7.8111,7.8111,7.845,7.916,7.916,7.8788,7.8145,7.9532,7.9837,3.7507,4.0085,4.2662,4.824,5.2087,5.4934,5.6665,5.9011,6.0704,6.0396,6.0819,6.1223,6.1059,6.2145,6.3023,6.2818,6.3759,6.4714,6.5228,6.6256,6.71,6.7614,6.8421,6.9229,7.0,7.0844,7.1651,7.2459,7.1532,7.0556,6.9743,6.863,6.7638,6.6812,6.6812,6.6812,6.6812,6.6812,6.6812,6.6812,6.6812,6.6812,6.6812,6.6812,6.6812,6.6812,6.6812,6.6812,6.6812,6.6812,6.6812,6.6812,6.6812,6.6812,6.6812,6.6812,6.6812,6.6812,6.6812,6.6812,6.688,6.7354,6.8233,6.918,6.9654,7.05,7.1312,7.1312,7.1312,7.1312,7.1312,7.1312,7.1312,7.1312,7.1312,7.1582,7.2563,7.3172,7.3781,7.4796,7.5371,7.5709,7.5709,7.5709,7.5709,7.5709,7.5709,7.5709,7.5709,7.6623,7.7468,7.7942,7.8889,7.9701,8.0175,7.9769,7.9397,7.9126,7.8653,7.828,7.801,7.7976,7.7976,7.7976,7.7536,7.7638,7.8382,7.8382,7.8247,7.801,7.8517,7.8889,3.4891,3.7123,3.9577,4.4432,4.774,5.0894,5.5164,5.7473,5.9088,6.0512,6.0659,6.0592,6.0588,6.1375,6.2109,6.2352,6.3356,6.4383,6.5191,6.5999,6.6806,6.7577,6.8164,6.8825,6.9633,7.044,7.1097,7.1603,7.1192,7.0381,6.9276,6.8468,6.763,6.6846,6.6812,6.6812,6.6812,6.6812,6.6812,6.6812,6.6812,6.6812,6.6812,6.6812,6.6812,6.6812,6.6812,6.6812,6.6812,6.6812,6.6812,6.6812,6.6812,6.6812,6.6812,6.6812,6.6812,6.6846,6.7083,6.7184,6.7286,6.8064,6.8842,6.9553,7.0026,7.0737,7.1312,7.1312,7.1312,7.1312,7.1312,7.1312,7.1312,7.1312,7.1312,7.1447,7.1921,7.2597,7.3341,7.4086,7.4627,7.5033,7.5303,7.5337,7.5405,7.5676,7.5709,7.5709,7.5709,7.6386,7.7096,7.757,7.828,7.8923,7.9431,7.9025,7.8619,7.8382,7.7908,7.7502,7.7232,7.7232,7.7232,7.7232,7.6758,7.6724,7.7232,7.7502,7.7638,7.7638,7.8145,7.8754,0.0,0.0,0.0,4.0969,4.1623,4.3286,5.4136,5.5395,5.5472,5.9731,6.0238,6.0045,6.0481,6.0188,6.0252,6.136,6.2915,6.431,6.5154,6.5962,6.6769,6.7577,6.7687,6.8017,6.8825,6.9596,7.0018,6.9963,7.0658,7.0227,6.8343,6.8189,6.7747,6.6812,6.6812,6.6812,6.6812,6.6812,6.6812,6.6812,6.6812,6.6812,6.6812,6.6812,6.6812,6.6812,6.6812,6.6812,6.6812,6.6812,6.6812,6.6812,6.6812,6.6812,6.6846,6.6846,6.688,6.6981,6.7692,6.7929,6.8064,6.8876,6.962,7.0195,7.0229,7.0737,7.1312,7.1312,7.1312,7.1312,7.1312,7.1312,7.1312,7.1312,7.1312,7.1312,7.1312,7.1853,7.2597,7.3308,7.3477,7.3713,7.4458,7.4593,7.4864,7.5574,7.5676,7.5709,7.5709,7.6386,7.686,7.6893,7.7536,7.7976,7.7976,7.7976,7.7638,7.6961,7.6893,7.6521,7.5743,7.5709,7.5709,7.5709,7.5709,7.5709,7.5709,7.6487,7.686,7.6893,7.8382,7.9431,3.1352,0.0,0.0,0.0,0.0,0.0,4.5817,4.8009,5.044,5.5543,5.6025,5.6314,5.8765,5.9614,5.9881,5.989,6.1227,6.2768,6.4237,6.5118,6.5925,6.6733,6.7357,6.8017,6.8825,6.9119,6.9696,7.0822,7.0501,6.9959,6.9315,6.7945,6.7071,6.6812,6.6812,6.6812,6.6812,6.6812,6.6812,6.6812,6.6812,6.6812,6.6812,6.6812,6.6812,6.6812,6.6812,6.6812,6.6812,6.6812,6.6812,6.6812,6.6812,6.7151,6.759,6.759,6.7963,6.8504,6.8707,6.8774,6.8876,6.9654,7.0026,7.0297,7.0838,7.1142,7.1312,7.1312,7.1312,7.1312,7.1312,7.1312,7.1312,7.1312,7.1312,7.1312,7.1312,7.1481,7.1819,7.2563,7.3138,7.3544,7.3747,7.4255,7.4695,7.4864,7.5371,7.5709,7.5709,7.5879,7.6251,7.6826,7.7063,7.7401,7.7942,7.7502,7.713,7.6927,7.6352,7.5946,7.5709,7.5709,7.5709,7.5709,7.5709,7.5709,7.5709,7.5912,7.6014,7.6048,7.7063,7.7638,3.1968,3.2199,3.2622,3.4314,0.0,0.0,4.4355,4.6355,4.8835,5.5719,5.6592,5.6673,5.8367,5.8937,5.9139,5.9181,6.0015,6.13,6.3282,6.4273,6.5228,6.6366,6.6916,6.7504,6.8311,6.8715,6.9273,7.0135,7.038,7.0459,7.0261,6.8454,6.7373,6.7373,6.6988,6.6812,6.6812,6.6812,6.6812,6.6812,6.6812,6.6812,6.6812,6.6812,6.6812,6.6812,6.6812,6.6812,6.6812,6.6812,6.6812,6.6812,6.6812,6.7252,6.7895,6.7895,6.8402,6.9147,6.9451,6.9553,6.9688,7.0432,7.0669,7.0737,7.1176,7.1312,7.1312,7.1312,7.1312,7.1312,7.1312,7.1312,7.1312,7.1312,7.1312,7.1312,7.1312,7.1312,7.1447,7.1853,7.2293,7.2665,7.2969,7.3409,7.3883,7.4525,7.4965,7.5337,7.5676,7.5709,7.5879,7.6352,7.6386,7.6555,7.6995,7.6657,7.6386,7.6386,7.5946,7.5709,7.5709,7.5709,7.5709,7.5709,7.5709,7.5913,7.6358,7.6358,7.6575,7.6871,7.7202,7.7367,3.2929,3.2968,3.3276,3.4808,3.4122,0.0,4.5355,4.6509,4.7837,5.6112,5.7475,5.7181,5.715,5.6953,5.7005,5.7717,5.8304,5.9588,6.2291,6.3392,6.453,6.6035,6.6402,6.6769,6.7504,6.8274,6.8739,6.8723,7.0244,7.1142,7.1123,6.9242,6.8189,6.8189,6.7291,6.6812,6.6812,6.6812,6.6812,6.6812,6.6812,6.6812,6.6812,6.6812,6.6812,6.6812,6.6812,6.6812,6.6812,6.6914,6.688,6.6812,6.6914,6.7387,6.803,6.8132,6.8673,6.9451,7.0094,7.0297,7.0432,7.1109,7.1312,7.1312,7.1312,7.1312,7.1312,7.1312,7.1312,7.1312,7.1312,7.1312,7.1312,7.1312,7.1312,7.1312,7.1312,7.1312,7.1312,7.1312,7.1312,7.1515,7.2157,7.236,7.2868,7.4289,7.4559,7.4864,7.5608,7.5709,7.5709,7.5709,7.5709,7.5709,7.5709,7.5709,7.5709,7.5709,7.5709,7.5709,7.5709,7.5709,7.5709,7.5709,7.5818,7.6404,7.7476,7.7345,7.7683,7.8366,7.7911,7.7739,3.4475,3.343,3.2968,3.3314,3.366,0.0,3.5776,3.6392,3.8,4.2567,4.3415,4.4144,4.6906,4.8419,4.9277,4.9424,5.2763,5.6859,6.1227,6.2548,6.3429,6.4457,6.5705,6.6549,6.6733,6.7467,6.8183,6.8823,6.9672,7.0423,7.1091,6.9242,6.8189,6.8189,6.7291,6.6812,6.6812,6.6812,6.6812,6.6812,6.6812,6.6812,6.6812,6.6812,6.6812,6.6812,6.6812,6.6812,6.688,6.7455,6.7354,6.688,6.7455,6.8166,6.8944,6.9519,7.0229,7.0906,7.1041,7.1109,7.1109,7.1278,7.1312,7.1312,7.1312,7.1312,7.1312,7.1312,7.1312,7.1312,7.1312,7.1312,7.1312,7.1312,7.1312,7.1312,7.1312,7.1312,7.1312,7.1312,7.1312,7.1345,7.1515,7.2022,7.2699,7.3578,7.4221,7.4864,7.5608,7.5709,7.5709,7.5709,7.5709,7.5709,7.5709,7.5709,7.5709,7.5709,7.5709,7.5709,7.5709,7.5709,7.5709,7.5709,7.6554,7.752,7.8659,7.7736,7.7361,7.75,7.6548,7.6149,3.6776,3.5776,3.5353,3.4891,3.4507,0.0,0.0,3.6392,3.7471,4.242,4.2661,4.2715,4.5103,4.5752,4.6012,4.6434,5.0618,5.4216,5.5427,5.9428,6.2511,6.3356,6.453,6.5632,6.6402,6.6843,6.7577,6.8825,6.996,7.0774,7.1175,7.0217,6.9423,6.8947,6.8024,6.725,6.6812,6.6812,6.6812,6.6812,6.6812,6.6812,6.6812,6.6812,6.6812,6.6812,6.6812,6.7015,6.7387,6.776,6.7929,6.7996,6.8368,6.8977,6.9688,7.006,7.0669,7.1312,7.1312,7.1312,7.1312,7.1312,7.1312,7.1312,7.1312,7.1312,7.1312,7.1312,7.1312,7.1312,7.1312,7.1312,7.1312,7.1312,7.1312,7.1312,7.1312,7.1312,7.1312,7.1312,7.1312,7.1312,7.1312,7.1616,7.209,7.2834,7.3578,7.4322,7.5067,7.5473,7.5709,7.5709,7.5709,7.5709,7.5709,7.5709,7.5709,7.5709,7.5709,7.5709,7.5709,7.5709,7.5709,7.5709,7.7822,7.8983,7.8983,7.8453,7.8161,7.8119,7.6462,7.5709,3.9161,3.8354,3.8123,3.6584,3.5584,3.5591,0.0,0.0,0.0,4.3281,4.3232,4.2574,4.364,4.3188,4.2904,4.3698,4.7792,5.0251,4.8472,5.4436,5.9465,6.0603,6.2585,6.4163,6.5007,6.5228,6.6329,6.8715,6.9376,7.0119,7.1219,7.0869,7.0322,6.9743,6.8569,6.7582,6.6812,6.6812,6.6812,6.6812,6.6812,6.6812,6.6812,6.6812,6.6812,6.6812,6.6948,6.7354,6.7929,6.8233,6.8741,6.9316,6.9316,6.9688,7.0195,7.0364,7.0804,7.1312,7.1312,7.1312,7.1312,7.1312,7.1312,7.1312,7.1312,7.1312,7.1312,7.1312,7.1312,7.1312,7.1312,7.1312,7.1312,7.1312,7.1312,7.1312,7.1312,7.1312,7.1312,7.1312,7.1312,7.1312,7.1312,7.1312,7.1548,7.2293,7.2902,7.3612,7.4492,7.5134,7.554,7.5676,7.5709,7.5709,7.5709,7.5709,7.5709,7.5709,7.5709,7.5709,7.5709,7.5709,7.5913,7.6312,7.8943,7.9956,7.9302,7.9103,7.8983,7.8943,7.6736,7.5709,4.0854,3.9669,3.9284,3.5437,3.6045,3.6507,3.2462,0.0,3.3415,3.318,0.0,3.4007,3.4442,0.0,0.0,3.6162,3.9738,4.2636,4.3057,4.6985,5.0655,5.2931,5.8988,6.2181,6.0212,6.0676,6.3282,6.8531,6.5705,6.5972,7.0999,6.9721,6.9069,6.9672,6.794,6.6904,6.6812,6.6812,6.6812,6.6812,6.6812,6.6812,6.6812,6.6812,6.6812,6.6846,6.7489,6.7827,6.7996,6.9383,6.9992,7.006,7.006,7.0128,7.0263,7.0939,7.1244,7.1312,7.1312,7.1312,7.1312,7.1312,7.1312,7.1312,7.1312,7.1312,7.1312,7.1312,7.1312,7.1312,7.1312,7.1312,7.1312,7.1312,7.1312,7.1312,7.1312,7.1312,7.1312,7.1312,7.1312,7.1312,7.1312,7.1312,7.1548,7.2293,7.2462,7.3037,7.4424,7.4695,7.4999,7.5642,7.5709,7.5709,7.5709,7.5709,7.5709,7.5709,7.5709,7.5709,7.5709,7.5709,7.6599,7.8577,7.8983,7.9611,8.0403,7.9458,7.8983,7.8943,7.6736,7.5709,4.117,4.1708,4.2324,3.7584,3.793,3.8123,3.3006,3.1654,3.1597,3.2108,0.0,0.0,0.0,0.0,0.0,0.0,3.7116,3.9166,3.7588,4.247,4.7278,5.0178,5.3261,5.6014,5.829,5.9245,6.164,6.6349,6.3858,6.3945,6.812,6.8949,6.8992,6.8208,6.7821,6.7373,6.6812,6.6812,6.6812,6.6812,6.6812,6.6812,6.6812,6.6812,6.7049,6.7455,6.776,6.8402,6.9282,6.9925,7.0432,7.0838,7.0838,7.0838,7.0872,7.121,7.1312,7.1312,7.1312,7.1312,7.1312,7.1312,7.1312,7.1312,7.1312,7.1312,7.1312,7.1312,7.1312,7.1312,7.1312,7.1312,7.1312,7.1312,7.1312,7.1312,7.1312,7.1312,7.1312,7.1312,7.1312,7.1312,7.1312,7.1312,7.1413,7.1718,7.2124,7.2631,7.324,7.4086,7.4728,7.5033,7.5439,7.5709,7.5709,7.5709,7.5709,7.5709,7.5709,7.5973,7.6599,7.7248,7.8034,7.8983,8.0219,8.0768,8.0623,7.9497,7.8983,7.8943,7.6736,7.5709,4.3239,4.4239,4.4855,3.8815,3.8392,3.82,3.3314,3.1814,3.1775,3.3006,3.2677,0.0,0.0,0.0,0.0,0.0,0.0,3.6523,3.4137,3.8358,4.2837,4.5847,4.7627,5.0618,5.5831,5.5756,5.7716,6.3392,6.1303,6.1848,6.6666,6.8558,6.8882,6.7531,6.7726,6.7501,6.6812,6.6812,6.6812,6.6812,6.6812,6.6812,6.6812,6.7015,6.7387,6.7929,6.8335,6.9147,7.0195,7.0398,7.0804,7.1312,7.1312,7.1312,7.1312,7.1312,7.1312,7.1312,7.1312,7.1312,7.1312,7.1312,7.1312,7.1312,7.1312,7.1312,7.1312,7.1312,7.1312,7.1312,7.1312,7.1312,7.1312,7.1312,7.1312,7.1312,7.1312,7.1312,7.1312,7.1312,7.1312,7.1312,7.1312,7.1312,7.1312,7.1312,7.1751,7.2191,7.236,7.351,7.439,7.4593,7.527,7.5709,7.5709,7.5709,7.5709,7.5709,7.5973,7.6645,7.7736,7.8577,7.9262,7.988,8.1124,8.1508,8.1054,7.9956,7.9262,7.8943,7.6736,7.5709,4.85,4.7355,4.6009,3.7654,3.6192,3.5692,3.1462,3.2352,3.409,3.4167,3.6084,3.7679,3.7521,0.0,0.0,0.0,0.0,0.0,0.0,0.0,0.0,3.7603,4.269,4.7645,5.1793,4.8207,4.9783,5.9797,5.7121,5.9076,6.8339,6.8622,6.8539,6.8469,6.7443,6.6854,6.6812,6.6812,6.6812,6.6812,6.6812,6.6812,6.6846,6.7557,6.7895,6.7996,6.9485,7.0128,7.0263,7.0973,7.1312,7.1312,7.1312,7.1312,7.1312,7.1312,7.1312,7.1312,7.1312,7.1312,7.1312,7.1312,7.1312,7.1312,7.1312,7.1312,7.1312,7.1312,7.1312,7.1312,7.1312,7.1312,7.1312,7.1312,7.1312,7.1312,7.1312,7.1312,7.1312,7.1312,7.1312,7.1312,7.1312,7.1312,7.1312,7.1312,7.1345,7.1616,7.2326,7.3037,7.3815,7.4525,7.527,7.5709,7.5709,7.5709,7.5709,7.5709,7.6656,7.7736,7.8903,7.8983,7.9994,8.2088,8.116,8.116,8.2154,8.1089,7.9994,7.8943,7.6736,7.5709,5.0048,5.1241,5.1087,4.2624,4.1585,4.0739,3.366,3.316,3.4052,3.3468,3.5353,3.7101,3.7034,0.0,0.0,0.0,0.0,0.0,0.0,0.0,0.0,0.0,0.0,0.0,0.0,0.0,5.094,5.6219,5.7254,5.9895,6.5057,6.6355,6.6811,6.6652,6.6269,6.6305,6.6812,6.6812,6.6812,6.6812,6.6812,6.7083,6.7557,6.7793,6.847,6.9451,6.9958,7.0466,7.1007,7.1718,7.2022,7.2022,7.2022,7.2022,7.1988,7.1481,7.1312,7.1312,7.1312,7.1312,7.1312,7.1312,7.1312,7.1312,7.1312,7.1312,7.1312,7.1312,7.1312,7.1312,7.1312,7.1312,7.1312,7.1312,7.1312,7.1312,7.1312,7.1312,7.1312,7.1312,7.1312,7.1312,7.1312,7.1312,7.1312,7.1312,7.1312,7.1413,7.165,7.2732,7.3578,7.3849,7.4965,7.5709,7.5709,7.5709,7.5709,7.5709,7.6701,7.7822,7.8943,7.9688,8.0695,8.2154,8.1815,8.1852,8.2186,8.044,7.9341,7.8943,7.6736,7.5709,5.2828,5.4049,5.3972,4.6701,4.5932,4.4902,3.6969,3.6546,3.7546,3.6699,3.7249,3.8797,4.1742,0.0,0.0,0.0,0.0,0.0,0.0,3.1592,0.0,0.0,0.0,0.0,0.0,0.0,0.0,5.5325,5.624,0.0,6.5093,6.6143,6.6566,6.6656,6.6038,6.6034,6.6812,6.6812,6.6812,6.6812,6.7083,6.7455,6.7929,6.847,6.9248,7.0195,7.0466,7.1007,7.1751,7.2191,7.2563,7.28,7.28,7.28,7.2665,7.1684,7.1312,7.1312,7.1312,7.1312,7.1312,7.1312,7.1312,7.1312,7.1312,7.1312,7.1312,7.1312,7.1312,7.1312,7.1312,7.1312,7.1312,7.1312,7.1312,7.1312,7.1312,7.1312,7.1312,7.1312,7.1312,7.1312,7.1312,7.1312,7.1312,7.1312,7.1312,7.1312,7.1312,7.2597,7.3477,7.3477,7.4796,7.5709,7.5709,7.5709,7.5709,7.5709,7.7105,7.8245,7.8983,8.0403,8.1474,8.2186,8.2186,8.2186,8.2186,8.0189,7.8953,7.8518,7.6459,7.542]}]]